     2              OBSERVATION DATA    GPS                 RINEX VERSION / TYPE
teqc 1997Jul24 19970902 21:08:15UTC                         PGM / RUN BY / DATE
                                                            COMMENT
BIT 2 OF LLI FLAGS DATA COLLECTED UNDER A-S CONDITION       COMMENT
BIT 2 OF LLI FLAGS DATA COLLECTED UNDER A-S CONDITION       COMMENT
Original Marker Name: 55447.PEAR                            COMMENT
Campaign Name: Salt. Tr. Crust. Monit. May-Jun 1986         COMMENT
4-Character Station Name: PEAR                              COMMENT
6-Character Antenna Code: TI4100                            COMMENT
Vertical Measurement Point: PAE                             COMMENT
Vertical Offset to Rinex Ref. Point: 0.0000                 COMMENT
Radial Measurement Point: RRP                               COMMENT
Radial Offset to Rinex Ref. Point: 0.0000                   COMMENT
Antenna Height from Field Measurement: 1.3420 m             COMMENT
Original XYZ: -2464033.3225 -4649366.1658 3593888.2661      COMMENT
New XYZ position is based on association with SCEC monument COMMENT
E1F2D3B2+0011. Position of that monument is believed to be  COMMENT
valid to within 1 m horizontally; vertical accuracy         COMMENT
should be no worse than 3-times this value.                 COMMENT
                                                            COMMENT
Revised Rinex header created by UCSD GPS archive for        COMMENT
GSAC on 14-Apr-1999 (1999:104) 21:39:40 GMT                 COMMENT
For assistance contact dagnew@ucsd.edu or hjohnson@ucsd.edu COMMENT
                                                            COMMENT
PEARBLOSSOM NCMN 1983                                       MARKER NAME
5 NATIONAL GEODETIC SURVEY                                  OBSERVER / AGENCY
UT-18 TI 4100 1.0                                           REC # / TYPE / VERS
4014 TI 4100                                                ANT # / TYPE
 -2464071.0000 -4649425.0000  3593906.0000                  APPROX POSITION XYZ
        1.3420        0.0000        0.0000                  ANTENNA: DELTA H/E/N
     1     1     0                                          WAVELENGTH FACT L1/2
     4    P1    P2    L1    L2                              # / TYPES OF OBSERV
     6                                                      INTERVAL
  1986     6    11     1    14   29.000000                  TIME OF FIRST OBS
  1986     6    11     3     1   23.000000                  TIME OF LAST OBS
     0                                                      # OF SATELLITES
                                                            END OF HEADER
 86  6 11  1 14 29.0800000  0  4G 6G 8G 9G11
  20822533.815    20822536.646    37502917.815 9 -48343645.667 9
  24547803.701    24547809.239    57220933.630 8 -33461035.517 9
  20330733.591    20330733.740    22607091.192 9 -60190216.443 9
  21056387.998    21056392.109    37122099.622 8 -49061193.650 8
 86  6 11  1 14 35.0800000  0  4G 6G 8G 9G11
  20824241.380    20824243.314    37511889.169 9 -48336655.000 8
  24552015.946    24552020.155    57243069.436 8 -33443786.829 8
  20329076.345    20329076.994    22598383.792 9 -60197001.435 8
  21058289.302    21058292.564    37132089.098 9 -49053409.644 8
 86  6 11  1 14 41.0800000  0  4G 6G 8G 9G11
  20825952.687    20825955.039    37520881.232 9 -48329648.204 8
  24556229.344    24556232.811    57265205.263 8 -33426538.130 8
  20327423.160    20327423.509    22589695.103 8 -60203771.838 8
  21060193.279    21060195.352    37142094.668 9 -49045613.104 8
 86  6 11  1 14 47.0800000  0  4G 6G 8G 9G11
  20827668.291    20827669.514    37529894.053 9 -48322625.226 9
  24560440.168    24560444.900    57287341.065 7 -33409289.470 8
  20325772.808    20325773.429    22581025.156 9 -60210527.643 7
  21062100.473    21062102.893    37152116.355 9 -49037804.001 9
 86  6 11  1 14 53.0800000  0  4G 6G 8G 9G11
  20829386.918    20829389.396    37538927.601 9 -48315586.108 8
  24564652.192    24564657.183    57309476.806 9 -33392040.845 8
  20324127.595    20324127.930    22572373.962 9 -60217268.826 8
  21064010.836    21064012.756    37162154.122 9 -49029982.364 9
 86  6 11  1 14 59.0800000  0  4G 6G 8G 9G11
  20831110.243    20831111.071    37547981.864 8 -48308530.842 8
  24568865.070    24568869.629    57331612.450 8 -33374792.286 8
  20322484.784    20322485.433    22563741.457 9 -60223995.459 8
  21065923.301    21065925.921    37172208.004 9 -49022148.178 8
 86  6 11  1 15  5.0800000  0  4G 6G 8G 9G11
  20832837.772    20832839.106    37557056.864 9 -48301459.415 7
  24573078.455    24573082.441    57353748.009 8 -33357543.774 7
  20320845.510    20320844.314    22555127.747 9 -60230707.451 7
  21067840.118    21067842.336    37182277.930 9 -49014301.486 8
 86  6 11  1 15 11.0800000  0  3G 6G 9G11
  20834567.995    20834570.117    37566152.561 4 -48294371.859 4
  20319208.854    20319210.661    22546532.859 8 -60237404.765 8
  21069759.706    21069760.967    37192363.840 9 -49006442.334 8
 86  6 11  1 15 17.0800000  0  3G 6G 9G11
  20836301.838    20836303.353    37575268.832 5 -48287268.264 2
  20317577.662    20317578.555    22537956.623 8 -60244087.543 8
  21071681.392    21071683.586    37202465.676 9 -48998570.768 8
 86  6 11  1 15 23.0800000  0  3G 6G 9G11
  20838040.321    20838044.838    37584405.983 5 -48280148.414 3
  20315948.645    20315949.995    22529399.366 9 -60250755.537 9
  21073606.746    21073608.531    37212583.593 9 -48990686.680 9
 86  6 11  1 15 29.0800000  0  3G 6G 9G11
  20839784.675    20839785.266    37593563.716 4 -48273012.524 5
  20314324.321    20314325.816    22520860.809 9 -60257408.949 8
  21075535.318    21075537.597    37222717.306 9 -48982790.281 9
 86  6 11  1 15 35.0800000  0  3G 6G 9G11
  20841530.983    20841533.056    37602742.283 6 -48265860.404 5
  20312703.893    20312704.672    22512341.342 8 -60264047.497 9
  21077466.534    21077469.235    37232867.101 9 -48974881.351 9
 86  6 11  1 15 41.0800000  0  3G 6G 9G11
  20843282.136    20843283.134    37611941.397 3 -48258692.256 4
  20311084.407    20311087.474    22503840.645 9 -60270671.418 8
  21079401.758    21079403.336    37243032.703 9 -48966960.109 8
 86  6 11  1 15 47.0800000  0  3G 6G 9G11
  20845036.502    20845037.192    37621161.411 5 -48251507.831 2
  20309471.760    20309473.370    22495358.932 8 -60277280.547 9
  21081340.274    21081341.762    37253214.327 9 -48959026.374 9
 86  6 11  1 15 53.0800000  0  3G 6G 9G11
  20846794.687    20846796.860    37630402.014 4 -48244307.383 3
  20307860.603    20307860.952    22486896.023 8 -60283875.034 8
  21083279.008    21083282.100    37263411.750 9 -48951080.330 9
 86  6 11  1 15 59.0800000  0  3G 6G 9G11
  20848556.151    20848558.680    37639663.327 9 -48237090.763 8
  20306254.180    20306254.715    22478452.148 9 -60290454.674 8
  21085222.182    21085225.374    37273625.083 9 -48943121.893 8
 86  6 11  1 16  5.0800000  0  3G 6G 9G11
  20850322.524    20850323.910    37648945.380 9 -48229857.997 9
  20304649.978    20304650.856    22470027.348 9 -60297019.447 8
  21087168.772    21087172.313    37283854.337 9 -48935151.048 9
 86  6 11  1 16 11.0800000  0  3G 6G 9G11
  20852092.602    20852093.954    37658248.078 8 -48222609.146 8
  20303049.652    20303051.861    22461621.323 8 -60303569.587 8
  21089119.037    21089121.418    37294099.324 9 -48927167.951 9
 86  6 11  1 16 17.0800000  0  3G 6G 9G11
  20853867.807    20853868.135    37667571.634 9 -48215344.043 8
  20301454.147    20301457.157    22453234.613 9 -60310104.694 8
  21091071.380    21091074.993    37304360.197 9 -48919172.459 9
 86  6 11  1 16 23.0800000  0  3G 6G 9G11
  20855645.172    20855647.283    37676915.708 9 -48208062.949 9
  20299862.751    20299864.086    22444866.574 9 -60316625.246 8
  21093026.545    21093029.049    37314636.719 9 -48911164.797 9
 86  6 11  1 16 29.0800000  0  3G 6G 9G11
  20857427.630    20857428.988    37686280.595 9 -48200765.638 8
  20298274.514    20298276.396    22436517.813 8 -60323130.761 8
  21094984.867    21094987.815    37324929.143 9 -48903144.722 9
 86  6 11  1 16 35.0800000  0  3G 6G 9G11
  20859214.606    20859214.053    37695666.036 9 -48193452.310 9
  20296688.729    20296691.708    22428188.036 8 -60329621.508 8
  21096947.545    21096949.842    37335237.153 9 -48895112.519 9
 86  6 11  1 16 41.0800000  0  3G 6G 9G11
  20861004.307    20861005.570    37705072.278 8 -48186122.767 8
  20295108.120    20295109.542    22419877.485 9 -60336097.266 9
  21098912.558    21098914.024    37345560.957 9 -48887067.994 8
 86  6 11  1 16 47.0800000  0  3G 6G 9G11
  20862796.754    20862796.965    37714499.192 8 -48178777.132 8
  20293529.501    20293529.693    22411585.878 9 -60342558.266 8
  21100879.406    21100881.443    37355900.430 9 -48879011.260 9
 86  6 11  1 16 53.0800000  0  3G 6G 9G11
  20864594.792    20864595.632    37723946.727 8 -48171415.420 8
  20291955.132    20291955.854    22403313.393 8 -60349004.356 9
  21102850.211    21102851.662    37366255.613 9 -48870942.289 8
 86  6 11  1 16 59.0800000  0  3G 6G 9G11
  20866397.145    20866397.604    37733415.018 9 -48164037.535 8
  20290385.498    20290386.850    22395060.112 8 -60355435.483 8
  21104823.431    21104825.430    37376626.594 9 -48862861.008 8
 86  6 11  1 17  5.0800000  0  3G 6G 9G11
  20868201.567    20868203.193    37742903.891 8 -48156643.617 8
  20288818.326    20288819.563    22386825.898 8 -60361851.755 8
  21106799.502    21106802.507    37387013.071 9 -48854767.660 9
 86  6 11  1 17 11.0800000  0  3G 6G 9G11
  20870012.182    20870012.052    37752413.672 9 -48149233.408 8
  20287254.776    20287255.654    22378611.048 8 -60368252.938 8
  21108779.701    21108781.231    37397415.311 9 -48846662.008 9
 86  6 11  1 17 17.0800000  0  3G 6G 9G11
  20871824.479    20871828.042    37761943.957 9 -48141807.204 9
  20285695.018    20285696.553    22370415.330 9 -60374639.213 9
  21110762.638    21110764.874    37407833.006 9 -48838544.339 8
 86  6 11  1 17 23.0800000  0  3G 6G 9G11
  20873642.922    20873645.640    37771495.038 9 -48134364.822 8
  20284140.008    20284141.343    22362238.919 9 -60381010.448 9
  21112747.703    21112749.006    37418266.399 9 -48830414.410 9
 86  6 11  1 17 29.0800000  0  3G 6G 9G11
  20875464.636    20875465.977    37781066.710 9 -48126906.368 8
  20282587.588    20282588.224    22354081.658 9 -60387366.758 9
  21114736.834    21114738.218    37428715.275 9 -48822272.430 9
 86  6 11  1 17 35.0800000  0  3G 6G 9G11
  20877289.969    20877291.343    37790659.090 8 -48119431.791 9
  20281037.804    20281040.198    22345943.678 9 -60393708.041 8
  21116728.603    21116729.346    37439179.744 9 -48814118.300 8
 86  6 11  1 17 41.0800000  0  3G 6G 9G11
  20879118.459    20879120.796    37800272.199 8 -48111941.069 8
  20279494.141    20279496.608    22337825.006 8 -60400034.272 8
  21118721.647    21118723.342    37449659.729 9 -48805952.089 8
 86  6 11  1 17 47.0800000  0  3G 6G 9G11
  20880952.105    20880953.403    37809905.866 9 -48104434.316 8
  20277952.427    20277953.790    22329725.603 8 -60406345.507 9
  21120718.935    21120720.936    37460155.135 8 -48797773.844 8
 86  6 11  1 17 53.0800000  0  3G 6G 9G11
  20882788.681    20882790.498    37819560.281 8 -48096911.403 7
  20276414.074    20276416.668    22321645.608 9 -60412641.600 8
  21122719.035    21122720.703    37470666.184 9 -48789583.422 8
 86  6 11  1 17 59.0800000  0  3G 6G 9G11
  20884631.054    20884631.279    37829235.262 8 -48089372.465 8
  20274880.957    20274882.381    22313584.823 8 -60418922.728 8
  21124722.046    21124724.415    37481192.540 9 -48781381.069 8
 86  6 11  1 18  5.0800000  0  3G 6G 9G11
  20886476.755    20886478.115    37838931.068 9 -48081817.286 9
  20273351.090    20273351.697    22305543.615 8 -60425188.602 8
  21126728.484    21126731.092    37491734.515 9 -48773166.543 9
 86  6 11  1 18 11.0800000  0  3G 6G 9G11
  20888325.599    20888326.300    37848647.390 9 -48074246.132 8
  20271824.601    20271825.592    22297521.564 9 -60431439.569 8
  21128737.434    21128739.607    37502291.784 9 -48764940.101 8
 86  6 11  1 18 17.0800000  0  3G 6G 9G11
  20890177.754    20890179.602    37858384.542 8 -48066658.747 9
  20270301.929    20270302.636    22289519.071 8 -60437675.268 8
  21130748.651    21130750.933    37512864.584 9 -48756701.568 9
 86  6 11  1 18 23.0800000  0  3G 6G 9G11
  20892033.608    20892036.394    37868142.209 9 -48059055.378 9
  20268782.437    20268784.031    22281535.971 9 -60443895.880 8
  21132763.789    21132765.854    37523452.707 9 -48748451.085 9
 86  6 11  1 18 29.0800000  0  3G 6G 9G11
  20893895.886    20893896.071    37877920.489 9 -48051435.933 8
  20267267.050    20267267.285    22273572.258 8 -60450101.358 9
  21134781.760    21134784.633    37534056.236 9 -48740188.594 8
 86  6 11  1 18 35.0800000  0  3G 6G 9G11
  20895761.107    20895760.848    37887719.574 9 -48043800.292 8
  20265754.926    20265755.404    22265628.088 8 -60456291.621 8
  21136802.046    21136804.763    37544675.116 9 -48731914.151 9
 86  6 11  1 18 41.0800000  0  3G 6G 9G11
  20897629.429    20897630.226    37897539.204 9 -48036148.639 8
  20264246.150    20264248.101    22257703.217 8 -60462466.846 7
  21138826.407    21138828.743    37555309.207 9 -48723627.842 8
 86  6 11  1 18 47.0800000  0  3G 6G 9G11
  20899502.119    20899502.308    37907379.578 8 -48028480.822 8
  20262742.740    20262743.662    22249798.065 9 -60468626.714 8
  21140852.650    21140854.936    37565958.795 9 -48715329.465 9
 86  6 11  1 18 53.0800000  0  3G 6G 9G11
  20901377.982    20901379.616    37917240.442 9 -48020797.026 8
  20261242.977    20261243.197    22241912.342 9 -60474771.433 8
  21142882.014    21142883.747    37576623.485 9 -48707019.327 9
 86  6 11  1 18 59.0800000  0  3G 6G 9G11
  20903258.668    20903258.763    37927122.111 9 -48013097.030 8
  20259745.566    20259746.571    22234046.203 9 -60480900.892 8
  21144913.974    21144916.716    37587303.598 9 -48698697.157 8
 86  6 11  1 19  5.0800000  0  3G 6G 9G11
  20905142.358    20905144.121    37937024.357 8 -48005381.002 9
  20258251.071    20258253.694    22226199.500 9 -60487015.209 8
  21146949.639    21146951.535    37597998.809 9 -48690363.230 9
 86  6 11  1 19 11.0800000  0  3G 6G 9G11
  20907030.932    20907032.762    37946947.276 8 -47997648.862 8
  20256761.769    20256764.164    22218372.448 9 -60493114.208 9
  21148987.203    21148989.441    37608709.267 9 -48682017.420 8
 86  6 11  1 19 17.0800000  0  3G 6G 9G11
  20908923.609    20908924.710    37956890.812 9 -47989900.656 9
  20255275.489    20255278.040    22210564.997 8 -60499197.930 8
  21151027.998    21151031.361    37619434.948 9 -48673659.755 9
 86  6 11  1 19 23.0800000  0  3G 6G 9G11
  20910819.207    20910820.873    37966854.913 9 -47982136.426 8
  20253793.713    20253795.663    22202777.231 8 -60505266.328 9
  21153072.079    21153074.248    37630175.794 8 -48665290.263 9
 86  6 11  1 19 29.0800000  0  3G 6G 9G11
  20912719.772    20912722.587    37976839.783 9 -47974356.021 8
  20252316.747    20252317.726    22195009.109 9 -60511319.409 8
  21155118.856    21155121.619    37640931.917 9 -48656908.876 8
 86  6 11  1 19 35.0800000  0  3G 6G 9G11
  20914623.431    20914624.566    37986845.170 9 -47966559.618 8
  20250842.327    20250842.705    22187260.496 9 -60517357.292 8
  21157169.056    21157170.540    37651703.073 9 -48648515.769 9
 86  6 11  1 19 41.0800000  0  3G 6G 9G11
  20916531.714    20916532.467    37996871.324 8 -47958747.031 9
  20249370.941    20249371.548    22179531.702 9 -60523379.739 7
  21159220.557    21159224.749    37662489.490 9 -48640110.769 9
 86  6 11  1 19 47.0800000  0  3G 6G 9G11
  20918442.449    20918445.181    38006917.915 9 -47950918.535 8
  20247904.004    20247906.026    22171822.477 8 -60529386.917 8
  21161276.821    21161279.667    37673290.823 9 -48631694.145 9
 86  6 11  1 19 53.0800000  0  3G 6G 9G11
  20920358.518    20920359.648    38016985.219 8 -47943073.885 9
  20246440.432    20246442.969    22164132.966 9 -60535378.750 7
  21163335.662    21163338.714    37684107.415 9 -48623265.648 8
 86  6 11  1 19 59.0800000  0  3G 6G 9G11
  20922278.222    20922281.171    38027073.134 8 -47935213.178 8
  20244981.038    20244982.345    22156463.232 8 -60541355.163 7
  21165396.800    21165398.829    37694938.964 9 -48614825.475 8
 86  6 11  1 20  5.0800000  0  3G 6G 9G11
  20924201.857    20924203.831    38037181.642 9 -47927336.426 8
  20243525.177    20243526.099    22148813.294 8 -60547316.161 7
  21167460.547    21167463.409    37705785.593 9 -48606373.562 8
 86  6 11  1 20 11.0800000  0  3G 6G 9G11
  20926129.694    20926131.641    38047310.801 9 -47919443.586 8
  20242074.154    20242074.917    22141183.020 7 -60553261.832 8
  21169526.792    21169529.284    37716647.292 9 -48597909.903 8
 86  6 11  1 20 17.0800000  0  3G 6G 9G11
  20928060.705    20928062.364    38057460.420 9 -47911534.791 9
  20240624.918    20240627.828    22133572.513 8 -60559192.097 7
  21171596.937    21171599.714    37727523.905 9 -48589434.617 8
 86  6 11  1 20 23.0800000  0  3G 6G 9G11
  20929995.272    20929998.172    38067630.827 9 -47903609.808 8
  20239180.146    20239182.398    22125981.911 9 -60565106.847 7
  21173669.394    21173671.999    37738415.674 9 -48580947.529 9
 86  6 11  1 20 29.0800000  0  3G 6G 9G11
  20931934.903    20931936.200    38077821.602 9 -47895668.942 8
  20237741.057    20237741.749    22118411.020 9 -60571006.239 8
  21175744.839    21175748.000    37749322.255 9 -48572448.895 8
 86  6 11  1 20 35.0800000  0  3G 6G 9G11
  20933878.378    20933879.537    38088033.189 8 -47887711.871 8
  20236302.641    20236304.334    22110860.130 8 -60576890.057 8
  21177822.778    21177825.801    37760243.987 9 -48563938.467 8
 86  6 11  1 20 41.0800000  0  3G 6G 9G11
  20935824.694    20935827.299    38098265.231 9 -47879738.850 9
  20234870.516    20234872.670    22103328.951 9 -60582758.516 7
  21179904.521    21179907.623    37771180.507 9 -48555416.508 9
 86  6 11  1 20 47.0800000  0  3G 6G 9G11
  20937776.178    20937778.029    38108518.020 9 -47871749.678 9
  20233440.416    20233442.439    22095817.732 8 -60588611.404 8
  21181987.921    21181990.908    37782132.009 9 -48546882.867 8
 86  6 11  1 20 53.0800000  0  3G 6G 9G11
  20939731.474    20939733.304    38118791.335 9 -47863744.496 8
  20232015.247    20232016.125    22088326.393 9 -60594448.808 9
  21184075.328    21184078.659    37793098.340 9 -48538337.684 8
 86  6 11  1 20 59.0800000  0  3G 6G 9G11
  20941690.750    20941690.782    38129085.193 9 -47855723.308 8
  20230592.198    20230595.710    22080854.908 9 -60600270.748 9
  21186164.772    21186167.053    37804079.527 9 -48529780.923 8
 86  6 11  1 21  5.0800000  0  3G 6G 9G11
  20943653.099    20943654.440    38139399.708 9 -47847686.020 8
  20229175.315    20229177.468    22073403.467 8 -60606077.068 8
  21188257.291    21188260.763    37815075.653 9 -48521212.512 9
 86  6 11  1 21 11.0800000  0  3G 6G 9G11
  20945619.466    20945621.937    38149734.716 9 -47839632.776 8
  20227760.865    20227763.289    22065971.919 8 -60611867.889 8
  21190353.054    21190356.070    37826086.505 9 -48512632.625 9
 86  6 11  1 21 17.0800000  0  3G 6G 9G11
  20947590.197    20947592.454    38160090.512 8 -47831563.332 9
  20226350.580    20226352.920    22058560.470 8 -60617643.045 8
  21192450.662    21192454.522    37837112.338 9 -48504041.083 9
 86  6 11  1 21 23.0800000  0  3G 6G 9G11
  20949565.323    20949566.365    38170466.660 9 -47823478.020 8
  20224944.317    20224945.925    22051168.829 9 -60623402.760 9
  21194551.707    21194554.378    37848152.797 8 -48495438.127 9
 86  6 11  1 21 29.0800000  0  3G 6G 9G11
  20951543.958    20951544.766    38180863.536 9 -47815376.579 8
  20223541.657    20223543.680    22043797.362 9 -60629146.770 8
  21196656.181    21196658.105    37859208.136 9 -48486823.582 9
 86  6 11  1 21 35.0800000  0  3G 6G 9G11
  20953525.106    20953527.500    38191280.848 9 -47807259.175 8
  20222142.778    20222144.212    22036445.858 8 -60634875.208 9
  21198762.207    21198764.362    37870278.138 9 -48478197.602 9
 86  6 11  1 21 41.0800000  0  3G 6G 9G11
  20955512.551    20955514.681    38201718.827 9 -47799125.702 8
  20220747.644    20220749.639    22029114.454 7 -60640587.997 8
  21200871.562    21200874.938    37881362.929 9 -48469560.114 9
 86  6 11  1 21 47.0800000  0  3G 6G 9G11
  20957502.484    20957504.593    38212177.369 9 -47790976.189 8
  20219355.675    20219357.612    22021803.130 8 -60646285.138 8
  21202983.222    21202986.776    37892462.415 8 -48460911.160 9
 86  6 11  1 21 53.0800000  0  3G 6G 9G11
  20959497.067    20959499.117    38222656.381 9 -47782810.733 9
  20217969.171    20217971.622    22014511.833 9 -60651966.663 7
  21205098.396    21205102.073    37903576.537 9 -48452250.800 9
 86  6 11  1 21 59.0800000  0  3G 6G 9G11
  20961495.396    20961497.736    38233156.051 9 -47774629.178 9
  20216583.971    20216587.324    22007240.814 8 -60657632.397 8
  21207216.117    21207218.643    37914705.458 9 -48443578.932 9
 86  6 11  1 22  5.0800000  0  3G 6G 9G11
  20963496.818    20963499.267    38243676.103 9 -47766431.741 7
  20215205.120    20215205.914    21999989.676 8 -60663282.638 8
  21209337.031    21209339.684    37925848.860 8 -48434895.760 8
 86  6 11  1 22 11.0800000  0  3G 6G 9G11
  20965503.044    20965504.883    38254216.892 9 -47758218.126 8
  20213830.366    20213831.971    21992758.886 8 -60668917.022 8
  21211459.768    21211462.664    37937007.026 9 -48426201.083 9
 86  6 11  1 22 17.0800000  0  3G 6G 9G11
  20967513.032    20967513.918    38264778.121 9 -47749988.613 7
  20212457.167    20212457.975    21985548.127 8 -60674535.785 9
  21213585.485    21213589.298    37948179.618 8 -48417495.169 9
 86  6 11  1 22 23.0800000  0  3G 6G 9G11
  20969526.199    20969528.902    38275359.960 9 -47741743.026 7
  20211088.479    20211090.876    21978357.612 9 -60680138.797 8
  21215714.771    21215718.796    37959366.937 9 -48408777.798 9
 86  6 11  1 22 29.0800000  0  3G 6G 9G11
  20971543.298    20971545.343    38285962.267 9 -47733481.489 8
  20209723.854    20209726.007    21971187.317 9 -60685726.046 7
  21217846.937    21217849.656    37970568.757 9 -48400049.103 9
 86  6 11  1 22 35.0800000  0  3G 6G 9G11
  20973564.775    20973566.373    38296585.061 9 -47725204.000 9
  20208364.053    20208365.231    21964037.161 8 -60691297.592 8
  21219980.253    21219984.619    37981785.123 9 -48391309.087 9
 86  6 11  1 22 41.0800000  0  3G 6G 9G11
  20975590.560    20975593.152    38307228.448 8 -47716910.452 8
  20207007.841    20207009.635    21956907.276 9 -60696853.350 8
  21222118.398    21222121.396    37993016.068 8 -48382557.701 9
 86  6 11  1 22 47.0800000  0  3G 6G 9G11
  20977619.652    20977621.758    38317892.249 8 -47708601.007 9
  20205654.850    20205656.700    21949797.544 8 -60702393.393 8
  21224257.978    21224260.729    38004261.408 9 -48373795.100 9
 86  6 11  1 22 53.0800000  0  3G 6G 9G11
  20979652.535    20979654.525    38328576.675 8 -47700275.478 9
  20204306.994    20204306.686    21942708.243 7 -60707917.529 8
  21226400.618    21226403.410    38015521.331 8 -48365021.133 9
 86  6 11  1 22 59.0800000  0  3G 6G 9G11
  20981689.953    20981690.239    38339281.481 9 -47691934.083 8
  20202959.655    20202961.249    21935639.080 9 -60713425.962 9
  21228546.469    21228548.362    38026795.603 9 -48356235.996 9
 86  6 11  1 23  5.0800000  0  3G 6G 9G11
  20983730.994    20983732.078    38350006.998 9 -47683576.540 9
  20201618.698    20201620.734    21928590.331 9 -60718918.497 8
  21230695.598    21230697.148    38038084.509 9 -48347439.454 9
 86  6 11  1 23 11.0800000  0  3G 6G 9G11
  20985776.312    20985777.130    38360752.857 9 -47675203.143 9
  20200281.118    20200282.738    21921561.762 8 -60724395.303 8
  21232846.475    21232848.555    38049387.721 8 -48338631.755 9
 86  6 11  1 23 17.0800000  0  3G 6G 9G11
  20987824.495    20987826.133    38371519.347 9 -47666813.678 9
  20198948.060    20198949.438    21914553.660 8 -60729856.162 8
  21234998.119    21235001.808    38060705.439 9 -48329812.762 9
 86  6 11  1 23 23.0800000  0  3G 6G 9G11
  20989878.569    20989879.251    38382306.249 9 -47658408.312 9
  20197617.302    20197619.140    21907565.869 8 -60735301.186 8
  21237155.928    21237159.000    38072037.444 9 -48320982.627 9
 86  6 11  1 23 29.0800000  0  3G 6G 9G11
  20991933.144    20991936.239    38393113.643 8 -47649986.970 9
  20196291.341    20196294.537    21900598.538 8 -60740730.286 8
  21239314.552    21239317.840    38083383.824 9 -48312141.298 9
 86  6 11  1 23 35.0800000  0  3G 6G 9G11
  20993994.368    20993995.786    38403941.630 9 -47641549.585 9
  20194969.343    20194972.769    21893651.613 9 -60746143.473 9
  21241476.424    21241479.653    38094744.685 9 -48303288.681 8
 86  6 11  1 23 41.0800000  0  3G 6G 9G11
  20996058.772    20996060.514    38414789.926 9 -47633096.360 8
  20193652.096    20193653.461    21886725.027 8 -60751540.806 8
  21243640.968    21243645.027    38106119.763 9 -48294424.993 9
 86  6 11  1 23 47.0800000  0  3G 6G 9G11
  20998125.872    20998128.414    38425658.892 9 -47624627.048 8
  20192337.896    20192339.477    21879819.083 9 -60756922.060 8
  21245809.214    21245812.038    38117509.301 8 -48285550.024 8
 86  6 11  1 23 53.0800000  0  3G 6G 9G11
  21000198.261    21000200.481    38436548.223 9 -47616141.867 8
  20191026.661    20191029.699    21872933.380 8 -60762287.549 7
  21247978.415    21247981.971    38128912.962 9 -48276664.059 9
 86  6 11  1 23 59.0800000  0  3G 6G 9G11
  21002275.318    21002276.740    38447458.165 8 -47607640.614 9
  20189719.457    20189721.668    21866068.384 9 -60767636.904 9
  21250150.695    21250154.854    38140331.040 9 -48267766.864 8
 86  6 11  1 24  5.0800000  0  3G 6G 9G11
  21004354.716    21004356.291    38458388.514 9 -47599123.463 9
  20188417.864    20188420.159    21859223.833 7 -60772970.305 9
  21252327.454    21252329.505    38151763.242 9 -48258858.649 9
 86  6 11  1 24 11.0800000  0  3G 6G 9G11
  21006439.374    21006440.294    38469339.354 9 -47590590.344 9
  20187120.176    20187121.170    21852399.764 8 -60778287.756 9
  21254505.579    21254506.889    38163209.729 8 -48249939.321 9
 86  6 11  1 24 17.0800000  0  3G 6G 9G11
  21008525.799    21008527.932    38480310.666 9 -47582041.276 9
  20185824.022    20185827.590    21845596.199 9 -60783589.244 8
  21256686.342    21256689.075    38174670.419 8 -48241008.915 9
 86  6 11  1 24 23.0800000  0  3G 6G 9G11
  21010617.891    21010619.236    38491302.368 9 -47573476.313 8
  20184532.932    20184536.844    21838813.098 8 -60788874.781 8
  21258869.882    21258872.596    38186145.247 9 -48232067.505 9
 86  6 11  1 24 29.0800000  0  3G 6G 9G11
  21012713.415    21012715.795    38502314.652 9 -47564895.326 9
  20183247.707    20183249.388    21832050.685 9 -60794144.200 8
  21261055.463    21261058.873    38197634.287 9 -48223115.003 9
 86  6 11  1 24 35.0800000  0  3G 6G 9G11
  21014813.490    21014814.743    38513347.180 9 -47556298.558 8
  20181964.688    20181966.884    21825308.759 8 -60799397.645 8
  21263245.282    21263247.317    38209137.315 9 -48214151.614 9
 86  6 11  1 24 41.0800000  0  3G 6G 9G11
  21016915.933    21016917.940    38524400.345 9 -47547685.708 9
  20180685.877    20180686.498    21818587.555 8 -60804634.947 8
  21265435.861    21265440.174    38220654.604 9 -48205177.102 8
 86  6 11  1 24 47.0800000  0  3G 6G 9G11
  21019023.245    21019026.155    38535473.806 9 -47539057.036 9
  20179409.738    20179413.037    21811886.845 7 -60809856.274 8
  21267630.662    21267633.624    38232185.821 8 -48196191.749 9
 86  6 11  1 24 53.0800000  0  3G 6G 9G11
  21021135.487    21021136.510    38546567.803 8 -47530412.374 8
  20178139.155    20178141.493    21805206.959 8 -60815061.374 8
  21269827.675    21269830.127    38243731.241 9 -48187195.322 9
 86  6 11  1 24 59.0800000  0  3G 6G 9G11
  21023249.505    21023252.155    38557682.218 9 -47521751.796 9
  20176871.560    20176873.786    21798547.627 8 -60820250.472 9
  21272027.591    21272029.723    38255290.664 9 -48178187.971 9
 86  6 11  1 25  5.0800000  0  3G 6G 9G11
  21025368.370    21025370.935    38568817.020 9 -47513075.336 9
  20175607.973    20175609.711    21791908.908 8 -60825423.493 8
  21274229.840    21274232.980    38266864.157 9 -48169169.666 9
 86  6 11  1 25 11.0800000  0  3G 6G 9G11
  21027492.629    21027494.100    38579972.317 9 -47504382.900 9
  20174349.064    20174352.818    21785291.001 9 -60830580.306 7
  21276435.402    21276437.780    38278451.739 9 -48160140.397 9
 86  6 11  1 25 17.0800000  0  3G 6G 9G11
  21029618.178    21029620.570    38591147.978 9 -47495674.595 8
  20173094.018    20173096.271    21778693.696 8 -60835721.072 8
  21278642.936    21278645.714    38290053.224 9 -48151100.281 9
 86  6 11  1 25 23.0800000  0  3G 6G 9G11
  21031748.401    21031751.209    38602344.090 9 -47486950.371 8
  20171842.908    20171844.474    21772117.214 9 -60840845.608 8
  21280853.529    21280856.283    38301668.825 9 -48142049.169 9
 86  6 11  1 25 29.0800000  0  3G 6G 9G11
  21033883.398    21033885.841    38613560.450 9 -47478210.352 8
  20170595.190    20170597.998    21765561.361 9 -60845954.055 8
  21283066.914    21283068.080    38313298.222 9 -48132987.303 9
 86  6 11  1 25 35.0800000  0  3G 6G 9G11
  21036022.649    21036023.438    38624797.407 9 -47469454.290 9
  20169351.964    20169353.185    21759026.519 8 -60851046.151 9
  21285282.628    21285285.024    38324941.679 9 -48123914.480 9
 86  6 11  1 25 41.0800000  0  3G 6G 9G11
  21038163.934    21038165.708    38636054.600 9 -47460682.456 8
  20168111.701    20168114.667    21752512.177 7 -60856122.250 7
  21287500.592    21287503.109    38336598.960 9 -48114830.901 9
 86  6 11  1 25 47.0800000  0  3G 6G 9G11
  21040310.106    21040311.814    38647332.310 9 -47451894.632 8
  20166875.974    20166876.780    21746018.816 7 -60861182.017 8
  21289721.316    21289723.772    38348270.238 9 -48105736.397 9
 86  6 11  1 25 53.0800000  0  3G 6G 9G11
  21042459.972    21042463.065    38658630.437 9 -47443090.904 8
  20165645.452    20165646.476    21739546.215 8 -60866225.605 9
  21291945.287    21291946.722    38359955.379 9 -48096631.095 9
 86  6 11  1 25 59.0800000  0  3G 6G 9G11
  21044613.888    21044617.028    38669948.808 9 -47434271.397 8
  20164416.794    20164418.201    21733094.415 8 -60871252.970 9
  21294171.189    21294174.221    38371654.322 9 -48087515.044 9
 86  6 11  1 26  5.0800000  0  3G 6G 9G11
  21046770.623    21046773.620    38681287.676 9 -47425435.925 9
  20163193.602    20163195.223    21726663.520 8 -60876264.070 9
  21296399.765    21296402.706    38383367.203 9 -48078388.129 8
 86  6 11  1 26 11.0800000  0  3G 6G 9G11
  21048933.160    21048935.176    38692646.746 9 -47416584.714 8
  20161972.940    20161975.766    21720253.500 8 -60881258.874 8
  21298631.210    21298633.436    38395093.795 9 -48069250.528 9
 86  6 11  1 26 17.0800000  0  3G 6G 9G11
  21051099.213    21051099.824    38704026.374 9 -47407717.472 9
  20160757.662    20160758.912    21713864.375 8 -60886237.420 7
  21300866.613    21300867.944    38406834.328 9 -48060102.064 9
 86  6 11  1 26 23.0800000  0  3G 6G 9G11
  21053267.918    21053270.506    38715426.250 9 -47398834.458 9
  20159545.085    20159547.582    21707496.066 8 -60891199.745 8
  21303102.260    21303104.814    38418588.446 9 -48050943.016 8
 86  6 11  1 26 29.0800000  0  3G 6G 9G11
  21055441.777    21055443.064    38726846.625 9 -47389935.469 9
  20158338.406    20158339.884    21701148.790 9 -60896145.676 8
  21305341.860    21305343.814    38430356.455 9 -48041773.141 9
 86  6 11  1 26 35.0800000  0  3G 6G 9G11
  21057618.668    21057619.743    38738287.234 9 -47381020.710 8
  20157133.858    20157136.167    21694822.393 8 -60901075.327 9
  21307584.038    21307586.048    38442138.135 9 -48032592.622 8
 86  6 11  1 26 41.0800000  0  3G 6G 9G11
  21059799.008    21059801.743    38749748.220 9 -47372090.085 8
  20155934.218    20155935.511    21688517.037 8 -60905988.589 9
  21309829.054    21309830.814    38453933.565 9 -48023401.384 8
 86  6 11  1 26 47.0800000  0  3G 6G 9G11
  21061983.511    21061986.674    38761229.544 9 -47363143.604 9
  20154737.410    20154739.549    21682232.657 8 -60910885.521 8
  21312075.529    21312077.815    38465742.688 9 -48014199.472 9
 86  6 11  1 26 53.0800000  0  3G 6G 9G11
  21064172.612    21064174.498    38772731.119 9 -47354181.346 9
  20153546.470    20153547.592    21675969.139 9 -60915766.177 9
  21314325.899    21314327.760    38477565.423 9 -48004986.948 9
 86  6 11  1 26 59.0800000  0  3G 6G 9G11
  21066365.164    21066367.184    38784253.186 9 -47345203.114 8
  20152358.935    20152360.844    21669726.759 8 -60920630.378 9
  21316578.013    21316580.366    38489401.977 9 -47995763.666 9
 86  6 11  1 27  5.0800000  0  3G 6G 9G11
  21068562.360    21068563.472    38795795.441 8 -47336209.158 9
  20151174.621    20151176.416    21663505.243 9 -60925478.305 8
  21318832.772    21318835.117    38501252.040 9 -47986529.855 9
 86  6 11  1 27 11.0800000  0  3G 6G 9G11
  21070762.088    21070764.384    38807358.184 9 -47327199.233 8
  20149995.516    20149995.623    21657304.950 7 -60930309.697 8
  21321090.362    21321092.504    38513115.881 8 -47977285.305 9
 86  6 11  1 27 17.0800000  0  3G 6G 9G11
  21072967.478    21072967.994    38818941.101 9 -47318173.582 9
  20148818.914    20148820.494    21651125.648 7 -60935124.752 7
  21323350.525    21323353.139    38524993.108 9 -47968030.334 9
 86  6 11  1 27 23.0800000  0  3G 6G 9G11
  21075175.481    21075175.768    38830544.429 8 -47309132.031 8
  20147647.348    20147648.627    21644967.446 9 -60939923.352 8
  21325613.784    21325616.462    38536884.012 9 -47958764.690 9
 86  6 11  1 27 29.0800000  0  3G 6G 9G11
  21077385.685    21077387.554    38842168.021 8 -47300074.689 8
  20146478.973    20146480.795    21638830.402 9 -60944705.466 8
  21327879.080    21327880.596    38548788.449 9 -47949488.511 8
 86  6 11  1 27 35.0800000  0  3G 6G 9G11
  21079601.684    21079604.382    38853811.897 9 -47291001.544 8
  20145315.220    20145317.458    21632714.426 7 -60949471.170 9
  21330147.469    21330148.784    38560706.421 9 -47940201.791 9
 86  6 11  1 27 41.0800000  0  3G 6G 9G11
  21081822.065    21081822.948    38865476.077 9 -47281912.583 9
  20144155.590    20144157.240    21626619.598 8 -60954220.364 9
  21332417.407    21332420.035    38572637.973 9 -47930904.474 8
 86  6 11  1 27 47.0800000  0  3G 6G 9G11
  21084044.820    21084047.401    38877160.470 9 -47272807.858 8
  20143000.652    20143001.429    21620545.860 8 -60958953.148 9
  21334690.141    21334692.827    38584582.912 9 -47921596.736 8
 86  6 11  1 27 53.0800000  0  3G 6G 9G11
  21086272.288    21086273.639    38888865.261 9 -47263687.243 9
  20141849.060    20141850.598    21614493.432 8 -60963669.337 8
  21336965.956    21336968.387    38596541.466 9 -47912278.388 9
 86  6 11  1 27 59.0800000  0  3G 6G 9G11
  21088503.483    21088504.873    38900590.176 9 -47254550.953 8
  20140701.019    20140702.828    21608462.020 8 -60968369.132 8
  21339244.778    21339246.769    38608513.277 9 -47902949.706 8
 86  6 11  1 28  5.0800000  0  3G 6G 9G11
  21090737.852    21090741.088    38912335.515 9 -47245398.750 8
  20139556.615    20139558.810    21602451.921 9 -60973052.328 9
  21341525.093    21341527.737    38620498.641 9 -47893610.469 9
 86  6 11  1 28 11.0800000  0  3G 6G 9G11
  21092976.976    21092979.831    38924101.070 7 -47236230.783 5
  20138417.100    20138418.669    21596462.957 6 -60977719.057 6
  21343807.698    21343811.560    38632497.367 6 -47884260.813 4
 86  6 11  1 28 17.0800000  0  3G 6G 9G11
  21095220.197    21095221.111    38935886.879 8 -47227047.042 8
  20137281.699    20137283.902    21590495.311 8 -60982369.165 8
  21346094.307    21346096.229    38644509.473 9 -47874900.737 9
 86  6 11  1 28 23.0800000  0  4G 6G13G 9G11
  21097466.484    21097468.424    38947692.915 9 -47217847.541 9
                  21215385.305    -4922995.433 9
  20136150.630    20136152.109    21584548.930 7 -60987002.722 7
  21348382.596    21348384.534    38656534.958 8 -47865530.237 8
 86  6 11  1 28 29.0800000  0  4G 6G13G 9G11
  21099717.937    21099718.665    38959519.223 9 -47208632.236 8
                  21213000.449    -4935533.895 9
  20135021.167    20135025.585    21578623.791 7 -60991619.717 9
  21350673.090    21350675.121    38668573.781 9 -47856149.343 9
 86  6 11  1 28 35.0800000  0  4G 6G13G 9G11
  21101971.036    21101972.385    38971365.815 9 -47199401.129 8
                  21210646.779    -4948053.295 8
  20133898.629    20133901.415    21572719.959 8 -60996220.095 7
  21352966.931    21352970.219    38680625.917 9 -47846758.065 9
 86  6 11  1 28 41.0800000  0  4G 6G13G 9G11
  21104229.177    21104231.259    38983232.610 9 -47190154.287 8
  21208269.389    21208269.889    -4960553.062 9   6452878.389 8
  20132778.977    20132781.052    21566837.434 8 -61000803.889 8
  21355262.517    21355265.481    38692691.360 9 -47837356.426 8
 86  6 11  1 28 47.0800000  0  4G 6G13G 9G11
  21106491.174    21106493.190    38995119.648 9 -47180891.659 9
  21205893.284    21205895.927    -4973033.520 9   6443153.359 8
  20131663.379    20131664.877    21560976.232 7 -61005371.039 8
  21357561.571    21357563.509    38704770.097 9 -47827944.429 9
 86  6 11  1 28 53.0800000  0  4G 6G13G 9G11
  21108757.855    21108759.403    39007026.944 9 -47171613.260 8
  21203521.520    21203524.553    -4985494.641 9   6433443.390 9
  20130551.846    20130554.375    21555136.407 7 -61009921.567 8
  21359862.117    21359864.656    38716862.120 9 -47818522.081 9
 86  6 11  1 28 59.0800000  0  4G 6G13G 9G11
  21111027.854    21111029.087    39018954.459 9 -47162319.092 8
  21201153.509    21201158.074    -4997936.402 9   6423748.514 9
  20129445.622    20129446.134    21549317.859 8 -61014455.502 9
  21362166.081    21362168.990    38728967.394 9 -47809089.400 9
 86  6 11  1 29  5.0800000  0  4G 6G13G 9G11
  21113301.195    21113302.190    39030902.167 9 -47153009.190 8
  21198790.006    21198793.947    -5010358.814 9   6414068.717 9
  20128341.639    20128344.863    21543520.683 8 -61018972.785 9
  21364471.587    21364473.924    38741085.885 9 -47799646.420 9
 86  6 11  1 29 11.0800000  0  4G 6G13G 9G11
  21115578.097    21115579.814    39042870.060 9 -47143683.566 9
  21196430.245    21196432.775    -5022761.894 9   6404403.994 9
  20127243.695    20127246.014    21537744.907 8 -61023473.391 8
  21366780.297    21366782.720    38753217.587 9 -47790193.158 8
 86  6 11  1 29 17.0800000  0  4G 6G13G 9G11
  21117859.760    21117861.899    39054858.169 9 -47134342.181 8
  21194074.324    21194077.383    -5035145.554 9   6394754.394 9
  20126147.613    20126149.398    21531990.602 9 -61027957.251 9
  21369091.251    21369093.795    38765362.497 9 -47780729.589 9
 86  6 11  1 29 23.0800000  0  4G 6G13G 9G11
  21120146.278    21120146.705    39066866.522 9 -47124985.023 9
  21191721.713    21191724.290    -5047509.895 9   6385119.840 9
  20125056.165    20125058.957    21526257.725 8 -61032424.445 9
  21371404.852    21371407.439    38777520.550 9 -47771255.796 9
 86  6 11  1 29 29.0800000  0  4G 6G13G 9G11
  21122434.211    21122435.240    39078895.046 9 -47115612.158 8
  21189373.092    21189374.861    -5059854.847 9   6375500.403 9
  20123970.579    20123972.414    21520546.282 8 -61036874.907 8
  21373720.840    21373723.636    38789691.743 9 -47761771.748 8
 86  6 11  1 29 35.0800000  0  4G 6G13G 9G11
  21124727.459    21124727.972    39090943.794 9 -47106223.535 9
  21187027.012    21187029.486    -5072180.409 9   6365896.080 9
  20122887.962    20122888.779    21514856.304 8 -61041308.659 9
  21376040.457    21376042.649    38801876.055 9 -47752277.476 9
 86  6 11  1 29 41.0800000  0  4G 6G13G 9G11
  21127023.593    21127025.964    39103012.682 9 -47096819.203 8
  21184685.058    21184687.478    -5084486.534 9   6356306.887 8
  20121809.046    20121810.598    21509187.755 8 -61045725.710 8
  21378361.200    21378363.367    38814073.509 9 -47742772.980 9
 86  6 11  1 29 47.0800000  0  4G 6G13G 9G11
  21129324.441    21129324.569    39115101.757 9 -47087399.151 8
  21182346.898    21182349.296    -5096773.255 9   6346732.822 8
  20120733.587    20120735.144    21503540.798 7 -61050125.949 8
  21380684.199    21380686.720    38826284.092 9 -47733258.242 9
 86  6 11  1 29 53.0800000  0  4G 6G13G 9G11
  21131628.338    21131630.391    39127210.985 9 -47077963.393 8
  21180012.500    21180015.113    -5109040.554 9   6337173.892 8
  20119664.138    20119665.753    21497915.338 8 -61054509.406 8
  21383010.326    21383012.528    38838507.696 9 -47723733.362 9
 86  6 11  1 29 59.0800000  0  4G 6G13G 9G11
  21133936.687    21133937.855    39139340.400 9 -47068511.911 9
  21177681.849    21177684.553    -5121288.541 9   6327630.013 9
  20118596.780    20118598.993    21492311.427 8 -61058876.094 8
  21385339.290    21385341.559    38850744.361 9 -47714198.298 9
 86  6 11  1 30  5.0800000  0  4G 6G13G 9G11
  21136247.689    21136249.285    39151489.932 9 -47059044.749 9
  21175354.597    21175357.385    -5133517.143 9   6318101.245 9
  20117535.873    20117536.969    21486729.052 8 -61063226.000 8
  21387669.861    21387671.954    38862994.073 9 -47704653.068 8
 86  6 11  1 30 11.0800000  0  4G 6G13G 9G11
  21138564.016    21138565.283    39163659.614 9 -47049561.876 9
  21173031.358    21173034.568    -5145726.383 9   6308587.551 8
  20116477.895    20116478.529    21481168.236 8 -61067559.102 8
  21390003.735    21390006.993    38875256.827 9 -47695097.681 8
 86  6 11  1 30 17.0800000  0  4G 6G13G 9G11
  21140883.679    21140885.479    39175849.462 9 -47040063.301 8
  21170711.768    21170713.315    -5157916.195 9   6299089.010 8
  20115422.625    20115424.393    21475629.001 8 -61071875.401 8
  21392340.120    21392342.417    38887532.544 9 -47685532.199 8
 86  6 11  1 30 23.0800000  0  4G 6G13G 9G11
  21143206.722    21143209.072    39188059.435 9 -47030549.048 8
  21168395.347    21168397.175    -5170086.611 9   6289605.568 9
  20114373.172    20114374.065    21470111.294 8 -61076174.912 8
  21394676.934    21394679.626    38899821.155 9 -47675956.653 9
 86  6 11  1 30 29.0800000  0  4G 6G13G 9G11
  21145534.643    21145536.693    39200289.553 9 -47021019.085 8
  21166083.153    21166086.495    -5182237.593 9   6280137.276 9
  20113326.890    20113329.561    21464615.242 7 -61080457.549 8
  21397018.772    21397021.676    38912122.739 9 -47666371.006 9
 86  6 11  1 30 35.0800000  0  4G 6G13G 9G11
  21147865.991    21147867.832    39212539.801 9 -47011473.456 9
  21163774.506    21163776.619    -5194369.188 9   6270684.078 9
  20112284.025    20112286.983    21459140.766 8 -61084723.363 8
  21399362.274    21399365.127    38924437.298 9 -47656775.252 9
 86  6 11  1 30 41.0800000  0  4G 6G13G 9G11
  21150200.879    21150202.062    39224810.115 9 -47001912.178 9
  21161470.410    21161471.980    -5206481.312 9   6261246.078 8
  20111249.129    20111248.828    21453688.011 8 -61088972.257 8
  21401707.608    21401710.706    38936764.704 9 -47647169.483 8
 86  6 11  1 30 47.0800000  0  4G 6G13G 9G11
  21152539.474    21152542.205    39237100.535 9 -46992335.230 9
  21159168.283    21159170.573    -5218573.973 9   6251823.221 9
  20110213.450    20110216.322    21448256.872 7 -61093204.321 8
  21404056.441    21404058.904    38949104.955 9 -47637553.704 8
 86  6 11  1 30 53.0800000  0  4G 6G13G 9G11
  21154881.871    21154884.085    39249411.056 9 -46982742.630 8
  21156870.512    21156874.405    -5230647.239 9   6242415.491 8
  20109185.132    20109185.922    21442847.411 8 -61097419.487 9
  21406406.995    21406409.916    38961458.025 9 -47627927.932 9
 86  6 11  1 30 59.0800000  0  4G 6G13G 9G11
  21157227.889    21157230.183    39261741.655 9 -46973134.367 8
  21154577.233    21154579.911    -5242701.066 9   6233022.899 9
  20108160.673    20108160.978    21437459.722 8 -61101617.687 9
  21408760.220    21408763.033    38973823.960 9 -47618292.152 9
 86  6 11  1 31  5.0800000  0  4G 6G13G 9G11
  21159578.067    21159580.570    39274092.333 9 -46963510.473 7
  21152287.444    21152289.753    -5254735.457 9   6223645.460 9
  20107139.488    20107140.361    21432093.652 7 -61105799.040 9
  21411115.067    21411119.104    38986202.716 9 -47608646.366 9
 86  6 11  1 31 11.0800000  0  4G 6G13G 9G11
  21161932.837    21161934.853    39286463.115 9 -46953870.907 9
  21150001.344    21150003.357    -5266750.392 9   6214283.171 8
  20106121.091    20106123.246    21426749.303 8 -61109963.473 8
  21413474.064    21413476.854    38998594.272 9 -47598990.614 9
 86  6 11  1 31 17.0800000  0  4G 6G13G 9G11
  21164290.157    21164292.665    39298853.990 9 -46944215.686 9
  21147717.465    21147721.142    -5278745.870 8   6204936.052 8
  20105109.126    20105110.847    21421426.732 8 -61114110.929 8
  21415835.518    21415837.591    39010998.579 9 -47589324.932 8
 86  6 11  1 31 23.0800000  0  4G 6G13G 9G11
  21166651.436    21166653.708    39311264.890 9 -46934544.860 9
  21145437.863    21145441.027    -5290721.893 8   6195604.088 8
  20104099.967    20104102.889    21416125.953 8 -61118241.408 9
  21418197.663    21418200.400    39023415.690 9 -47579649.271 8
 86  6 11  1 31 29.0800000  0  4G 6G13G 9G11
  21169018.055    21169020.144    39323695.857 9 -46924858.400 8
  21143163.038    21143167.420    -5302678.398 8   6186287.346 9
  20103095.327    20103097.235    21410846.851 8 -61122355.000 8
  21420563.075    21420564.941    39035845.556 9 -47569963.657 9
 86  6 11  1 31 35.0800000  0  4G 6G13G 9G11
  21171386.694    21171389.575    39336146.894 9 -46915156.302 9
  21140892.200    21140894.752    -5314615.468 8   6176985.736 8
  20102095.045    20102097.404    21405589.605 7 -61126451.544 8
  21422929.906    21422933.586    39048288.162 9 -47560268.122 9
 86  6 11  1 31 41.0800000  0  4G 6G13G 9G11
  21173759.983    21173761.902    39348618.012 8 -46905438.550 9
  21138624.562    21138627.228    -5326533.066 9   6167699.300 8
  20101097.405    20101099.831    21400354.204 8 -61130531.081 8
  21425300.141    21425303.400    39060743.441 9 -47550562.707 9
 86  6 11  1 31 47.0800000  0  4G 6G13G 9G11
  21176137.096    21176138.662    39361109.152 9 -46895705.201 8
  21136360.324    21136363.317    -5338431.135 8   6158428.083 8
  20100106.650    20100107.975    21395140.600 7 -61134593.631 9
  21427672.094    21427675.791    39073211.383 9 -47540847.437 8
 86  6 11  1 31 53.0800000  0  4G 6G13G 9G11
  21178518.193    21178520.320    39373620.338 9 -46885956.233 8
  21134099.766    21134101.730    -5350309.738 9   6149172.031 8
  20099119.617    20099121.132    21389948.878 8 -61138639.135 8
  21430047.510    21430050.431    39085691.953 9 -47531122.324 9
 86  6 11  1 31 59.0800000  0  4G 6G13G 9G11
  21180902.763    21180904.575    39386151.494 9 -46876191.701 8
  21131842.205    21131846.668    -5362168.847 9   6139931.165 9
  20098134.480    20098136.529    21384778.957 8 -61142667.649 7
  21432425.195    21432428.324    39098185.145 9 -47521387.372 9
 86  6 11  1 32  5.0800000  0  4G 6G13G 9G11
  21183291.687    21183293.855    39398702.680 9 -46866411.549 8
  21129589.965    21129592.245    -5374008.501 9   6130705.459 9
  20097154.149    20097157.826    21379630.969 7 -61146679.070 8
  21434805.832    21434808.346    39110690.979 9 -47511642.570 9
 86  6 11  1 32 11.0800000  0  4G 6G13G 9G11
  21185683.211    21185685.912    39411273.939 8 -46856615.773 8
  21127340.414    21127342.770    -5385828.693 9   6121494.927 8
  20096179.979    20096181.045    21374504.900 7 -61150673.392 8
  21437187.911    21437190.458    39123209.410 9 -47501887.946 9
 86  6 11  1 32 17.0800000  0  4G 6G13G 9G11
  21188079.876    21188080.825    39423865.185 9 -46846804.413 9
  21125094.929    21125097.623    -5397629.352 9   6112299.600 8
  20095208.717    20095210.614    21369400.693 8 -61154650.701 9
  21439571.810    21439573.868    39135740.440 9 -47492123.518 8
 86  6 11  1 32 23.0800000  0  4G 6G13G 9G11
  21190479.439    21190481.010    39436476.420 9 -46836977.492 9
  21122852.156    21122856.059    -5409410.519 9   6103119.482 8
  20094242.391    20094242.836    21364318.346 8 -61158610.982 8
  21441958.342    21441961.024    39148284.017 9 -47482349.304 8
 86  6 11  1 32 29.0800000  0  4G 6G13G 9G11
  21192882.574    21192884.063    39449107.624 9 -46827134.991 8
  21120615.411    21120618.337    -5421172.232 9   6093954.517 9
  20093279.424    20093279.977    21359257.891 8 -61162554.177 7
  21444347.483    21444350.812    39160840.182 9 -47472565.278 9
 86  6 11  1 32 35.0800000  0  4G 6G13G 9G11
  21195290.588    21195292.264    39461758.769 9 -46817276.970 8
  21118381.730    21118383.794    -5432914.396 8   6084804.786 9
  20092319.779    20092321.603    21354219.451 8 -61166480.241 8
  21446739.681    21446742.966    39173408.845 9 -47462771.511 8
 86  6 11  1 32 41.0800000  0  4G 6G13G 9G11
  21197701.606    21197702.361    39474429.938 9 -46807403.329 8
  21116149.676    21116152.180    -5444636.953 8   6075670.326 8
  20091365.275    20091366.024    21349203.063 7 -61170389.116 8
  21449134.525    21449137.352    39185989.991 9 -47452968.031 9
 86  6 11  1 32 47.0800000  0  4G 6G13G 9G11
  21200116.475    21200118.172    39487121.100 9 -46797514.117 8
  21113922.937    21113924.465    -5456339.932 8   6066551.120 8
  20090415.336    20090416.752    21344208.549 8 -61174280.945 8
  21451530.697    21451533.340    39198583.568 9 -47443154.848 8
 86  6 11  1 32 53.0800000  0  4G 6G13G 9G11
  21202535.917    21202537.016    39499832.178 9 -46787609.387 8
  21111700.231    21111701.932    -5468023.369 9   6057447.159 8
  20089469.285    20089469.769    21339236.072 8 -61178155.608 8
  21453929.830    21453932.389    39211189.586 9 -47433331.993 9
 86  6 11  1 32 59.0800000  0  4G 6G13G 9G11
  21204958.018    21204959.564    39512563.224 9 -46777689.103 8
  21109480.475    21109483.664    -5479687.238 9   6048358.429 9
  20088527.258    20088528.214    21334285.666 8 -61182013.061 8
  21456330.658    21456333.874    39223808.034 9 -47423499.430 9
 86  6 11  1 33  5.0800000  0  4G 6G13G 9G11
  21207384.381    21207385.887    39525314.259 9 -46767753.230 8
  21107264.693    21107266.938    -5491331.609 9   6039284.906 7
  20087590.132    20087589.529    21329357.308 8 -61185853.343 9
  21458734.267    21458736.501    39236438.975 8 -47413657.151 9
 86  6 11  1 33 11.0800000  0  4G 6G13G 9G11
  21209815.227    21209816.845    39538085.244 8 -46757801.824 8
  21105052.287    21105054.638    -5502956.397 9   6030226.633 8
  20086655.030    20086656.066    21324450.930 8 -61189676.493 7
  21461140.371    21461142.676    39249082.274 9 -47403805.229 8
 86  6 11  1 33 17.0800000  0  4G 6G13G 9G11
  21212248.227    21212251.051    39550876.121 9 -46747834.901 8
  21102844.086    21102845.973    -5514561.581 9   6021183.619 7
  20085725.129    20085725.928    21319566.612 8 -61193482.449 8
  21463548.460    21463551.951    39261737.944 9 -47393943.680 8
 86  6 11  1 33 23.0800000  0  4G 6G13G 9G11
  21214686.903    21214688.743    39563686.900 9 -46737852.497 8
  21100638.410    21100641.232    -5526147.284 9   6012155.822 8
  20084800.469    20084800.788    21314704.462 8 -61197271.137 8
  21465958.651    21465961.909    39274405.961 9 -47384072.496 9
 86  6 11  1 33 29.0800000  0  4G 6G13G 9G11
  21217128.377    21217129.985    39576517.671 9 -46727854.483 9
  21098438.122    21098440.749    -5537713.373 9   6003143.293 9
  20083878.657    20083881.382    21309864.360 9 -61201042.659 9
  21468372.093    21468375.071    39287086.337 9 -47374191.687 9
 86  6 11  1 33 35.0800000  0  4G 6G13G 9G11
  21219573.680    21219575.504    39589368.406 9 -46717840.939 8
  21096240.316    21096242.437    -5549259.870 9   5994146.019 9
  20082962.779    20082963.569    21305046.424 8 -61204796.892 8
  21470786.875    21470790.058    39299779.012 9 -47364301.294 8
 86  6 11  1 33 41.0800000  0  4G 6G13G 9G11
  21222023.031    21222024.494    39602238.965 9 -46707811.933 9
  21094048.111    21094049.789    -5560786.779 9   5985164.015 8
  20082049.947    20082050.595    21300250.606 8 -61208533.892 8
  21473205.615    21473208.002    39312483.971 9 -47354401.326 9
 86  6 11  1 33 47.0800000  0  4G 6G13G 9G11
  21224475.902    21224477.035    39615129.389 9 -46697767.454 7
  21091857.889    21091860.256    -5572294.126 9   5976197.263 7
  20081141.604    20081143.101    21295476.903 8 -61212253.664 8
  21475625.369    21475628.114    39325201.211 9 -47344491.787 8
 86  6 11  1 33 53.0800000  0  4G 6G13G 9G11
  21226932.838    21226933.166    39628039.719 9 -46687707.462 8
  21089671.677    21089674.124    -5583781.871 9   5967245.770 9
  20080236.653    20080238.977    21290725.439 8 -61215956.100 8
  21478047.114    21478050.368    39337930.682 9 -47334572.725 9
 86  6 11  1 33 59.0800000  0  4G 6G13G 9G11
  21229393.363    21229394.309    39640969.936 9 -46677631.979 8
  21087489.600    21087491.921    -5595250.021 8   5958309.564 8
  20079337.376    20079338.047    21285996.097 8 -61219641.310 8
  21480471.950    21480474.574    39350672.355 9 -47324644.140 8
 86  6 11  1 34  5.0800000  0  4G 6G13G 9G11
  21231857.999    21231859.372    39653920.009 9 -46667541.025 9
  21085309.799    21085313.292    -5606698.608 9   5949388.568 8
  20078441.437    20078443.476    21281288.984 8 -61223309.187 9
  21482898.503    21482902.650    39363426.243 9 -47314706.060 8
 86  6 11  1 34 11.0800000  0  4G 6G13G 9G11
  21234324.977    21234326.857    39666889.943 9 -46657434.586 9
  21083135.889    21083139.007    -5618127.589 9   5940482.884 8
  20077548.207    20077551.367    21276603.968 8 -61226959.853 9
  21485328.256    21485332.148    39376192.349 8 -47304758.454 8
 86  6 11  1 34 17.0800000  0  4G 6G13G 9G11
  21236797.717    21236798.922    39679879.756 9 -46647312.648 8
  21080964.288    21080968.315    -5629536.900 8   5931592.512 8
  20076662.770    20076663.732    21271941.197 8 -61230593.173 8
  21487759.723    21487762.702    39388970.637 9 -47294801.331 8
 86  6 11  1 34 23.0800000  0  4G 6G13G 9G11
  21239272.882    21239275.414    39692889.373 9 -46637175.294 9
  21078796.225    21078799.757    -5640926.666 9   5922717.373 9
  20075779.028    20075780.341    21267300.759 8 -61234209.100 8
  21490194.575    21490197.507    39401761.040 9 -47284834.791 9
 86  6 11  1 34 29.0800000  0  4G 6G13G 9G11
  21241751.978    21241754.738    39705918.824 9 -46627022.481 8
  21076633.776    21076636.576    -5652296.861 8   5913857.506 8
  20074901.465    20074903.182    21262682.442 8 -61237807.785 8
  21492630.453    21492631.857    39414563.542 9 -47274858.822 8
 86  6 11  1 34 35.0800000  0  4G 6G13G 9G11
  21244235.471    21244236.583    39718968.122 9 -46616854.204 9
  21074472.810    21074477.440    -5663647.445 8   5905012.892 9
  20074025.525    20074028.495    21258086.481 9 -61241389.066 9
  21495068.515    21495071.733    39427378.118 9 -47264873.442 8
 86  6 11  1 34 41.0800000  0  4G 6G13G 9G11
  21246722.487    21246723.995    39732037.286 9 -46606670.446 8
  21072316.879    21072320.918    -5674978.488 9   5896183.497 8
  20073154.883    20073156.567    21253512.747 8 -61244953.009 9
  21497509.855    21497512.169    39440204.804 9 -47254878.615 9
 86  6 11  1 34 47.0800000  0  4G 6G13G 9G11
  21249213.790    21249215.168    39745126.294 9 -46596471.234 8
  21070163.255    21070167.874    -5686289.872 8   5887369.451 8
  20072288.157    20072290.924    21248961.353 8 -61248499.553 7
  21499952.524    21499956.155    39453043.588 9 -47244874.380 8
 86  6 11  1 34 53.0800000  0  4G 6G13G 9G11
  21251706.555    21251710.732    39758235.047 9 -46586256.623 8
  21068015.727    21068018.989    -5697581.595 8   5878570.697 9
  20071428.017    20071429.269    21244432.259 9 -61252028.725 8
  21502398.133    21502401.477    39465894.439 9 -47234860.724 8
 86  6 11  1 34 59.0800000  0  4G 6G13G 9G11
  21254206.494    21254208.122    39771363.573 9 -46576026.612 8
  21065870.099    21065873.793    -5708853.667 9   5869787.279 8
  20070569.474    20070571.341    21239925.571 9 -61255540.425 8
  21504845.369    21504849.313    39478757.292 8 -47224837.725 8
 86  6 11  1 35  5.0800000  0  4G 6G13G 9G11
  21256708.219    21256710.167    39784511.959 9 -46565781.115 8
  21063730.201    21063733.392    -5720106.079 9   5861019.166 9
  20069717.321    20069719.046    21235441.162 9 -61259034.772 8
  21507295.638    21507298.205    39491632.161 9 -47214805.361 9
 86  6 11  1 35 11.0800000  0  4G 6G13G 9G11
  21259214.237    21259216.624    39797680.109 9 -46555520.224 8
  21061592.987    21061595.663    -5731338.847 8   5852266.363 9
  20068868.239    20068869.617    21230979.139 9 -61262511.664 8
  21509748.053    21509751.310    39504518.998 8 -47204763.679 8
 86  6 11  1 35 17.0800000  0  4G 6G13G 9G11
  21261722.915    21261725.141    39810868.053 8 -46545243.914 8
  21059459.589    21059462.270    -5742551.972 9   5843528.856 8
  20068023.378    20068024.104    21226539.531 8 -61265971.109 8
  21512201.965    21512206.237    39517417.805 9 -47194712.654 8
 86  6 11  1 35 23.0800000  0  4G 6G13G 9G11
  21264237.479    21264239.255    39824075.787 9 -46534952.179 8
  21057328.437    21057331.574    -5753745.549 9   5834806.597 9
  20067183.393    20067184.051    21222122.340 8 -61269413.077 7
  21514660.104    21514662.918    39530328.510 9 -47184652.373 8
 86  6 11  1 35 29.0800000  0  4G 6G13G 9G11
  21266753.855    21266755.993    39837303.292 9 -46524645.028 8
  21055201.206    21055205.454    -5764919.421 9   5826099.686 9
  20066347.276    20066348.113    21217727.532 8 -61272837.599 8
  21517118.285    21517121.328    39543251.157 9 -47174582.784 9
 86  6 11  1 35 35.0800000  0  4G 6G13G 9G11
  21269275.887    21269276.454    39850550.507 9 -46514322.534 9
  21053080.353    21053081.957    -5776073.676 9   5817408.068 8
  20065515.148    20065515.083    21213355.209 9 -61276244.610 8
  21519579.728    21519582.172    39556185.749 9 -47164503.890 8
 86  6 11  1 35 41.0800000  0  4G 6G13G 9G11
  21271799.248    21271801.099    39863817.458 9 -46503984.658 8
  21050961.562    21050963.160    -5787208.246 9   5808731.780 9
  20064686.014    20064688.105    21209005.274 7 -61279634.163 9
  21522043.505    21522046.919    39569132.249 8 -47154415.705 7
 86  6 11  1 35 47.0800000  0  4G 6G13G 9G11
  21274328.280    21274329.983    39877104.155 9 -46493631.390 8
  21048846.536    21048848.790    -5798323.114 9   5800070.856 7
  20063863.709    20063863.460    21204677.809 9 -61283006.216 9
  21524509.433    21524512.488    39582090.585 9 -47144318.300 9
 86  6 11  1 35 53.0800000  0  4G 6G13G 9G11
  21276860.279    21276862.699    39890410.602 9 -46483262.735 8
  21046735.568    21046737.605    -5809418.281 9   5791425.277 9
  20063044.757    20063045.769    21200372.814 8 -61286360.755 8
  21526978.271    21526980.022    39595060.785 8 -47134211.657 9
 86  6 11  1 35 59.0800000  0  4G 6G13G 9G11
  21279395.847    21279398.146    39903736.807 9 -46472878.692 8
  21044628.423    21044628.942    -5820493.857 9   5782794.961 8
  20062229.914    20062230.935    21196090.219 8 -61289697.852 8
  21529448.020    21529450.644    39608042.776 9 -47124095.816 9
 86  6 11  1 36  5.0800000  0  4G 6G13G 9G11
  21281936.152    21281937.615    39917082.733 9 -46462479.273 7
  21042524.028    21042525.828    -5831549.759 9   5774179.970 8
  20061418.411    20061419.157    21191830.141 8 -61293017.388 8
  21531921.009    21531923.455    39621036.550 9 -47113970.803 9
 86  6 11  1 36 11.0800000  0  4G 6G13G 9G11
  21284479.159    21284480.294    39930448.284 9 -46452064.554 8
  21040423.780    21040425.884    -5842586.063 9   5765580.262 8
  20060612.194    20060613.458    21187592.628 8 -61296319.346 8
  21534395.654    21534398.037    39634042.089 9 -47103836.619 9
 86  6 11  1 36 17.0800000  0  4G 6G13G 9G11
  21287026.517    21287027.539    39943833.553 9 -46441634.491 9
  21038327.453    21038328.872    -5853602.678 9   5756995.891 9
  20059809.371    20059810.129    21183377.569 8 -61299603.809 9
  21536872.921    21536874.696    39647059.400 9 -47093693.261 9
 86  6 11  1 36 23.0800000  0  4G 6G13G 9G11
  21289577.274    21289578.504    39957238.478 9 -46431189.101 8
  21036234.442    21036236.753    -5864599.563 9   5748426.889 8
  20059012.649    20059012.980    21179185.033 8 -61302870.710 9
  21539351.903    21539355.272    39660088.471 9 -47083540.729 9
 86  6 11  1 36 29.0800000  0  4G 6G13G 9G11
  21292131.819    21292133.513    39970663.077 9 -46420728.381 8
  21034146.384    21034147.967    -5875576.783 9   5739873.216 9
  20058218.665    20058218.849    21175015.111 9 -61306120.022 9
  21541833.935    21541837.291    39673129.204 9 -47073379.134 9
 86  6 11  1 36 35.0800000  0  4G 6G13G 9G11
  21294690.659    21294692.149    39984107.378 9 -46410252.303 9
  21032061.312    21032062.495    -5886534.274 9   5731334.912 9
  20057430.127    20057430.738    21170867.774 8 -61309351.688 8
  21544317.095    21544320.199    39686181.628 9 -47063208.423 8
 86  6 11  1 36 41.0800000  0  4G 6G13G 9G11
  21297253.378    21297254.134    39997571.398 8 -46399760.867 8
  21029979.776    21029981.875    -5897472.072 9   5722811.963 8
  20056644.434    20056645.587    21166743.081 8 -61312565.749 9
  21546803.951    21546805.533    39699245.740 8 -47053028.591 9
 86  6 11  1 36 47.0800000  0  4G 6G13G 9G11
  21299818.753    21299819.374    40011055.049 8 -46389254.127 9
  21027901.771    21027903.439    -5908390.107 9   5714304.414 8
  20055864.048    20055865.506    21162640.901 9 -61315762.252 7
  21549291.395    21549294.009    39712321.477 9 -47042839.707 9
 86  6 11  1 36 53.0800000  0  4G 6G13G 9G11
  21302387.912    21302388.947    40024558.297 9 -46378732.124 8
  21025827.159    21025829.290    -5919288.484 9   5705812.165 8
  20055087.994    20055089.387    21158561.329 8 -61318941.141 9
  21551781.386    21551785.266    39725408.864 9 -47032641.744 8
 86  6 11  1 36 59.0800000  0  4G 6G13G 9G11
  21304961.519    21304962.878    40038081.159 9 -46368194.828 8
  21023756.966    21023759.500    -5930167.164 9   5697335.275 9
  20054314.666    20054316.575    21154504.403 8 -61322102.384 8
  21554274.710    21554276.339    39738507.850 9 -47022434.755 8
 86  6 11  1 37  5.0800000  0  4G 6G13G 9G11
  21307537.699    21307541.001    40051623.705 9 -46357642.210 8
  21021691.037    21021693.733    -5941026.177 9   5688873.709 8
  20053547.731    20053550.250    21150470.199 7 -61325245.926 8
  21556769.084    21556771.891    39751618.425 9 -47012218.712 8
 86  6 11  1 37 11.0800000  0  4G 6G13G 9G11
  21310119.101    21310120.739    40065185.887 9 -46347074.285 8
  21019627.761    21019631.031    -5951865.523 9   5680427.471 9
  20052785.227    20052785.847    21146458.626 9 -61328371.824 8
  21559266.280    21559270.675    39764740.611 9 -47001993.638 9
 86  6 11  1 37 17.0800000  0  4G 6G13G 9G11
  21312703.435    21312705.437    40078767.689 9 -46336491.059 8
  21017569.329    21017571.569    -5962685.164 9   5671996.584 8
  20052024.588    20052026.503    21142469.679 8 -61331480.105 8
  21561764.967    21561769.113    39777874.381 9 -46991759.543 9
 86  6 11  1 37 23.0800000  0  4G 6G13G 9G11
  21315291.600    21315293.502    40092369.034 9 -46325892.609 8
  21015513.712    21015515.332    -5973485.016 9   5663581.118 9
  20051269.758    20051271.128    21138503.484 8 -61334570.638 8
  21564266.881    21564270.476    39791019.691 9 -46981516.439 9
 86  6 11  1 37 29.0800000  0  4G 6G13G 9G11
  21317883.349    21317885.285    40105989.978 9 -46315278.902 8
  21013461.956    21013464.411    -5984265.142 9   5655181.019 9
  20050519.567    20050521.435    21134559.986 8 -61337643.497 8
  21566770.449    21566774.290    39804176.511 9 -46971264.371 8
 86  6 11  1 37 35.0800000  0  4G 6G13G 9G11
  21320478.935    21320480.298    40119630.494 9 -46304649.931 7
  21011414.443    21011416.969    -5995025.619 9   5646796.228 8
  20049773.657    20049774.792    21130639.199 8 -61340698.660 8
  21569276.399    21569278.985    39817344.900 9 -46961003.303 9
 86  6 11  1 37 41.0800000  0  4G 6G13G 9G11
  21323079.472    21323081.438    40133290.595 9 -46294005.704 8
  21009370.695    21009373.585    -6005766.366 8   5638426.832 8
  20049031.913    20049033.392    21126741.182 8 -61343736.073 8
  21571785.575    21571788.407    39830524.773 8 -46950733.268 9
 86  6 11  1 37 47.0800000  0  4G 6G13G 9G11
  21325682.012    21325684.616    40146970.292 9 -46283346.211 8
  21007329.911    21007333.686    -6016487.334 9   5630072.819 9
  20048294.380    20048296.018    21122865.861 8 -61346755.805 8
  21574295.359    21574297.963    39843716.025 9 -46940454.374 9
 86  6 11  1 37 53.0800000  0  4G 6G13G 9G11
  21328289.691    21328290.865    40160669.554 9 -46272671.466 8
  21005294.058    21005297.548    -6027188.594 9   5621734.184 8
  20047560.723    20047562.030    21119013.393 8 -61349757.722 8
  21576806.831    21576811.522    39856918.637 8 -46930166.628 8
 86  6 11  1 37 59.0800000  0  4G 6G13G 9G11
  21330899.383    21330900.499    40174388.323 9 -46261981.521 8
  21003261.237    21003264.161    -6037870.057 9   5613410.974 9
  20046832.333    20046834.148    21115183.657 8 -61352741.943 8
  21579322.763    21579325.879    39870132.664 9 -46919869.983 8
 86  6 11  1 38  5.0800000  0  4G 6G13G 9G11
  21333513.743    21333515.423    40188126.681 9 -46251276.306 9
  21001231.486    21001235.277    -6048531.790 8   5605103.128 8
  20046108.050    20046110.229    21111376.671 8 -61355708.428 8
  21581839.190    21581842.517    39883358.135 8 -46909564.426 9
 86  6 11  1 38 11.0800000  0  4G 6G13G 9G11
  21336132.297    21336133.273    40201884.546 9 -46240555.906 9
  20999207.758    20999210.815    -6059173.762 9   5596810.684 9
  20045387.474    20045389.756    21107592.550 8 -61358657.085 8
  21584357.464    21584360.904    39896594.951 9 -46899250.020 9
 86  6 11  1 38 17.0800000  0  4G 6G13G 9G11
  21338753.798    21338756.137    40215661.919 9 -46229820.289 8
  20997186.036    20997188.313    -6069796.077 9   5588533.562 8
  20044672.880    20044673.873    21103831.197 8 -61361588.019 8
  21586878.470    21586881.934    39909843.120 9 -46888926.773 9
 86  6 11  1 38 23.0800000  0  4G 6G13G 9G11
  21341378.585    21341381.038    40229458.820 9 -46219069.457 9
  20995169.070    20995171.254    -6080398.593 9   5580271.864 8
  20043960.852    20043963.191    21100092.672 8 -61364501.152 8
  21589403.114    21589405.099    39923102.607 9 -46878594.700 9
 86  6 11  1 38 29.0800000  0  4G 6G13G 9G11
  21344008.500    21344010.128    40243275.174 9 -46208303.475 8
  20993154.790    20993157.165    -6090981.384 9   5572025.543 8
  20043253.910    20043256.214    21096377.014 7 -61367396.467 8
  21591926.842    21591929.179    39936373.413 9 -46868253.824 9
 86  6 11  1 38 35.0800000  0  4G 6G13G 9G11
  21346641.082    21346642.678    40257111.094 9 -46197522.244 8
  20991144.409    20991147.932    -6101544.487 9   5563794.551 8
  20042550.224    20042553.564    21092684.288 8 -61370273.906 8
  21594455.257    21594457.047    39949655.460 8 -46857904.175 9
 86  6 11  1 38 41.0800000  0  4G 6G13G 9G11
  21349277.740    21349278.889    40270966.493 9 -46186725.838 8
  20989138.314    20989141.901    -6112087.932 9   5555578.889 8
  20041852.567    20041854.800    21089014.393 8 -61373133.578 8
  21596984.296    21596987.261    39962948.801 9 -46847545.729 9
 86  6 11  1 38 47.0800000  0  4G 6G13G 9G11
  21351918.072    21351920.850    40284841.325 9 -46175914.290 9
  20987135.424    20987139.066    -6122611.699 9   5547378.557 9
  20041158.604    20041160.832    21085367.420 8 -61375975.371 8
  21599516.757    21599518.952    39976253.383 9 -46837178.531 8
 86  6 11  1 38 53.0800000  0  4G 6G13G 9G11
  21354562.354    21354564.532    40298735.627 9 -46165087.567 8
  20985137.769    20985138.373    -6133115.711 9   5539193.608 8
  20040468.586    20040470.884    21081743.262 8 -61378799.384 8
  21602050.432    21602052.757    39989569.270 9 -46826802.510 9
 86  6 11  1 38 59.0800000  0  4G 6G13G 9G11
  21357210.062    21357211.235    40312649.384 9 -46154245.670 9
  20983140.980    20983144.530    -6143599.919 9   5531024.104 8
  20039782.769    20039785.050    21078142.085 8 -61381605.504 8
  21604586.369    21604589.190    40002896.359 9 -46816417.770 9
 86  6 11  1 39  5.0800000  0  4G 6G13G 9G11
  21359861.152    21359863.013    40326582.573 9 -46143388.656 9
  20981150.967    20981153.174    -6154064.389 9   5522869.978 8
  20039103.252    20039104.127    21074563.867 8 -61384393.722 8
  21607124.815    21607128.497    40016234.578 9 -46806024.352 9
 86  6 11  1 39 11.0800000  0  4G 6G13G 9G11
  21362516.374    21362518.021    40340535.206 9 -46132516.468 8
  20979163.225    20979165.774    -6164509.042 9   5514731.287 8
  20038425.564    20038427.656    21071008.660 8 -61387164.012 8
  21609665.662    21609668.491    40029583.927 9 -46795622.274 9
 86  6 11  1 39 17.0800000  0  4G 6G13G 9G11
  21365175.560    21365176.151    40354507.281 9 -46121629.149 9
  20977178.936    20977181.750    -6174933.913 9   5506608.025 8
  20037754.584    20037754.942    21067476.252 8 -61389916.536 8
  21612207.261    21612210.705    40042944.467 9 -46785211.459 8
 86  6 11  1 39 23.0800000  0  4G 6G13G 9G11
  21367837.856    21367840.273    40368498.807 9 -46110726.671 8
  20975199.717    20975202.035    -6185338.948 9   5498500.202 8
  20037087.381    20037088.613    21063966.921 7 -61392651.079 7
  21614751.570    21614754.474    40056316.150 9 -46774791.958 8
 86  6 11  1 39 29.0800000  0  4G 6G13G 9G11
  21370504.613    21370505.808    40382509.724 9 -46099809.084 8
  20973223.190    20973226.060    -6195724.221 9   5490407.787 8
  20036423.614    20036424.719    21060480.552 7 -61395367.732 8
  21617299.089    21617300.667    40069698.922 9 -46764363.824 9
 86  6 11  1 39 35.0800000  0  4G 6G13G 9G11
  21373174.201    21373175.712    40396540.174 9 -46088876.266 9
  20971249.884    20971251.992    -6206089.764 9   5482330.739 9
  20035764.352    20035765.390    21057017.192 8 -61398066.458 8
  21619846.799    21619849.771    40083092.781 9 -46753927.058 9
 86  6 11  1 39 41.0800000  0  4G 6G13G 9G11
  21375847.329    21375848.132    40410589.943 9 -46077928.402 9
  20969281.799    20969284.345    -6216435.490 8   5474269.148 8
  20035109.631    20035111.341    21053576.806 8 -61400747.279 7
  21622398.778    21622400.679    40096497.652 9 -46743481.705 9
 86  6 11  1 39 47.0800000  0  4G 6G13G 9G11
  21378524.996    21378527.644    40424658.983 9 -46066965.520 8
  20967316.459    20967319.737    -6226761.418 9   5466222.969 8
  20034459.441    20034460.541    21050159.517 8 -61403410.099 8
  21624951.108    21624954.690    40109913.635 9 -46733027.697 9
 86  6 11  1 39 53.0800000  0  4G 6G13G 9G11
  21381205.003    21381206.686    40438747.368 9 -46055987.563 8
  20965355.382    20965358.297    -6237067.544 9   5458192.229 8
  20033813.995    20033814.881    21046765.295 9 -61406054.949 7
  21627506.179    21627509.230    40123340.604 9 -46722565.127 9
 86  6 11  1 39 59.0800000  0  4G 6G13G 9G11
  21383890.269    21383891.425    40452855.176 9 -46044994.462 8
  20963397.603    20963400.322    -6247353.908 9   5450176.883 8
  20033171.249    20033173.463    21043394.073 9 -61408681.882 8
  21630063.354    21630066.168    40136778.576 9 -46712093.987 9
 86  6 11  1 40  5.0800000  0  4G 6G13G 9G11
  21386578.818    21386579.253    40466982.363 9 -46033986.274 9
  20961444.513    20961446.383    -6257620.492 8   5442176.949 8
  20032533.658    20032535.273    21040045.929 8 -61411290.820 8
  21632622.851    21632625.829    40150227.518 9 -46701614.297 9
 86  6 11  1 40 11.0800000  0  4G 6G13G 9G11
  21389270.286    21389271.482    40481128.827 9 -46022963.064 8
  20959494.763    20959497.197    -6267867.255 9   5434192.462 9
  20031901.325    20031904.030    21036720.905 9 -61413881.752 7
  21635184.560    21635186.819    40163687.420 9 -46691126.066 9
 86  6 11  1 40 17.0800000  0  4G 6G13G 9G11
  21391966.655    21391967.495    40495294.645 9 -46011924.778 8
  20957548.576    20957551.656    -6278094.247 9   5426223.381 8
  20031273.060    20031275.754    21033418.944 8 -61416454.710 8
  21637747.026    21637750.638    40177158.265 9 -46680629.301 9
 86  6 11  1 40 23.0800000  0  4G 6G13G 9G11
  21394666.056    21394667.218    40509479.784 9 -46000871.428 8
  20955606.297    20955608.131    -6288301.448 9   5418269.717 9
  20030649.302    20030651.456    21030140.102 8 -61419009.651 8
  21640313.584    21640315.475    40190640.007 9 -46670124.057 9
 86  6 11  1 40 29.0800000  0  4G 6G13G 9G11
  21397369.034    21397370.292    40523684.254 9 -45989803.015 8
  20953667.230    20953669.633    -6298488.826 9   5410331.512 8
  20030029.868    20030030.151    21026884.432 8 -61421546.552 8
  21642881.871    21642883.263    40204132.660 9 -46659610.301 9
 86  6 11  1 40 35.0800000  0  4G 6G13G 9G11
  21400075.888    21400076.720    40537908.024 9 -45978719.570 9
  20951732.794    20951735.246    -6308656.431 9   5402408.701 8
  20029414.261    20029415.748    21023651.813 8 -61424065.466 8
  21645449.905    21645452.904    40217636.184 9 -46649088.076 9
 86  6 11  1 40 41.0800000  0  4G 6G13G 9G11
  21402785.812    21402787.561    40552151.095 9 -45967621.068 9
  20949801.683    20949804.484    -6318804.228 9   5394501.329 9
  20028804.060    20028806.239    21020442.430 8 -61426566.287 9
  21648022.093    21648025.008    40231150.559 9 -46638557.395 9
 86  6 11  1 40 47.0800000  0  4G 6G13G 9G11
  21405500.394    21405501.145    40566413.448 9 -45956507.563 8
  20947874.632    20947876.467    -6328932.222 9   5386609.389 8
  20028197.004    20028198.842    21017256.200 8 -61429049.058 8
  21650596.284    21650598.381    40244675.743 9 -46628018.299 9
 86  6 11  1 40 53.0800000  0  4G 6G13G 9G11
  21408217.423    21408219.091    40580695.043 9 -45945379.045 8
  20945951.075    20945952.936    -6339040.405 9   5378732.894 9
  20027595.499    20027597.387    21014093.109 7 -61431513.807 7
  21653171.529    21653174.654    40258211.732 9 -46617470.773 9
 86  6 11  1 40 59.0800000  0  4G 6G13G 9G11
  21410938.641    21410940.555    40594995.954 9 -45934235.490 9
  20944031.870    20944033.174    -6349128.802 9   5370871.809 9
  20026997.735    20027000.092    21010953.236 8 -61433960.450 8
  21655749.061    21655752.268    40271758.566 9 -46606914.792 9
 86  6 11  1 41  5.0800000  0  4G 6G13G 9G11
  21413663.822    21413665.559    40609316.145 9 -45923076.911 9
  20942115.124    20942117.958    -6359197.427 9   5363026.135 8
  20026406.368    20026407.817    21007836.583 8 -61436389.025 7
  21658329.335    21658332.162    40285316.247 9 -46596350.374 8
 86  6 11  1 41 11.0800000  0  4G 6G13G 9G11
  21416392.939    21416394.096    40623655.521 5 -45911903.372 5
  20940202.667    20940203.855    -6369246.254 9   5355195.877 8
  20025816.255    20025818.529    21004743.130 8 -61438799.503 8
  21660911.059    21660914.334    40298884.683 9 -46585777.572 8
 86  6 11  1 41 17.0800000  0  4G 6G13G 9G11
  21419126.066    21419127.084    40638014.138 5 -45900714.849 5
  20938293.610    20938295.774    -6379275.314 9   5347381.026 8
  20025233.009    20025233.747    21001672.960 8 -61441191.856 8
  21663495.189    21663498.157    40312463.828 9 -46575196.421 8
 86  6 11  1 41 23.0800000  0  4G 6G13G 9G11
  21421860.876    21421862.075    40652391.952 5 -45889511.363 6
  20936390.545    20936391.775    -6389284.561 9   5339581.620 8
  20024653.615    20024653.961    20998626.024 8 -61443566.077 7
  21666080.655    21666083.599    40326053.719 9 -46564606.896 9
 86  6 11  1 41 29.0800000  0  4G 6G13G 9G11
  21424601.035    21424604.230    40666789.005 5 -45878292.890 6
  20934488.749    20934490.387    -6399274.074 9   5331797.592 8
  20024077.052    20024078.344    20995602.304 9 -61445922.217 8
  21668669.421    21668671.371    40339654.319 9 -46554009.020 9
 86  6 11  1 41 35.0800000  0  4G 6G13G 9G11
  21427344.160    21427346.226    40681205.265 5 -45867059.444 5
  20932591.839    20932593.733    -6409243.719 9   5324029.034 8
  20023505.385    20023506.332    20992601.887 8 -61448260.212 7
  21671260.188    21671262.120    40353265.617 9 -46543402.822 8
 86  6 11  1 41 41.0800000  0  4G 6G13G 9G11
  21430090.972    21430092.979    40695640.714 5 -45855811.046 4
  20930698.332    20930700.700    -6419193.496 9   5316275.963 9
  20022940.101    20022940.617    20989624.807 8 -61450580.017 8
  21673851.926    21673854.222    40366887.589 9 -46532788.303 9
 86  6 11  1 41 47.0800000  0  4G 6G13G 9G11
  21432841.072    21432844.944    40710095.395 5 -45844547.668 5
  20928809.114    20928811.564    -6429123.486 9   5308538.314 8
  20022377.248    20022378.892    20986671.054 8 -61452881.645 8
  21676445.004    21676448.756    40380520.188 9 -46522165.508 9
 86  6 11  1 41 53.0800000  0  4G 6G13G 9G11
  21435595.228    21435597.895    40724569.315 5 -45833269.295 5
  20926922.652    20926924.725    -6439033.669 9   5300816.091 8
  20021821.200    20021821.329    20983740.617 8 -61455165.110 8
  21679042.534    21679045.421    40394163.409 9 -46511534.420 9
 86  6 11  1 41 59.0800000  0  4G 6G13G 9G11
  21438354.082    21438356.759    40739062.284 9 -45821976.073 8
                  20924544.975    -6451619.513 1
  20021266.038    20021266.775    20980833.404 7 -61457430.463 7
  21681641.312    21681643.421    40407817.222 9 -46500895.080 8
 86  6 11  1 42  5.0800000  0  4G 6G13G 9G11
  21441116.246    21441116.025    40753574.395 6 -45810667.925 6
                  20544793.892    -9911595.139 1
  20020718.699    20020719.383    20977949.593 8 -61459677.584 7
  21684239.946    21684242.808    40421481.647 9 -46490247.490 8
 86  6 11  1 42 11.0800000  0  4G 6G13G 9G11
  21443881.569    21443882.469    40768105.628 5 -45799344.910 5
                  20546919.983    -9954292.204 1
  20020172.864    20020176.315    20975089.088 6 -61461906.544 6
  21686843.337    21686845.209    40435156.639 8 -46479591.652 8
 86  6 11  1 42 17.0800000  0  4G 6G13G 9G11
  21446648.341    21446652.108    40782655.948 6 -45788006.992 6
                  20543665.278   -10005199.331 1
  20019634.061    20019634.887    20972251.991 7 -61464117.274 7
  21689447.108    21689450.734    40448842.149 3 -46468927.621 9
 86  6 11  1 42 23.0800000  0  4G 6G13G 9G11
  21449421.356    21449424.153    40797225.473 9 -45776654.133 9
                  20354691.815   -10035230.461 1
  20019100.020    20019099.566    20969438.268 3 -61466309.786 5
  21692053.956    21692056.830    40462538.155 3 -46458255.413 9
 86  6 11  1 42 29.0800000  0  4G 6G13G 9G11
  21452197.641    21452200.335    40811814.121 9 -45765286.358 9
                  20540524.287   -10065195.026 1
  20018568.193    20018570.109    20966647.909 6 -61468484.089 6
  21694661.984    21694664.963    40476244.653 6 -46447575.027 9
 86  6 11  1 42 35.0800000  0  4G 6G13G 9G11
  21454977.719    21454979.992    40826421.910 7 -45753903.675 6
                  20538612.134   -10114732.450 1
  20018040.768    20018041.857    20963880.957 7 -61470640.157 7
  21697271.520    21697275.091    40489961.614 8 -46436886.488 9
 86  6 11  1 42 41.0800000  0  4G 6G13G 9G11
  21457761.051    21457762.700    40841048.838 6 -45742506.079 3
                  20536095.854   -10143703.678 1
  20017519.821    20017519.196    20961137.487 4 -61472777.940 4
  21699884.208    21699887.624    40503689.062 7 -46426189.777 9
 86  6 11  1 42 47.0800000  0  4G 6G13G 9G11
  21460547.844    21460550.429    40855694.765 6 -45731093.681 7
                  20534139.665   -10174535.022 1
  20017001.797    20017002.962    20958417.398 6 -61474897.484 6
  21702498.320    21702500.997    40517426.955 3 -46415484.939 9
 86  6 11  1 42 53.0800000  0  4G 6G13G 9G11
  21463339.484    21463341.330    40870359.715 9 -45719666.442 8
                  20532625.112   -10204029.407 1
  20016488.463    20016489.199    20955720.743 6 -61476998.761 6
  21705114.270    21705117.651    40531175.273 8 -46404771.954 9
 86  6 11  1 42 59.0800000  0  4G 6G13G 9G11
  21466132.646    21466135.381    40885043.802 8 -45708224.304 9
                  20531404.927   -10253489.823 1
  20015978.796    20015981.710    20953047.622 4 -61479081.726 5
  21707733.314    21707735.775    40544933.947 8 -46394050.920 9
 86  6 11  1 43  5.0800000  0  4G 6G13G 9G11
  21468931.003    21468932.936    40899746.951 6 -45696767.323 6
                  20342375.693   -10283741.356 1
  20015474.113    20015476.072    20950397.935 7 -61481146.413 6
  21710353.331    21710354.930    40558703.024 8 -46383321.765 9
 86  6 11  1 43 11.0800000  0  4G 6G13G 9G11
  21471731.796    21471733.659    40914469.116 6 -45685295.513 5
                  20339172.908   -10313686.947 1
  20014975.653    20014976.013    20947771.748 6 -61483192.801 6
  21712975.699    21712977.743    40572482.475 9 -46372584.541 9
 86  6 11  1 43 17.0800000  0  4G 6G13G 9G11
  21474537.843    21474539.660    40929210.311 8 -45673808.885 8
                  20525312.455   -10362350.831 1
  20014478.918    20014482.229    20945169.103 4 -61485220.817 1
  21715599.443    21715601.856    40586272.295 1 -46361839.227 9
 86  6 11  1 43 23.0800000  0  4G 6G13G 9G11
  21477346.654    21477349.201    40943970.523 9 -45662307.408 9
                  20524090.579   -10391777.967 1
  20013989.257    20013990.388    20942589.932 5 -61487230.564 5
  21718225.183    21718228.255    40600072.425 5 -46351085.881 8
 86  6 11  1 43 29.0800000  0  4G 6G13G 9G11
  21480159.138    21480161.265    40958749.763 6 -45650791.130 5
                  20521018.941   -10420565.172 1
  20013503.094    20013503.704    20940034.258 7 -61489222.017 7
  21720853.425    21720855.821    40613882.825 6 -46340324.529 9
 86  6 11  1 43 35.0800000  0  4G 6G13G 9G11
  21482975.203    21482977.551    40973547.984 5 -45639260.053 3
                  20520011.541   -10469425.133 1
  20013021.787    20013022.544    20937502.157 3 -61491195.071 3
  21723483.851    21723486.616    40627703.517 5 -46329555.169 9
 86  6 11  1 43 41.0800000  0  4G 6G13G 9G11
  21485795.179    21485795.222    40988365.209 8 -45627714.173 8
                  20523260.907   -10479571.925 1
  20012543.882    20012544.310    20934993.420 8 -61493149.927 7
  21726115.572    21726117.969    40641534.476 6 -46318777.797 9
 86  6 11  1 43 47.0800000  0  4G 6G13G 9G11
  21488617.506    21488619.274    41003201.398 9 -45616153.515 8
                  20530586.755   -10489701.942 1
  20012070.839    20012070.126    20932508.409 8 -61495086.306 7
  21728749.723    21728752.246    40655375.697 9 -46307992.444 9
 86  6 11  1 43 53.0800000  0  4G 6G13G 9G11
  21491444.097    21491446.745    41018056.552 9 -45604578.080 8
                  20537916.659   -10499815.183 1
  20011603.011    20011603.641    20930046.943 8 -61497004.323 7
  21731385.190    21731387.255    40669227.074 9 -46297199.153 9
 86  6 11  1 43 59.0800000  0  4G 6G13G 9G11
  21494274.904    21494275.456    41032930.668 9 -45592987.868 8
                  20544985.634   -10509911.648 1
  20011138.032    20011140.316    20927609.062 8 -61498903.986 8
  21734022.515    21734025.777    40683088.691 9 -46286397.907 9
 86  6 11  1 44  5.0800000  0  4G 6G13G 9G11
  21497109.476    21497110.645    41047823.705 9 -45581382.913 8
                  20552321.162   -10519991.339 1
  20010679.264    20010680.490    20925194.795 8 -61500785.232 8
  21736661.214    21736665.218    40696960.438 9 -46275588.747 9
 86  6 11  1 44 11.0800000  0  4G 6G13G 9G11
  21499946.445    21499949.061    41062735.670 9 -45569763.204 8
                  20559396.141   -10530054.254 1
  20010223.799    20010225.171    20922804.144 9 -61502648.084 8
  21739305.240    21739306.935    40710842.314 9 -46264771.722 9
 86  6 11  1 44 17.0800000  0  4G 6G13G 9G11
  21502787.402    21502790.149    41077666.545 8 -45558128.759 9
                  20566475.033   -10540100.393 1
  20009774.850    20009775.225    20920437.032 7 -61504492.586 8
  21741946.862    21741950.653    40724734.338 9 -46253946.757 9
 86  6 11  1 44 23.0800000  0  4G 6G13G 9G11
  21505632.890    21505635.037    41092616.360 9 -45546479.570 9
                  20573908.406   -10550129.758 1
  20009326.906    20009328.276    20918093.618 8 -61506318.617 8
  21744591.773    21744595.985    40738636.540 8 -46243113.881 9
 86  6 11  1 44 29.0800000  0  4G 6G13G 9G11
  21508480.922    21508482.973    41107585.087 9 -45534815.628 8
                  20580934.311   -10560142.347 1
  20008886.440    20008887.377    20915773.820 6 -61508126.263 6
  21747240.513    21747243.677    40752548.844 8 -46232273.139 9
 86  6 11  1 44 35.0800000  0  4G 6G13G 9G11
  21511332.500    21511335.050    41122572.680 9 -45523136.994 8
                  20588022.169   -10570138.160 1
  20008449.667    20008451.103    20913477.666 6 -61509915.459 7
  21749890.324    21749892.934    40766471.227 8 -46221424.527 9
 86  6 11  1 44 41.0800000  0  4G 6G13G 9G11
  21514188.721    21514190.323    41137579.133 9 -45511443.667 9
                  20595201.711   -10580117.199 1
  20008018.748    20008018.053    20911205.142 3 -61511686.257 5
  21752541.015    21752544.527    40780403.639 9 -46210568.107 9
 86  6 11  1 44 47.0800000  0  4G 6G13G 9G11
  21517048.001    21517050.120    41152604.449 9 -45499735.626 8
                  20602384.058   -10590079.462 1
  20007588.767    20007590.219    20908956.353 1 -61513438.553 1
  21755194.169    21755196.670    40794346.073 9 -46199703.877 9
 86  6 11  1 44 53.0800000  0  4G 6G13G 9G11
  21519911.270    21519913.977    41167648.677 9 -45488012.859 8
                  20609393.392   -10600024.949 1
  20007165.819    20007165.745    20906731.221 6 -61515172.435 6
  21757850.012    21757852.020    40808298.565 9 -46188831.807 9
 86  6 11  1 44 59.0800000  0  4G 6G13G 9G11
  21522777.160    21522779.195    41182711.750 9 -45476275.411 7
                  20616494.129   -10609953.661 1
  20006746.726    20006746.428    20904529.866 4 -61516887.778 5
  21760507.234    21760508.649    40822261.099 9 -46177951.924 8
 86  6 11  1 45  5.0800000  0  4G 6G13G 9G11
  21525647.048    21525650.504    41197793.611 9 -45464523.321 7
                  20623774.307   -10619865.599 1
  20006333.171    20006332.927    20902352.148 5 -61518584.697 3
  21763165.007    21763168.028    40836233.553 9 -46167064.292 9
 86  6 11  1 45 11.0800000  0  4G 6G13G 9G11
  21528520.399    21528523.428    41212894.330 9 -45452756.532 8
                  20630881.474   -10629760.760 1
  20005923.767    20005924.989    20900198.194 3 -61520263.106 1
  21765826.048    21765828.272    40850215.954 9 -46156168.920 9
 86  6 11  1 45 17.0800000  0  4G 6G13G 9G11
  21531398.468    21531400.767    41228013.838 9 -45440975.094 9
                  20638343.104   -10639639.146 1
  20005517.113    20005517.830    20898068.029 8 -61521922.962 7
  21768488.313    21768491.465    40864208.321 9 -46145265.783 9
 86  6 11  1 45 23.0800000  0  4G 6G13G 9G11
  21534278.488    21534282.089    41243152.157 9 -45429179.008 9
                  20645632.549   -10649500.757 1
  20005115.578    20005116.886    20895961.519 8 -61523564.414 7
  21771153.217    21771155.799    40878210.600 9 -46134354.919 9
 86  6 11  1 45 29.0800000  0  4G 6G13G 9G11
  21537162.428    21537164.743    41258309.299 9 -45417368.262 8
                  20652661.713   -10659345.592 1
  20004720.664    20004721.771    20893878.894 8 -61525187.237 7
  21773820.227    21773822.601    40892222.798 9 -46123436.329 8
 86  6 11  1 45 35.0800000  0  4G 6G13G 9G11
  21540050.428    21540053.562    41273485.183 9 -45405542.908 9
                  20659957.442   -10669173.652 1
  20004327.923    20004328.923    20891820.036 8 -61526791.535 8
  21776488.691    21776490.879    40906244.828 9 -46112510.078 9
 86  6 11  1 45 41.0800000  0  4G 6G13G 9G11
  21542942.103    21542945.213    41288679.866 9 -45393702.891 8
                  20667255.990   -10678984.937 1
  20003941.663    20003941.794    20889785.003 8 -61528377.280 8
  21779158.420    21779160.574    40920276.689 9 -46101576.159 9
 86  6 11  1 45 47.0800000  0  4G 6G13G 9G11
  21545838.017    21545840.194    41303893.278 9 -45381848.297 8
                  20674206.651   -10688779.446 1
  20003558.080    20003559.432    20887773.708 7 -61529944.518 7
  21781828.831    21781833.090    40934318.391 9 -46090634.573 8
 86  6 11  1 45 53.0800000  0  4G 6G13G 9G11
  21548736.618    21548737.202    41319125.463 9 -45369979.073 8
                  20681512.297   -10698557.180 1
  20003180.003    20003180.053    20885786.260 8 -61531493.186 8
  21784504.466    21784507.369    40948369.922 9 -46079685.343 9
 86  6 11  1 45 59.0800000  0  4G 6G13G 9G11
  21551638.776    21551640.934    41334376.416 9 -45358095.211 8
                  20688908.677   -10708318.139 1
  20002805.302    20002806.890    20883822.573 8 -61533023.323 7
  21787179.644    21787182.893    40962431.260 9 -46068728.455 9
 86  6 11  1 46  5.0800000  0  4G 6G13G 9G11
  21554543.873    21554546.190    41349646.092 9 -45346196.763 8
                  20696337.167   -10718062.322 1
  20002437.301    20002438.400    20881882.849 8 -61534534.807 7
  21789858.251    21789860.770    40976502.419 9 -46057763.921 9
 86  6 11  1 46 11.0800000  0  4G 6G13G 9G11
  21557452.968    21557455.037    41364934.462 9 -45334283.764 8
                  20703564.454   -10727789.730 1
  20002072.455    20002073.578    20879966.956 8 -61536027.700 7
  21792537.246    21792540.840    40990583.343 9 -46046791.771 9
 86  6 11  1 46 17.0800000  0  4G 6G13G 9G11
  21560365.919    21560368.445    41380241.511 9 -45322356.187 8
                  20710794.919   -10737500.363 1
  20001712.437    20001713.800    20878074.823 7 -61537502.104 8
  21795218.033    21795221.300    41004673.960 9 -46035812.079 9
 86  6 11  1 46 23.0800000  0  4G 6G13G 9G11
  21563282.468    21563283.706    41395567.242 8 -45310414.063 8
                  20718116.104   -10747194.220 1
  20001356.490    20001357.519    20876206.540 8 -61538957.889 8
  21797901.470    21797904.383    41018774.278 9 -46024824.823 9
 86  6 11  1 46 29.0800000  0  4G 6G13G 9G11
  21566202.639    21566203.314    41410911.633 9 -45298457.410 8
                  20725440.108   -10756871.302 1
  20001006.145    20001006.599    20874362.210 8 -61540395.027 7
  21800586.665    21800589.439    41032884.307 9 -46013830.013 9
 86  6 11  1 46 35.0800000  0  4G 6G13G 9G11
  21569126.048    21569128.167    41426274.681 9 -45286486.209 8
                  20732592.357   -10766531.609 1
  20000660.990    20000660.646    20872541.743 8 -61541813.580 7
  21803273.410    21803276.058    41047004.001 9 -46002827.644 9
 86  6 11  1 46 41.0800000  0  4G 6G13G 9G11
  21572053.091    21572054.419    41441656.386 8 -45274500.469 8
                  20740011.374   -10776175.140 1
  20000317.177    20000318.565    20870745.179 8 -61543213.509 8
  21805961.838    21805965.174    41061133.345 9 -45991817.778 9
 86  6 11  1 46 47.0800000  0  4G 6G13G 9G11
  21574983.307    21574985.248    41457056.719 9 -45262500.218 8
                  20747345.295   -10785801.896 1
  19999979.309    19999980.041    20868972.493 7 -61544594.817 6
  21808652.814    21808655.995    41075272.331 8 -45980800.402 9
 86  6 11  1 46 53.0800000  0  4G 6G13G 9G11
  21577918.412    21577920.317    41472475.647 9 -45250485.477 8
                  20754594.104   -10795411.876 1
  19999647.210    19999647.836    20867223.794 8 -61545957.424 7
  21811344.378    21811348.338    41089420.909 9 -45969775.536 9
 86  6 11  1 46 59.0800000  0  4G 6G13G 9G11
  21580854.998    21580857.430    41487913.201 9 -45238456.220 8
                  20761612.706   -10805005.081 1
  19999319.472    19999317.792    20865499.021 7 -61547301.419 7
  21814038.559    21814042.550    41103579.115 9 -45958743.178 9
 86  6 11  1 47  5.0800000  0  4G 6G13G 9G11
  21583796.989    21583797.370    41503369.352 9 -45226412.470 8
                  20768780.711   -10814581.511 1
  19998994.844    19998997.300    20863798.177 8 -61548626.746 7
  21816734.909    21816738.516    41117746.882 9 -45947703.356 9
 86  6 11  1 47 11.0800000  0  4G 6G13G 9G11
  21586741.277    21586742.803    41518844.134 9 -45214354.202 8
                  20776039.437   -10824141.166 1
  19998675.827    19998677.111    20862121.330 8 -61549933.385 7
  21819432.792    21819436.529    41131924.265 9 -45936656.051 9
 86  6 11  1 47 17.0800000  0  4G 6G13G 9G11
  21589689.931    21589692.171    41534337.539 9 -45202281.419 8
                  18635118.158   -11784269.556 1
  19998362.838    19998362.019    20860468.399 8 -61551221.376 8
  21822132.593    21822137.431    41146111.202 9 -45925601.308 8
 86  6 11  1 47 23.0800000  0  4G 6G13G 9G11
  21592641.999    21592643.427    41549849.489 9 -45190194.185 8
                  18730441.802   -11793097.837 9
  19998051.768    19998052.436    20858839.539 8 -61552490.626 7
  21824834.896    21824837.382    41160307.626 9 -45914539.158 9
 86  6 11  1 47 29.0800000  0  4G 6G13G 9G11
  21595596.034    21595597.847    41565380.013 8 -45178092.490 7
                  18728763.474   -11801896.391 9
  19997745.338    19997748.757    20857234.632 6 -61553741.204 7
  21827537.395    21827540.701    41174513.522 9 -45903469.633 9
 86  6 11  1 47 35.0800000  0  4G 6G13G 9G11
  21598555.653    21598556.556    41580929.051 9 -45165976.358 8
                  20825643.255   -11810675.002 9
  19997446.032    19997446.705    20855653.748 8 -61554973.052 8
  21830243.235    21830246.063    41188728.885 9 -45892392.732 9
 86  6 11  1 47 41.0800000  0  4G 6G13G 9G11
  21601518.666    21601520.021    41596496.669 9 -45153845.761 8
                  20823975.842   -11819433.708 9
  19997148.838    19997150.885    20854096.880 7 -61556186.210 7
  21832949.979    21832952.438    41202953.710 9 -45881308.460 8
 86  6 11  1 47 47.0800000  0  4G 6G13G 9G11
  21604484.618    21604486.165    41612082.807 9 -45141700.706 8
                  20822307.277   -11828172.587 9
  19996857.600    19996858.156    20852564.107 8 -61557380.581 8
  21835657.655    21835662.413    41217187.963 9 -45870216.834 9
 86  6 11  1 47 53.0800000  0  4G 6G13G 9G11
  21607453.599    21607455.447    41627687.451 9 -45129541.245 8
                  20820683.065   -11836891.892 9
  19996570.126    19996572.190    20851055.311 7 -61558556.256 7
  21838369.270    21838372.786    41231431.630 9 -45859117.868 9
 86  6 11  1 47 59.0800000  0  4G 6G13G 9G11
  21610427.932    21610428.762    41643310.546 9 -45117367.417 7
  20819027.964    20819031.895   -11845591.052 9  15254463.666 1
  19996287.892    19996289.250    20849570.568 7 -61559713.211 8
  21841081.635    21841083.779    41245684.717 9 -45848011.585 9
 86  6 11  1 48  5.0800000  0  4G 6G13G 9G11
  21613403.615    21613404.105    41658952.203 9 -45105179.118 9
  20817376.586    20817379.781   -11854270.367 8  15247700.578 7
  19996008.662    19996011.599    20848109.931 7 -61560851.363 7
  21843795.230    21843798.198    41259947.233 9 -45836897.936 9
 86  6 11  1 48 11.0800000  0  4G 6G13G 9G11
  21616383.671    21616385.397    41674612.320 9 -45092976.431 8
  20815728.308    20815730.011   -11862929.798 8  15240952.456 8
  19995735.809    19995736.915    20846673.320 8 -61561970.798 8
  21846511.281    21846514.364    41274219.141 9 -45825776.966 9
 86  6 11  1 48 17.0800000  0  4G 6G13G 9G11
  21619367.571    21619368.399    41690290.930 9 -45080759.339 8
  20814084.164    20814087.160   -11871569.334 9  15234220.369 8
  19995467.024    19995468.698    20845260.824 7 -61563071.458 8
  21849229.936    21849232.260    41288500.386 9 -45814648.722 8
 86  6 11  1 48 23.0800000  0  4G 6G13G 9G11
  21622354.513    21622355.235    41705987.949 9 -45068527.896 8
  20812443.701    20812446.547   -11880188.979 8  15227503.767 8
  19995202.628    19995204.093    20843872.400 8 -61564153.334 8
  21851948.367    21851951.205    41302790.908 9 -45803513.260 9
 86  6 11  1 48 29.0800000  0  4G 6G13G 9G11
  21625344.762    21625345.650    41721703.392 9 -45056282.108 8
  20810807.882    20810810.866   -11888788.776 9  15220802.627 7
  19994943.469    19994944.590    20842508.060 8 -61565216.456 6
  21854669.587    21854672.000    41317090.704 9 -45792370.571 9
 86  6 11  1 48 35.0800000  0  4G 6G13G 9G11
  21628338.585    21628339.836    41737437.327 9 -45044021.906 9
  20809176.119    20809177.364   -11897368.705 9  15214116.963 8
  19994689.970    19994688.449    20841167.859 7 -61566260.778 7
  21857391.854    21857395.893    41331399.803 9 -45781220.631 9
 86  6 11  1 48 41.0800000  0  4G 6G13G 9G11
  21631335.089    21631336.970    41753189.619 9 -45031747.397 9
  20807545.608    20807548.218   -11905928.821 9  15207446.752 9
  19994438.069    19994438.403    20839851.801 7 -61567286.274 8
  21860117.491    21860120.990    41345718.184 9 -45770063.451 9
 86  6 11  1 48 47.0800000  0  4G 6G13G 9G11
  21634337.039    21634338.952    41768960.335 9 -45019458.537 8
  20805921.061    20805924.026   -11914469.132 9  15200791.980 7
  19994193.089    19994192.904    20838559.834 7 -61568293.008 7
  21862843.994    21862846.916    41360045.795 9 -45758899.082 8
 86  6 11  1 48 53.0800000  0  4G 6G13G 9G11
  21637341.385    21637344.121    41784749.441 9 -45007155.340 8
  20804299.543    20804301.430   -11922989.621 9  15194152.636 8
  19993951.156    19993953.499    20837291.965 7 -61569280.941 7
  21865571.119    21865574.921    41374382.631 9 -45747727.535 8
 86  6 11  1 48 59.0800000  0  4G 6G13G 9G11
  21640349.418    21640350.479    41800556.916 8 -44994837.842 9
  20802681.234    20802684.053   -11931490.229 9  15187528.787 8
  19993714.388    19993715.176    20836048.320 8 -61570250.023 7
  21868301.966    21868304.932    41388728.657 9 -45736548.814 8
 86  6 11  1 49  5.0800000  0  4G 6G13G 9G11
  21643361.233    21643363.034    41816382.714 9 -44982506.063 8
  20801067.157    20801070.663   -11939971.006 9  15180920.399 8
  19993482.913    19993482.606    20834828.817 8 -61571200.297 7
  21871033.756    21871036.948    41403083.845 9 -45725362.955 8
 86  6 11  1 49 11.0800000  0  4G 6G13G 9G11
  21646376.740    21646378.436    41832226.889 9 -44970159.951 9
  20799457.808    20799460.773   -11948431.962 9  15174327.455 8
  19993254.663    19993254.777    20833633.457 8 -61572131.744 6
  21873766.635    21873770.121    41417448.193 9 -45714169.970 9
 86  6 11  1 49 17.0800000  0  4G 6G13G 9G11
  21649394.929    21649397.053    41848089.381 9 -44957799.557 8
  20797852.430    20797853.696   -11956873.028 9  15167750.000 8
  19993031.527    19993032.701    20832462.398 8 -61573044.259 8
  21876502.867    21876505.224    41431821.689 9 -45702969.848 8
 86  6 11  1 49 23.0800000  0  4G 6G13G 9G11
  21652416.871    21652418.377    41863970.288 9 -44945424.857 9
  20796248.058    20796252.436   -11965294.199 9  15161188.041 7
  19992813.033    19992815.950    20831315.466 8 -61573937.963 7
  21879238.590    21879242.492    41446204.340 9 -45691762.594 9
 86  6 11  1 49 29.0800000  0  4G 6G13G 9G11
  21655443.109    21655444.508    41879869.435 9 -44933035.909 8
  20794650.976    20794653.737   -11973695.489 9  15154641.591 9
  19992599.656    19992600.880    20830192.753 8 -61574812.808 8
  21881978.211    21881980.581    41460596.115 9 -45680548.231 9
 86  6 11  1 49 35.0800000  0  4G 6G13G 9G11
  21658471.368    21658472.741    41895786.876 9 -44920632.712 9
  20793055.790    20793058.520   -11982076.967 9  15148110.575 9
  19992391.543    19992393.332    20829094.324 8 -61575668.725 8
  21884717.804    21884721.518    41474996.922 9 -45669326.824 9
 86  6 11  1 49 41.0800000  0  4G 6G13G 9G11
  21661504.054    21661506.227    41911722.621 9 -44908215.262 8
  20791464.243    20791467.989   -11990438.581 9  15141595.038 8
  19992187.629    19992187.170    20828019.998 8 -61576505.876 8
  21887460.704    21887462.651    41489406.738 9 -45658098.401 9
 86  6 11  1 49 47.0800000  0  4G 6G13G 9G11
  21664539.749    21664541.098    41927676.651 9 -44895783.564 9
  20789875.775    20789880.642   -11998780.298 9  15135095.008 8
  19991986.347    19991986.825    20826969.947 8 -61577324.083 7
  21890204.566    21890207.200    41503825.609 9 -45646862.926 9
 86  6 11  1 49 53.0800000  0  4G 6G13G 9G11
  21667580.219    21667582.157    41943648.939 9 -44883337.628 8
  20788293.786    20788296.258   -12007102.222 9  15128610.380 8
  19991791.648    19991792.910    20825944.164 7 -61578123.393 7
  21892949.407    21892951.665    41518253.562 9 -45635620.367 9
 86  6 11  1 49 59.0800000  0  4G 6G13G 9G11
  21670622.787    21670624.212    41959639.481 9 -44870877.481 9
  20786713.418    20786716.488   -12015404.247 9  15122141.283 8
  19991601.764    19991602.083    20824942.666 8 -61578903.804 8
  21895696.937    21895699.025    41532690.477 9 -45624370.828 9
 86  6 11  1 50  5.0800000  0  4G 6G13G 9G11
  21673669.308    21673670.009    41975648.283 9 -44858403.090 8
  20785137.364    20785140.480   -12023686.384 9  15115687.674 7
  19991413.138    19991416.825    20823965.375 7 -61579665.312 7
  21898445.945    21898448.095    41547136.362 9 -45613114.287 9
 86  6 11  1 50 11.0800000  0  4G 6G13G 9G11
  21676718.339    21676720.500    41991675.288 9 -44845914.523 8
  20783565.421    20783566.651   -12031948.714 8  15109249.500 8
  19991233.868    19991235.423    20823012.442 7 -61580407.851 7
  21901196.527    21901198.768    41561591.216 9 -45601850.770 9
 86  6 11  1 50 17.0800000  0  4G 6G13G 9G11
  21679771.324    21679774.073    42007720.542 9 -44833411.727 9
  20781997.178    20781999.504   -12040191.165 9  15102826.802 8
  19991056.807    19991058.683    20822083.814 7 -61581131.480 7
  21903949.838    21903951.219    41576055.023 9 -45590580.288 9
 86  6 11  1 50 23.0800000  0  4G 6G13G 9G11
  21682828.728    21682830.574    42023783.965 9 -44820894.789 8
  20780431.975    20780434.969   -12048413.827 8  15096419.541 9
  19990883.815    19990886.501    20821179.459 9 -61581836.176 7
  21906703.826    21906705.870    41590527.768 9 -45579302.818 9
 86  6 11  1 50 29.0800000  0  4G 6G13G 9G11
  21685889.334    21685890.763    42039865.538 9 -44808363.696 8
  20778871.298    20778873.604   -12056616.667 9  15090027.707 9
  19990717.373    19990718.258    20820299.419 7 -61582521.904 7
  21909459.771    21909461.248    41605009.431 9 -45568018.408 9
 86  6 11  1 50 35.0800000  0  4G 6G13G 9G11
  21688952.441    21688954.451    42055965.336 9 -44795818.410 9
  20777314.288    20777316.551   -12064799.668 9  15083651.361 8
  19990554.457    19990555.258    20819443.741 6 -61583188.667 8
  21912216.872    21912219.848    41619499.969 9 -45556727.089 8
 86  6 11  1 50 41.0800000  0  4G 6G13G 9G11
  21692019.469    21692021.487    42072083.238 9 -44783259.015 9
  20775760.799    20775762.776   -12072962.827 9  15077290.455 9
  19990396.983    19990397.546    20818612.259 8 -61583836.567 7
  21914975.999    21914977.877    41633999.368 9 -45545428.854 9
 86  6 11  1 50 47.0800000  0  4G 6G13G 9G11
  21695089.887    21695092.060    42088219.318 9 -44770685.462 9
  20774210.715    20774213.631   -12081106.188 9  15070944.979 8
  19990242.481    19990245.749    20817805.202 7 -61584465.461 6
  21917736.396    21917739.119    41648507.583 9 -45534123.757 9
 86  6 11  1 50 53.0800000  0  4G 6G13G 9G11
  21698163.967    21698165.789    42104373.535 9 -44758097.757 9
  20772664.170    20772667.866   -12089229.734 9  15064614.952 8
  19990094.311    19990095.024    20817022.481 7 -61585075.373 8
  21920498.557    21920501.683    41663024.592 9 -45522811.802 9
 86  6 11  1 50 59.0800000  0  4G 6G13G 9G11
  21701241.249    21701244.597    42120545.875 9 -44745495.948 9
  20771123.368    20771126.515   -12097333.470 9  15058300.354 7
  19989949.553    19989948.498    20816264.065 8 -61585666.353 7
  21923263.425    21923265.501    41677550.426 9 -45511492.982 9
 86  6 11  1 51  5.0800000  0  4G 6G13G 9G11
  21704322.353    21704324.606    42136736.365 9 -44732879.992 8
  20769584.529    20769586.238   -12105417.335 9  15052001.246 9
  19989809.311    19989813.632    20815530.031 8 -61586238.316 7
  21926028.425    21926031.391    41692085.095 8 -45500167.273 9
 86  6 11  1 51 11.0800000  0  4G 6G13G 9G11
  21707406.299    21707409.095    42152944.916 9 -44720249.963 9
  20768050.269    20768052.264   -12113481.358 9  15045717.607 8
  19989674.215    19989676.624    20814820.391 8 -61586791.283 7
  21928796.515    21928799.315    41706628.522 9 -45488834.727 9
 86  6 11  1 51 17.0800000  0  4G 6G13G 9G11
  21710494.043    21710497.062    42169171.542 9 -44707605.844 9
  20766519.473    20766521.467   -12121525.585 9  15039449.364 8
  19989544.325    19989544.966    20814135.094 7 -61587325.272 7
  21931565.275    21931568.650    41721180.698 9 -45477495.384 9
 86  6 11  1 51 23.0800000  0  4G 6G13G 9G11
  21713584.559    21713588.234    42185416.287 9 -44694947.608 8
  20764993.114    20764994.634   -12129549.901 9  15033196.659 8
  19989418.940    19989420.036    20813474.247 8 -61587840.227 6
  21934336.096    21934340.197    41735741.640 9 -45466149.194 9
 86  6 11  1 51 29.0800000  0  4G 6G13G 9G11
  21716680.360    21716682.531    42201679.035 9 -44682275.353 9
  20763469.328    20763471.503   -12137554.344 9  15026959.441 9
  19989297.520    19989298.432    20812837.788 8 -61588336.179 7
  21937108.702    21937111.482    41750311.277 9 -45454796.239 9
 86  6 11  1 51 35.0800000  0  4G 6G13G 9G11
  21719778.215    21719781.757    42217959.858 8 -44669588.997 9
  20761950.291    20761951.966   -12145538.958 8  15020737.659 9
  19989180.090    19989182.404    20812225.724 8 -61588813.102 7
  21939882.734    21939886.131    41764889.604 9 -45443436.510 9
 86  6 11  1 51 41.0800000  0  4G 6G13G 9G11
  21722879.986    21722883.015    42234258.714 9 -44656888.596 8
  20760434.179    20760436.161   -12153503.713 9  15014531.352 8
  19989068.539    19989071.525    20811638.124 7 -61589270.973 7
  21942659.363    21942661.308    41779476.577 9 -45432070.042 9
 86  6 11  1 51 47.0800000  0  4G 6G13G 9G11
  21725985.231    21725987.717    42250575.588 9 -44644174.161 9
  20758922.476    20758924.932   -12161448.693 9  15008340.471 9
  19988961.495    19988963.314    20811074.938 8 -61589709.820 7
  21945436.137    21945439.219    41794072.160 9 -45420696.863 8
 86  6 11  1 51 53.0800000  0  4G 6G13G 9G11
  21729094.104    21729095.802    42266910.511 9 -44631445.660 9
  20757413.829    20757415.898   -12169373.802 9  15002165.062 8
  19988858.069    19988861.493    20810536.254 7 -61590129.588 8
  21948216.350    21948218.603    41808676.426 8 -45409316.927 9
 86  6 11  1 51 59.0800000  0  4G 6G13G 9G11
  21732205.703    21732208.460    42283263.378 9 -44618703.173 9
  20755910.471    20755912.310   -12177279.107 9  14996005.073 8
  19988760.402    19988764.031    20810021.974 7 -61590530.321 7
  21950997.158    21950998.976    41823289.293 9 -45397930.281 9
 86  6 11  1 52  5.0800000  0  4G 6G13G 9G11
  21735320.912    21735323.637    42299634.256 9 -44605946.661 8
  20754409.162    20754411.269   -12185164.605 9  14989860.533 8
  19988668.558    19988670.274    20809532.193 8 -61590911.972 6
  21953778.585    21953780.758    41837910.821 9 -45386536.881 8
 86  6 11  1 52 11.0800000  0  4G 6G13G 9G11
  21738439.208    21738442.935    42316023.088 9 -44593176.145 8
  20752912.305    20752913.669   -12193030.252 9  14983731.466 8
  19988579.852    19988581.813    20809066.831 8 -61591274.593 8
  21956562.862    21956565.424    41852540.910 9 -45375136.822 9
 86  6 11  1 52 17.0800000  0  4G 6G13G 9G11
  21741562.010    21741563.048    42332429.872 8 -44580391.646 9
  20751419.575    20751422.047   -12200876.047 9  14977617.861 8
  19988496.239    19988497.479    20808625.957 8 -61591618.120 7
  21959349.303    21959350.706    41867179.544 9 -45363730.090 8
 86  6 11  1 52 23.0800000  0  4G 6G13G 9G11
  21744687.366    21744688.787    42348854.612 9 -44567593.157 9
  20749928.896    20749932.276   -12208702.053 9  14971519.684 9
  19988416.689    19988418.571    20808209.680 8 -61591942.507 7
  21962135.434    21962138.056    41881826.712 9 -45352316.717 9
 86  6 11  1 52 29.0800000  0  4G 6G13G 9G11
  21747816.508    21747817.485    42365297.244 9 -44554780.717 8
  20748444.058    20748446.893   -12216508.322 9  14965436.867 9
  19988341.825    19988343.814    20807817.819 8 -61592247.858 7
  21964923.952    21964927.012    41896482.348 9 -45340896.750 9
 86  6 11  1 52 35.0800000  0  4G 6G13G 9G11
  21750948.803    21750951.168    42381757.862 9 -44541954.264 8
  20746962.663    20746964.339   -12224294.749 9  14959369.524 9
  19988273.015    19988271.852    20807450.517 8 -61592534.062 7
  21967715.291    21967717.539    41911146.491 9 -45329470.144 9
 86  6 11  1 52 41.0800000  0  4G 6G13G 9G11
  21754083.955    21754086.095    42398236.309 9 -44529113.929 8
  20745484.920    20745487.243   -12232061.417 9  14953317.585 8
  19988207.502    19988207.783    20807107.713 7 -61592801.181 7
  21970507.256    21970509.920    41925819.127 9 -45318036.922 9
 86  6 11  1 52 47.0800000  0  4G 6G13G 9G11
  21757223.649    21757226.047    42414732.661 9 -44516259.640 8
  20744010.880    20744012.261   -12239808.228 9  14947281.111 8
  19988147.113    19988148.299    20806789.438 7 -61593049.193 7
  21973300.296    21973302.397    41940500.190 9 -45306597.151 9
 86  6 11  1 52 53.0800000  0  4G 6G13G 9G11
  21760365.862    21760368.470    42431246.911 9 -44503391.402 9
  20742540.667    20742542.316   -12247535.184 9  14941260.106 8
  19988091.606    19988091.836    20806495.673 7 -61593278.104 7
  21976096.352    21976099.346    41955189.667 9 -45295150.811 9
 86  6 11  1 52 59.0800000  0  4G 6G13G 9G11
  21763512.421    21763514.804    42447779.049 9 -44490509.234 9
  20741073.807    20741075.747   -12255242.364 9  14935254.513 8
  19988039.797    19988040.248    20806226.495 8 -61593487.854 7
  21978892.843    21978895.314    41969887.552 9 -45283697.921 9
 86  6 11  1 53  5.0800000  0  4G 6G13G 9G11
  21766661.346    21766664.078    42464328.975 9 -44477613.193 9
  20739611.227    20739612.505   -12262929.778 9  14929264.321 9
  19987993.245    19987994.251    20805981.834 7 -61593678.496 7
  21981691.183    21981694.372    41984593.861 9 -45272238.459 9
 86  6 11  1 53 11.0800000  0  4G 6G13G 9G11
  21769814.573    21769817.220    42480896.808 9 -44464703.203 8
  20738150.516    20738154.106   -12270597.281 9  14923289.656 9
  19987951.214    19987952.689    20805761.698 7 -61593850.037 7
  21984491.527    21984493.770    41999308.621 9 -45260772.414 8
 86  6 11  1 53 17.0800000  0  4G 6G13G 9G11
  21772970.130    21772972.424    42497482.363 9 -44451779.410 8
  20736696.622    20736698.800   -12278245.105 9  14917330.308 8
  19987914.431    19987915.661    20805566.156 8 -61594002.407 7
  21987292.791    21987295.905    42014031.662 9 -45249299.921 9
 86  6 11  1 53 23.0800000  0  4G 6G13G 9G11
  21776129.359    21776132.787    42514085.765 9 -44438841.693 9
  20735245.131    20735247.549   -12285873.111 9  14911386.419 8
  19987881.187    19987881.252    20805395.159 8 -61594135.651 6
  21990096.209    21990099.429    42028763.041 9 -45237820.939 9
 86  6 11  1 53 29.0800000  0  4G 6G13G 9G11
  21779292.361    21779294.538    42530706.958 9 -44425890.131 8
  20733796.817    20733799.904   -12293481.351 9  14905457.915 9
  19987853.666    19987855.099    20805248.771 7 -61594249.715 7
  21992900.890    21992904.497    42043502.741 9 -45226335.456 9
 86  6 11  1 53 35.0800000  0  4G 6G13G 9G11
  21782459.664    21782460.829    42547345.970 9 -44412924.667 9
  20732353.388    20732354.600   -12301069.764 9  14899544.877 8
  19987829.941    19987831.874    20805127.018 7 -61594344.607 7
  21995708.200    21995710.486    42058250.795 9 -45214843.471 9
 86  6 11  1 53 41.0800000  0  4G 6G13G 9G11
  21785628.663    21785630.932    42564002.798 9 -44399945.331 8
  20730912.939    20730914.735   -12308638.309 9  14893647.301 9
  19987811.835    19987814.284    20805029.971 7 -61594420.219 7
  21998515.490    21998518.439    42073007.205 9 -45203344.972 9
 86  6 11  1 53 47.0800000  0  4G 6G13G 9G11
  21788801.089    21788802.698    42580677.171 9 -44386952.311 8
  20729477.248    20729477.930   -12316187.302 9  14887764.974 9
  19987799.024    19987799.199    20804957.310 7 -61594476.833 6
  22001325.610    22001327.766    42087771.617 9 -45191840.247 8
 86  6 11  1 53 53.0800000  0  4G 6G13G 9G11
  21791977.815    21791980.777    42597369.571 9 -44373945.258 9
  20728044.181    20728046.264   -12323716.268 9  14881898.250 9
  19987788.186    19987790.689    20804909.499 7 -61594514.109 7
  22004135.975    22004139.883    42102544.539 9 -45180328.888 9
 86  6 11  1 53 59.0800000  0  4G 6G13G 9G11
  21795157.878    21795159.947    42614079.659 9 -44360924.423 9
  20726616.074    20726617.802   -12331225.376 8  14876047.001 8
  19987784.325    19987785.898    20804886.358 8 -61594532.140 7
  22006949.317    22006951.965    42117325.678 8 -45168811.120 9
 86  6 11  1 54  5.0800000  0  4G 6G13G 9G11
  21798341.276    21798343.468    42630807.391 9 -44347889.830 8
  20725189.096    20725192.086   -12338714.735 9  14870211.145 8
  19987785.681    19987786.534    20804887.682 7 -61594531.115 7
  22009763.844    22009766.649    42132114.980 9 -45157286.999 9
 86  6 11  1 54 11.0800000  0  4G 6G13G 9G11
  21801527.308    21801530.270    42647552.896 9 -44334841.394 9
  20723767.737    20723770.613   -12346184.236 9  14864390.753 8
  19987789.961    19987790.059    20804913.778 8 -61594510.770 7
  22012579.166    22012581.917    42146912.526 8 -45145756.443 9
 86  6 11  1 54 17.0800000  0  4G 6G13G 9G11
  21804717.731    21804720.643    42664316.079 9 -44321779.178 8
  20722351.102    20722352.537   -12353634.118 9  14858585.654 9
  19987799.082    19987799.359    20804964.515 7 -61594471.242 7
  22015395.845    22015399.995    42161718.217 9 -45134219.547 9
 86  6 11  1 54 23.0800000  0  4G 6G13G 9G11
  21807911.469    21807913.842    42681096.670 9 -44308703.398 8
  20720936.230    20720939.190   -12361064.469 9  14852795.772 8
  19987814.164    19987815.032    20805039.713 8 -61594412.639 7
  22018215.826    22018218.860    42176531.862 9 -45122676.447 9
 86  6 11  1 54 29.0800000  0  4G 6G13G 9G11
  21811108.236    21811109.240    42697895.141 9 -44295613.686 8
  20719527.623    20719528.288   -12368474.807 9  14847021.491 9
  19987831.945    19987832.795    20805139.769 7 -61594334.679 8
  22021036.482    22021039.219    42191353.800 9 -45111126.889 9
 86  6 11  1 54 35.0800000  0  4G 6G13G 9G11
  21814307.567    21814308.528    42714711.210 9 -44282510.263 9
  20718120.449    20718122.412   -12375865.477 9  14841262.535 8
  19987857.732    19987858.476    20805264.436 8 -61594237.537 7
  22023857.392    22023861.693    42206183.766 8 -45099571.086 9
 86  6 11  1 54 41.0800000  0  4G 6G13G 9G11
  21817511.007    21817512.262    42731544.807 9 -44269393.174 8
  20716717.376    20716719.259   -12383236.421 9  14835518.947 8
  19987884.137    19987885.395    20805413.783 7 -61594121.165 7
  22026681.138    22026685.494    42221021.821 9 -45088008.966 7
 86  6 11  1 54 47.0800000  0  4G 6G13G 9G11
  21820717.701    21820719.171    42748396.061 9 -44256262.341 8
  20715318.748    20715321.083   -12390587.572 9  14829790.777 9
  19987917.336    19987920.163    20805587.835 7 -61593985.542 8
  22029506.602    22029511.031    42235867.946 9 -45076440.560 9
 86  6 11  1 54 53.0800000  0  4G 6G13G 9G11
  21823927.220    21823929.105    42765264.919 9 -44243117.776 8
  20713922.971    20713925.119   -12397918.999 9  14824077.981 8
  19987955.953    19987956.782    20805786.579 7 -61593830.667 7
  22032333.132    22032337.019    42250722.075 9 -45064865.919 9
 86  6 11  1 54 59.0800000  0  4G 6G13G 9G11
  21827141.318    21827142.344    42782151.352 9 -44229959.519 9
  20712532.511    20712533.265   -12405230.649 9  14818380.593 8
  19987997.963    19987999.353    20806010.051 8 -61593656.544 7
  22035161.258    22035164.970    42265584.200 9 -45053285.042 9
 86  6 11  1 55  5.0800000  0  4G 6G13G 9G11
  21830356.953    21830360.106    42799055.393 9 -44216787.548 8
  20711144.350    20711147.184   -12412522.530 9  14812698.604 8
  19988044.870    19988046.502    20806258.244 7 -61593463.154 7
  22037990.787    22037995.340    42280454.364 9 -45041697.916 9
 86  6 11  1 55 11.0800000  0  4G 6G13G 9G11
  21833578.018    21833580.867    42815976.993 9 -44203601.897 8
  20709759.939    20709763.449   -12419794.652 9  14807032.028 8
  19988096.048    19988098.359    20806531.172 7 -61593250.483 8
  22040823.263    22040826.228    42295332.528 8 -45030104.545 9
 86  6 11  1 55 17.0800000  0  4G 6G13G 9G11
  21836801.421    21836803.386    42832916.128 9 -44190402.573 8
  20708380.305    20708383.023   -12427047.038 9  14801380.811 8
  19988153.517    19988155.461    20806828.857 8 -61593018.520 7
  22043655.309    22043658.890    42310218.652 8 -45018504.970 9
 86  6 11  1 55 23.0800000  0  4G 6G13G 9G11
  21840028.001    21840030.078    42849872.812 9 -44177189.595 9
  20707003.478    20707007.156   -12434279.707 9  14795744.980 8
  19988215.141    19988217.169    20807151.309 8 -61592767.251 7
  22046489.611    22046493.246    42325112.773 9 -45006899.174 9
 86  6 11  1 55 29.0800000  0  4G 6G13G 9G11
  21843258.440    21843261.067    42866846.977 9 -44163962.972 8
  20705631.627    20705634.691   -12441492.540 9  14790124.586 8
  19988281.069    19988282.170    20807498.448 7 -61592496.765 7
  22049325.309    22049328.641    42340014.830 9 -44995287.187 9
 86  6 11  1 55 35.0800000  0  4G 6G13G 9G11
  21846491.847    21846494.813    42883838.688 9 -44150722.682 8
  20704262.746    20704265.200   -12448685.651 9  14784519.566 8
  19988351.967    19988355.102    20807870.409 7 -61592206.926 7
  22052163.709    22052166.197    42354924.799 8 -44983669.030 9
 86  6 11  1 55 41.0800000  0  4G 6G13G 9G11
  21849728.051    21849731.013    42900847.851 9 -44137468.798 8
  20702898.691    20702899.460   -12455858.961 9  14778929.983 9
  19988427.413    19988429.728    20808267.078 7 -61591897.825 7
  22055001.434    22055004.068    42369842.620 8 -44972044.766 9
 86  6 11  1 55 47.0800000  0  4G 6G13G 9G11
  21852968.163    21852969.997    42917874.497 9 -44124201.283 9
  20701536.247    20701538.510   -12463012.593 9  14773355.720 8
  19988507.324    19988508.398    20808688.464 7 -61591569.478 7
  22057841.243    22057845.675    42384768.261 8 -44960414.397 8
 86  6 11  1 55 53.0800000  0  4G 6G13G 9G11
  21856211.403    21856213.535    42934918.582 9 -44110920.183 8
  20700178.827    20700182.599   -12470146.468 9  14767796.864 8
  19988590.869    19988594.466    20809134.768 7 -61591221.717 6
  22060682.968    22060686.649    42399701.787 9 -44948777.884 9
 86  6 11  1 55 59.0800000  0  4G 6G13G 9G11
  21859458.097    21859460.838    42951980.131 9 -44097625.485 9
  20698825.175    20698827.674   -12477260.585 8  14762253.398 7
  19988681.784    19988683.432    20809605.826 7 -61590854.661 7
  22063526.634    22063530.518    42414643.200 8 -44937135.231 9
 86  6 11  1 56  5.0800000  0  4G 6G13G 9G11
  21862708.103    21862710.564    42969059.067 9 -44084317.217 9
  20697475.486    20697477.287   -12484355.005 8  14756725.279 8
  19988775.957    19988777.009    20810101.630 7 -61590468.312 7
  22066372.200    22066374.169    42429592.398 9 -44925486.509 9
 86  6 11  1 56 11.0800000  0  4G 6G13G 9G11
  21865961.825    21865964.679    42986155.468 9 -44070995.362 9
  20696128.688    20696130.922   -12491429.694 9  14751212.532 8
  19988874.519    19988878.406    20810622.344 6 -61590062.571 6
  22069217.142    22069220.934    42444549.384 9 -44913831.718 9
 86  6 11  1 56 17.0800000  0  4G 6G13G 9G11
  21869218.687    21869220.100    43003269.239 9 -44057659.971 8
  20694785.986    20694788.084   -12498484.589 9  14745715.226 8
  19988979.523    19988980.220    20811167.844 8 -61589637.513 7
  22072064.768    22072066.998    42459514.132 9 -44902170.891 9
 86  6 11  1 56 23.0800000  0  4G 6G13G 9G11
  21872478.738    21872480.413    43020400.391 9 -44044311.022 9
  20693448.740    20693450.343   -12505519.769 9  14740233.264 8
  19989087.442    19989088.958    20811738.134 7 -61589193.132 7
  22074914.220    22074917.446    42474486.711 8 -44890503.946 8
 86  6 11  1 56 29.0800000  0  4G 6G13G 9G11
  21875741.643    21875743.303    43037548.924 9 -44030948.539 8
  20692112.669    20692115.467   -12512535.249 9  14734766.665 9
  19989199.875    19989203.282    20812333.310 8 -61588729.364 7
  22077765.997    22077767.789    42489467.083 9 -44878830.938 9
 86  6 11  1 56 35.0800000  0  4G 6G13G 9G11
  21879007.949    21879010.811    43054714.840 9 -44017572.511 9
  20690781.748    20690783.364   -12519531.030 9  14729315.407 8
  19989317.594    19989321.230    20812953.311 8 -61588246.244 6
  22080616.308    22080620.074    42504455.135 9 -44867151.949 8
 86  6 11  1 56 41.0800000  0  4G 6G13G 9G11
  21882278.340    21882281.717    43071898.100 9 -44004182.955 8
  20689453.926    20689455.394   -12526507.099 9  14723879.509 8
  19989441.739    19989441.913    20813598.189 8 -61587743.738 7
  22083470.259    22083474.919    42519450.889 8 -44855466.946 8
 86  6 11  1 56 47.0800000  0  4G 6G13G 9G11
  21885550.909    21885552.986    43089098.696 9 -43990779.895 9
  20688129.443    20688132.875   -12533463.391 9  14718459.026 8
  19989569.453    19989571.941    20814267.894 8 -61587221.895 6
  22086326.540    22086329.823    42534454.306 9 -44843775.995 9
 86  6 11  1 56 53.0800000  0  4G 6G13G 9G11
  21888827.808    21888829.656    43106316.640 9 -43977363.324 8
  20686809.281    20686812.086   -12540400.019 9  14713053.871 8
  19989701.339    19989704.092    20814962.439 7 -61586680.696 7
  22089183.187    22089186.267    42549465.390 9 -44832079.043 9
 86  6 11  1 56 59.0800000  0  4G 6G13G 9G11
  21892107.312    21892109.072    43123551.830 9 -43963933.302 8
  20685493.096    20685497.084   -12547316.920 9  14707664.080 8
  19989836.827    19989839.631    20815681.838 8 -61586120.128 7
  22092040.555    22092043.776    42564484.106 9 -44820376.140 9
 86  6 11  1 57  5.0800000  0  4G 6G13G 9G11
  21895389.877    21895391.461    43140804.303 9 -43950489.822 8
  20684181.677    20684184.031   -12554214.129 9  14702289.630 8
  19989981.253    19989981.078    20816426.111 7 -61585540.181 7
  22094900.487    22094903.224    42579510.490 9 -44808667.286 8
 86  6 11  1 57 11.0800000  0  4G 6G13G 9G11
  21898676.788    21898678.967    43158074.096 9 -43937032.846 8
  20682872.512    20682874.006   -12561091.685 9  14696930.502 8
  19990126.406    19990127.728    20817195.316 7 -61584940.803 6
  22097760.764    22097763.812    42594544.418 9 -44796952.543 9
 86  6 11  1 57 17.0800000  0  4G 6G13G 9G11
  21901966.206    21901968.761    43175361.133 9 -43923562.432 8
  20681566.824    20681569.913   -12567949.497 9  14691586.751 8
  19990276.977    19990278.342    20817989.311 7 -61584322.095 6
  22100622.246    22100627.104    42609585.951 9 -44785231.864 9
 86  6 11  1 57 23.0800000  0  4G 6G13G 9G11
  21905258.412    21905261.817    43192665.416 9 -43910078.583 9
  20680266.287    20680268.517   -12574787.672 9  14686258.309 8
  19990433.349    19990435.588    20818808.266 8 -61583683.940 7
  22103487.698    22103490.901    42624635.124 9 -44773505.244 9
 86  6 11  1 57 29.0800000  0  4G 6G13G 9G11
  21908555.229    21908557.165    43209986.917 9 -43896581.321 8
  20678968.623    20678972.365   -12581606.204 9  14680945.172 9
  19990593.365    19990594.161    20819652.107 8 -61583026.425 7
  22106352.311    22106356.033    42639691.783 9 -44761772.781 9
 86  6 11  1 57 35.0800000  0  4G 6G13G 9G11
  21911854.782    21911857.067    43227325.605 9 -43883070.657 8
  20677674.329    20677676.973   -12588405.072 9  14675647.350 9
  19990760.375    19990762.380    20820520.928 7 -61582349.406 7
  22109218.191    22109222.155    42654755.965 9 -44750034.473 8
 86  6 11  1 57 41.0800000  0  4G 6G13G 9G11
  21915157.658    21915160.563    43244681.510 9 -43869546.576 8
  20676384.847    20676387.232   -12595184.277 9  14670364.850 9
  19990930.626    19990931.727    20821414.618 8 -61581653.029 8
  22112086.154    22112090.456    42669827.649 9 -44738290.302 9
 86  6 11  1 57 47.0800000  0  4G 6G13G 9G11
  21918464.418    21918466.712    43262054.553 9 -43856009.160 8
  20675098.334    20675101.684   -12601943.760 9  14665097.738 9
  19991104.003    19991106.984    20822333.214 7 -61580937.244 7
  22114956.034    22114959.029    42684906.838 9 -44726540.300 9
 86  6 11  1 57 53.0800000  0  4G 6G13G 9G11
  21921773.681    21921774.473    43279444.817 9 -43842458.304 8
  20673816.172    20673819.123   -12608683.605 9  14659845.918 9
  19991283.592    19991284.147    20823276.834 7 -61580201.956 7
  22117827.437    22117829.673    42699993.554 9 -44714784.411 9
 86  6 11  1 57 59.0800000  0  4G 6G13G 9G11
  21925085.204    21925087.657    43296852.219 9 -43828894.108 9
  20672537.045    20672540.873   -12615403.774 9  14654609.422 9
  19991467.631    19991469.841    20824245.346 7 -61579447.272 7
  22120699.269    22120702.383    42715087.698 9 -44703022.754 9
 86  6 11  1 58  5.0800000  0  4G 6G13G 9G11
  21928401.187    21928403.463    43314276.762 9 -43815316.553 9
  20671261.926    20671264.986   -12622104.269 9  14649388.251 8
  19991657.102    19991659.116    20825238.819 8 -61578673.144 7
  22123573.740    22123576.663    42730189.239 9 -44691255.321 9
 86  6 11  1 58 11.0800000  0  4G 6G13G 9G11
  21931720.176    21931722.306    43331718.441 8 -43801725.630 8
  20669991.045    20669993.357   -12628785.125 9  14644182.395 8
  19991851.537    19991853.072    20826257.166 8 -61577879.627 7
  22126448.090    22126451.979    42745298.178 9 -44679482.124 9
 86  6 11  1 58 17.0800000  0  4G 6G13G 9G11
  21935043.641    21935044.724    43349177.189 9 -43788121.435 8
  20668724.050    20668725.496   -12635446.243 9  14638991.926 8
  19992049.994    19992050.495    20827300.562 7 -61577066.593 6
  22129324.793    22129327.864    42760414.492 9 -44667703.183 8
 86  6 11  1 58 23.0800000  0  4G 6G13G 9G11
  21938367.756    21938371.708    43366653.042 9 -43774503.884 8
  20667459.348    20667461.889   -12642087.653 9  14633816.795 9
  19992253.443    19992254.676    20828368.806 8 -61576234.195 7
  22132202.554    22132205.655    42775538.254 9 -44655918.447 9
 86  6 11  1 58 29.0800000  0  4G 6G13G 9G11
  21941696.961    21941700.132    43384146.022 9 -43760873.004 8
  20666199.082    20666202.489   -12648709.441 9  14628656.967 9
  19992462.533    19992463.128    20829462.083 7 -61575382.286 7
  22135081.782    22135084.976    42790669.371 9 -44644127.972 9
 86  6 11  1 58 35.0800000  0  4G 6G13G 9G11
  21945029.834    21945031.635    43401656.025 9 -43747228.863 8
  20664942.385    20664945.334   -12655311.597 9  14623512.432 9
  19992675.165    19992677.219    20830580.402 8 -61574510.894 6
  22137963.115    22137965.866    42805807.831 9 -44632331.771 9
 86  6 11  1 58 41.0800000  0  4G 6G13G 9G11
  21948363.999    21948366.368    43419183.093 9 -43733571.409 9
  20663689.991    20663692.917   -12661894.105 8  14618383.208 9
  19992891.635    19992894.614    20831723.594 8 -61573620.077 8
  22140845.003    22140848.807    42820953.632 9 -44620529.859 8
 86  6 11  1 58 47.0800000  0  4G 6G13G 9G11
  21951703.089    21951705.896    43436727.197 9 -43719900.684 8
  20662441.238    20662444.284   -12668456.953 9  14613269.300 9
  19993113.497    19993115.467    20832891.849 7 -61572709.762 7
  22143728.655    22143731.297    42836106.720 9 -44608722.254 9
 86  6 11  1 58 53.0800000  0  4G 6G13G 9G11
  21955044.131    21955047.203    43454288.350 9 -43706216.671 8
  20661197.197    20661199.216   -12675000.207 9  14608170.666 9
  19993340.439    19993343.888    20834085.128 8 -61571779.926 7
  22146613.909    22146616.888    42851267.092 8 -44596908.985 9
 86  6 11  1 58 59.0800000  0  4G 6G13G 9G11
  21958389.051    21958392.249    43471866.490 9 -43692519.431 9
  20659954.492    20659957.766   -12681523.846 9  14603087.308 8
  19993572.248    19993573.047    20835303.376 8 -61570830.643 7
  22149499.352    22149502.810    42866434.784 9 -44585090.008 9
 86  6 11  1 59  5.0800000  0  4G 6G13G 9G11
  21961737.905    21961740.375    43489461.653 8 -43678808.921 9
  20658717.697    20658719.729   -12688027.906 9  14598019.213 8
  19993810.060    19993810.353    20836546.653 7 -61569861.861 7
  22152387.628    22152390.968    42881609.691 9 -44573265.403 9
 86  6 11  1 59 11.0800000  0  4G 6G13G 9G11
  21965089.212    21965091.706    43507073.789 9 -43665085.194 9
  20657483.856    20657486.051   -12694512.364 8  14592966.394 8
  19994052.208    19994052.418    20837814.917 7 -61568873.595 7
  22155276.506    22155279.605    42896791.841 9 -44561435.171 9
 86  6 11  1 59 17.0800000  0  4G 6G13G 9G11
  21968444.117    21968446.617    43524702.905 9 -43651348.225 8
  20656253.496    20656255.806   -12700977.152 9  14587928.896 9
  19994296.983    19994299.550    20839108.205 7 -61567865.856 7
  22158167.036    22158170.502    42911981.201 9 -44549599.318 8
 86  6 11  1 59 23.0800000  0  4G 6G13G 9G11
  21971802.079    21971804.902    43542348.930 9 -43637598.091 8
  20655027.715    20655029.964   -12707422.320 9  14582906.695 8
  19994547.679    19994549.469    20840426.548 7 -61566838.574 7
  22161059.388    22161061.655    42927177.789 8 -44537757.819 9
 86  6 11  1 59 29.0800000  0  4G 6G13G 9G11
  21975163.366    21975165.888    43560011.894 9 -43623834.745 8
  20653803.452    20653807.392   -12713847.844 9  14577899.800 8
  19994803.338    19994803.883    20841769.909 7 -61565791.796 6
  22163952.638    22163955.552    42942381.540 9 -44525910.731 9
 86  6 11  1 59 35.0800000  0  4G 6G13G 9G11
  21978527.825    21978529.687    43577691.758 9 -43610058.248 8
  20652584.359    20652588.150   -12720253.822 9  14572908.117 8
  19995063.343    19995065.378    20843138.356 8 -61564725.490 7
  22166846.787    22166848.902    42957592.457 9 -44514058.075 9
 86  6 11  1 59 41.0800000  0  4G 6G13G 9G11
  21981895.939    21981897.644    43595388.558 9 -43596268.537 8
  20651369.713    20651373.017   -12726640.224 9  14567931.700 8
  19995327.399    19995329.106    20844531.845 7 -61563639.632 7
  22169742.446    22169745.291    42972810.504 9 -44502199.868 9
 86  6 11  1 59 47.0800000  0  4G 6G13G 9G11
  21985266.040    21985268.760    43613102.186 9 -43582465.717 9
  20650158.383    20650160.618   -12733007.015 9  14562970.575 9
  19995597.215    19995600.313    20845950.334 7 -61562534.333 7
  22172640.567    22172642.863    42988035.629 9 -44490336.139 9
 86  6 11  1 59 53.0800000  0  4G 6G13G 9G11
  21988640.311    21988642.631    43630832.696 9 -43568649.738 8
  20648950.061    20648952.926   -12739354.193 9  14558024.730 9
  19995873.104    19995873.948    20847393.885 7 -61561409.496 8
  22175538.779    22175541.084    43003267.902 9 -44478466.839 8
 86  6 11  1 59 59.0800000  0  4G 6G13G 9G11
  21992017.276    21992019.496    43648580.063 8 -43554820.650 9
  20647746.544    20647749.567   -12745681.794 9  14553094.126 9
  19996152.945    19996155.030    20848862.436 8 -61560265.178 6
  22178438.600    22178441.436    43018507.207 9 -44466592.069 8
 86  6 11  2  0  5.0800000  0  4G 6G13G 9G11
  21995397.565    21995400.014    43666344.205 9 -43540978.460 9
  20646546.574    20646548.911   -12751989.771 8  14548178.826 8
  19996436.954    19996438.133    20850356.186 7 -61559101.222 7
  22181341.043    22181342.328    43033753.544 9 -44454711.808 8
 86  6 11  2  0 11.0800000  0  4G 6G13G 9G11
  21998780.998    21998783.371    43684125.227 9 -43527123.126 9
  20645349.473    20645351.467   -12758278.223 9  14543278.741 8
  19996726.151    19996726.805    20851874.943 7 -61557917.767 6
  22184243.004    22184244.702    43049007.006 9 -44442826.002 9
 86  6 11  2  0 17.0800000  0  4G 6G13G 9G11
  22002168.458    22002171.259    43701923.052 9 -43513254.698 8
  20644156.797    20644158.764   -12764547.082 9  14538393.914 9
  19997019.653    19997019.786    20853418.823 6 -61556714.748 7
  22187146.167    22187149.273    43064267.454 9 -44430934.736 9
 86  6 11  2  0 23.0800000  0  4G 6G13G 9G11
  22005558.543    22005560.851    43719737.706 9 -43499373.163 9
  20642967.422    20642970.510   -12770796.399 9  14533524.309 7
  19997318.401    19997319.738    20854987.816 7 -61555492.173 7
  22190051.752    22190054.225    43079534.864 8 -44419038.056 9
 86  6 11  2  0 29.0800000  0  4G 6G13G 9G11
  22008951.530    22008954.648    43737569.133 9 -43485478.552 9
  20641781.361    20641783.374   -12777026.121 8  14528669.995 8
  19997620.735    19997621.847    20856581.852 8 -61554250.048 6
  22192958.767    22192960.797    43094809.255 9 -44407135.945 8
 86  6 11  2  0 35.0800000  0  4G 6G13G 9G11
  22012347.866    22012351.208    43755417.315 9 -43471570.894 8
  20640601.141    20640603.034   -12783236.268 9  14523830.919 8
  19997930.806    19997930.760    20858200.996 7 -61552988.374 7
  22195866.647    22195869.321    43110090.584 9 -44395228.418 9
 86  6 11  2  0 41.0800000  0  4G 6G13G 9G11
  22015747.137    22015749.989    43773282.218 9 -43457650.202 9
  20639422.633    20639425.162   -12789426.817 8  14519007.114 8
  19998242.403    19998243.553    20859845.261 8 -61551707.139 7
  22198776.169    22198778.279    43125378.850 9 -44383315.493 9
 86  6 11  2  0 47.0800000  0  4G 6G13G 9G11
  22019150.571    22019152.611    43791163.847 9 -43443716.472 8
  20638247.506    20638249.729   -12795597.812 9  14514198.549 9
  19998559.267    19998560.431    20861514.642 8 -61550406.319 7
  22201686.378    22201689.098    43140674.085 9 -44371397.125 9
 86  6 11  2  0 53.0800000  0  4G 6G13G 9G11
  22022555.692    22022559.049    43809062.211 9 -43429769.702 9
  20637077.590    20637079.574   -12801749.203 9  14509405.257 9
  19998884.410    19998884.869    20863209.069 7 -61549085.982 6
  22204598.322    22204600.557    43155976.268 9 -44359473.356 9
 86  6 11  2  0 59.0800000  0  4G 6G13G 9G11
  22025965.925    22025968.136    43826977.246 8 -43415809.944 9
  20635911.594    20635912.948   -12807881.070 9  14504627.175 8
  19999210.857    19999211.189    20864928.716 7 -61547746.014 7
  22207511.954    22207513.723    43171285.318 9 -44347544.227 9
 86  6 11  2  1  5.0800000  0  4G 6G13G 9G11
  22029377.955    22029380.275    43844908.952 9 -43401837.207 8
  20634747.467    20634749.989   -12813993.444 9  14499864.288 8
  19999540.906    19999543.435    20866673.403 7 -61546386.507 7
  22210425.929    22210429.084    43186601.248 9 -44335609.739 9
 86  6 11  2  1 11.0800000  0  4G 6G13G 9G11
  22032793.028    22032796.011    43862857.316 9 -43387851.463 9
  20633587.897    20633589.873   -12820086.326 9  14495116.599 9
  19999878.444    19999878.895    20868443.261 8 -61545007.399 7
  22213341.799    22213344.997    43201924.057 9 -44323669.896 9
 86  6 11  2  1 17.0800000  0  4G 6G13G 9G11
  22036212.467    22036213.679    43880822.356 9 -43373852.750 8
  20632431.488    20632434.804   -12826159.688 9  14490384.101 8
  20000219.896    20000220.598    20870238.242 7 -61543608.708 6
  22216258.705    22216261.311    43217253.688 9 -44311724.733 9
 86  6 11  2  1 23.0800000  0  4G 6G13G 9G11
  22039633.443    22039634.316    43898804.065 9 -43359841.032 8
  20631279.805    20631283.006   -12832213.480 9  14485666.873 9
  20000567.191    20000566.477    20872058.341 8 -61542190.456 7
  22219176.871    22219180.597    43232590.138 9 -44299774.247 9
 86  6 11  2  1 29.0800000  0  4G 6G13G 9G11
  22043058.124    22043059.168    43916802.373 9 -43345816.384 8
  20630131.576    20630134.279   -12838247.867 9  14480964.749 8
  20000917.891    20000919.854    20873903.655 7 -61540752.544 7
  22222096.953    22222100.016    43247933.393 9 -44287818.474 9
 86  6 11  2  1 35.0800000  0  4G 6G13G 9G11
  22046486.933    22046488.303    43934817.272 9 -43331778.811 8
  20628986.431    20628989.659   -12844262.735 9  14476277.845 8
  20001274.400    20001274.568    20875774.082 8 -61539295.076 6
  22225018.467    22225020.980    43263283.463 8 -44275857.390 9
 86  6 11  2  1 41.0800000  0  4G 6G13G 9G11
  22049918.408    22049919.271    43952848.781 9 -43317728.285 8
  20627845.484    20627848.751   -12850258.084 9  14471606.150 9
  20001635.594    20001635.219    20877669.738 7 -61537817.953 6
  22227939.861    22227943.954    43278640.241 9 -44263891.078 9
 86  6 11  2  1 47.0800000  0  4G 6G13G 9G11
  22053352.672    22053353.577    43970896.845 9 -43303664.860 8
  20626708.244    20626711.416   -12856233.962 9  14466949.623 8
  20002000.154    20002000.409    20879590.513 8 -61536321.241 7
  22230863.955    22230866.494    43294003.775 9 -44251919.482 9
 86  6 11  2  1 53.0800000  0  4G 6G13G 9G11
  22056790.757    22056792.771    43988961.479 9 -43289588.539 8
  20625575.021    20625577.727   -12862190.291 9  14462308.316 8
  20002371.221    20002372.595    20881536.451 7 -61534804.917 7
  22233789.012    22233791.588    43309373.972 9 -44239942.709 9
 86  6 11  2  1 59.0800000  0  4G 6G13G 9G11
  22060231.137    22060232.678    44007042.675 9 -43275499.298 7
  20624446.029    20624448.948   -12868127.105 9  14457682.249 9
  20002747.010    20002745.719    20883507.537 7 -61533269.011 7
  22236714.841    22236718.170    43324750.859 9 -44227960.737 9
 86  6 11  2  2  5.0800000  0  4G 6G13G 9G11
  22063674.689    22063675.848    44025140.379 9 -43261397.204 8
  20623318.747    20623322.837   -12874044.351 9  14453071.401 9
  20003125.212    20003125.844    20885503.874 6 -61531713.420 7
  22239642.089    22239644.523    43340134.447 9 -44215973.531 9
 86  6 11  2  2 11.0800000  0  4G 6G13G 9G11
  22067121.026    22067123.061    44043254.556 9 -43247282.273 8
  20622196.791    20622199.956   -12879942.042 9  14448475.800 9
  20003510.662    20003509.378    20887525.433 7 -61530138.206 7
  22242571.158    22242572.930    43355524.728 9 -44203981.102 8
 86  6 11  2  2 17.0800000  0  4G 6G13G 9G11
  22070571.589    22070574.107    44061385.311 9 -43233154.417 9
  20621078.725    20621081.493   -12885820.269 9  14443895.373 8
  20003898.822    20003900.962    20889572.069 7 -61528543.394 7
  22245500.582    22245503.453    43370921.635 9 -44191983.515 9
 86  6 11  2  2 23.0800000  0  4G 6G13G 9G11
  22074024.695    22074027.251    44079532.497 9 -43219013.765 8
  20619963.560    20619966.075   -12891679.036 9  14439330.100 9
  20004292.401    20004295.118    20891643.969 7 -61526928.938 7
  22248432.506    22248434.868    43386325.192 9 -44179980.744 9
 86  6 11  2  2 29.0800000  0  4G 6G13G 9G11
  22077481.551    22077483.720    44097696.189 9 -43204860.245 9
  20618852.624    20618855.195   -12897518.310 9  14434780.015 9
  20004693.413    20004693.326    20893741.081 7 -61525294.833 7
  22251364.815    22251367.463    43401735.420 9 -44167972.795 8
 86  6 11  2  2 35.0800000  0  4G 6G13G 9G11
  22080940.246    22080943.333    44115876.289 9 -43190693.937 8
  20617745.121    20617747.931   -12903338.167 9  14430245.066 9
  20005095.357    20005096.283    20895863.332 7 -61523641.129 7
  22254298.549    22254300.358    43417152.187 9 -44155959.706 8
 86  6 11  2  2 41.0800000  0  4G 6G13G 9G11
  22084403.226    22084406.108    44134072.809 9 -43176514.839 9
  20616641.946    20616644.393   -12909138.561 9  14425725.284 9
  20005505.472    20005507.618    20898010.880 6 -61521967.731 6
  22257233.977    22257235.331    43432575.552 9 -44143941.512 9
 86  6 11  2  2 47.0800000  0  4G 6G13G 9G11
  22087869.166    22087871.897    44152285.738 9 -43162322.955 7
  20615541.402    20615543.568   -12914919.411 9  14421220.733 9
  20005917.461    20005919.944    20900183.636 7 -61520274.662 6
  22260169.959    22260172.908    43448005.530 9 -44131918.157 9
 86  6 11  2  2 53.0800000  0  4G 6G13G 9G11
  22091337.914    22091340.167    44170515.064 9 -43148118.289 8
  20614444.961    20614447.258   -12920680.738 9  14416731.389 8
  20006336.759    20006338.268    20902381.548 6 -61518561.995 6
  22263107.642    22263109.956    43463442.023 9 -44119889.733 9
 86  6 11  2  2 59.0800000  0  4G 6G13G 9G11
  22094810.710    22094813.000    44188760.761 9 -43133900.870 9
  20613353.159    20613354.226   -12926422.675 8  14412257.156 9
  20006759.491    20006762.252    20904604.707 7 -61516829.668 6
  22266046.510    22266047.738    43478885.025 9 -44107856.222 9
 86  6 11  2  3  5.0800000  0  4G 6G13G 9G11
  22098285.538    22098288.026    44207022.885 9 -43119670.663 8
  20612263.103    20612265.996   -12932145.150 9  14407798.081 9
  20007187.106    20007189.038    20906853.120 7 -61515077.675 7
  22268985.578    22268988.506    43494334.552 9 -44095817.635 9
 86  6 11  2  3 11.0800000  0  4G 6G13G 9G11
  22101763.375    22101766.031    44225301.343 9 -43105427.713 8
  20611177.981    20611181.642   -12937848.188 9  14403354.161 8
  20007620.104    20007621.743    20909126.751 7 -61513306.008 7
  22271926.506    22271929.517    43509790.542 9 -44083773.995 9
 86  6 11  2  3 17.0800000  0  4G 6G13G 9G11
  22105245.578    22105247.802    44243596.129 9 -43091172.044 8
  20610095.460    20610099.034   -12943531.823 9  14398925.349 8
  20008058.549    20008060.687    20911425.636 7 -61511514.661 6
  22274869.948    22274872.045    43525253.022 9 -44071725.326 9
 86  6 11  2  3 23.0800000  0  4G 6G13G 9G11
  22108730.382    22108731.778    44261907.202 9 -43076903.678 8
  20609019.218    20609021.234   -12949196.053 9  14394511.674 9
  20008500.311    20008502.501    20913749.756 7 -61509703.679 7
  22277813.199    22277814.974    43540721.871 9 -44059671.682 9
 86  6 11  2  3 29.0800000  0  4G 6G13G 9G11
  22112217.107    22112219.558    44280234.619 9 -43062622.587 8
  20607944.569    20607946.664   -12954840.861 9  14390113.123 9
  20008947.762    20008948.813    20916099.172 7 -61507872.956 6
  22280758.249    22280760.485    43556197.148 9 -44047613.036 8
 86  6 11  2  3 35.0800000  0  4G 6G13G 9G11
  22115708.815    22115710.191    44298578.297 9 -43048328.822 8
  20606874.181    20606876.724   -12960466.267 9  14385729.695 8
  20009399.513    20009401.464    20918473.736 7 -61506022.648 8
  22283704.345    22283704.964    43571678.826 9 -44035549.392 9
 86  6 11  2  3 41.0800000  0  4G 6G13G 9G11
  22119201.759    22119204.052    44316938.277 9 -43034022.354 8
  20605807.604    20605809.933   -12966072.219 9  14381361.413 9
  20009855.755    20009856.349    20920873.688 7 -61504152.557 6
  22286650.677    22286653.882    43587166.906 9 -44023480.763 9
 86  6 11  2  3 47.0800000  0  4G 6G13G 9G11
  22122699.064    22122701.429    44335314.520 9 -43019703.212 8
  20604744.607    20604746.652   -12971658.793 9  14377008.246 8
  20010317.634    20010318.160    20923298.808 8 -61502262.851 7
  22289599.400    22289602.601    43602661.353 8 -44011407.175 9
 86  6 11  2  3 53.0800000  0  4G 6G13G 9G11
  22126198.774    22126201.511    44353706.968 9 -43005371.449 9
  20603685.333    20603687.107   -12977225.938 9  14372670.219 9
  20010783.628    20010785.147    20925749.247 7 -61500353.419 7
  22292549.149    22292551.554    43618162.177 8 -43999328.609 9
 86  6 11  2  3 59.0800000  0  4G 6G13G 9G11
  22129701.885    22129704.656    44372115.657 9 -42991027.013 9
  20602629.885    20602632.233   -12982773.726 9  14368347.261 9
  20011255.957    20011256.666    20928224.853 7 -61498424.374 6
  22295500.946    22295503.105    43633669.312 9 -43987245.131 9
 86  6 11  2  4  5.0800000  0  4G 6G13G 9G11
  22133207.629    22133210.100    44390540.542 9 -42976669.972 9
  20601576.153    20601580.206   -12988302.137 9  14364039.416 8
  20011731.424    20011732.091    20930725.818 8 -61496475.582 7
  22298452.641    22298455.249    43649182.815 9 -43975156.705 9
 86  6 11  2  4 11.0800000  0  4G 6G13G 9G11
  22136716.905    22136720.194    44408981.578 9 -42962300.353 8
  20600528.142    20600531.069   -12993811.201 9  14359746.640 8
  20012212.093    20012212.860    20933252.070 7 -61494507.074 7
  22301405.789    22301408.918    43664702.582 9 -43963063.372 9
 86  6 11  2  4 17.0800000  0  4G 6G13G 9G11
  22140229.284    22140232.113    44427438.817 9 -42947918.103 9
  20599483.526    20599486.027   -12999300.798 9  14355469.037 9
  20012697.581    20012697.521    20935803.544 7 -61492518.904 6
  22304360.368    22304363.809    43680228.600 8 -43950965.181 9
 86  6 11  2  4 23.0800000  0  4G 6G13G 9G11
  22143744.893    22143747.232    44445912.199 8 -42933523.264 8
  20598441.867    20598444.874   -13004771.020 9  14351206.525 8
  20013187.107    20013187.855    20938380.282 7 -61490511.057 6
  22307316.647    22307318.889    43695760.884 9 -43938862.099 9
 86  6 11  2  4 29.0800000  0  4G 6G13G 9G11
  22147263.290    22147265.756    44464401.777 9 -42919115.816 9
  20597405.692    20597407.531   -13010221.821 9  14346959.140 9
  20013682.091    20013683.072    20940982.372 7 -61488483.450 7
  22310271.633    22310275.998    43711299.441 9 -43926754.144 9
 86  6 11  2  4 35.0800000  0  4G 6G13G 9G11
  22150783.851    22150786.794    44482907.431 9 -42904695.839 9
  20596372.963    20596375.103   -13015653.251 9  14342726.870 9
  20014181.361    20014183.514    20943609.625 7 -61486436.247 6
  22313231.563    22313233.708    43726844.246 9 -43914641.305 8
 86  6 11  2  4 41.0800000  0  4G 6G13G 9G11
  22154309.402    22154312.475    44501429.212 9 -42890263.291 9
  20595342.390    20595344.663   -13021065.352 8  14338509.643 8
  20014686.550    20014688.309    20946262.289 7 -61484369.241 6
  22316190.939    22316192.849    43742395.263 9 -43902523.647 9
 86  6 11  2  4 47.0800000  0  4G 6G13G 9G11
  22157836.688    22157840.839    44519967.076 9 -42875818.211 8
  20594315.621    20594318.179   -13026458.087 9  14334307.519 8
  20015196.729    20015199.217    20948940.228 7 -61482282.534 6
  22319151.111    22319153.962    43757952.490 9 -43890401.129 9
 86  6 11  2  4 53.0800000  0  4G 6G13G 9G11
  22161367.976    22161370.723    44538521.037 9 -42861360.585 8
  20593293.345    20593295.536   -13031831.456 9  14330120.478 8
  20015711.786    20015712.602    20951643.429 7 -61480176.153 7
  22322113.354    22322115.796    43773515.952 9 -43878273.753 9
 86  6 11  2  4 59.0800000  0  4G 6G13G 9G11
  22164902.162    22164903.258    44557091.023 8 -42846890.488 8
  20592274.424    20592277.163   -13037185.480 8  14325948.509 8
  20016229.590    20016232.715    20954371.992 7 -61478049.986 7
  22325075.271    22325078.608    43789085.592 9 -43866141.575 9
 86  6 11  2  5  5.0800000  0  4G 6G13G 9G11
  22168438.046    22168439.720    44575677.064 9 -42832407.863 9
  20591258.923    20591262.410   -13042520.152 9  14321791.626 8
  20016754.489    20016755.913    20957125.904 7 -61475904.072 7
  22328039.243    22328042.194    43804661.349 9 -43854004.630 9
 86  6 11  2  5 11.0800000  0  4G 6G13G 9G11
  22171978.544    22171981.089    44594279.135 9 -42817912.751 8
  20590248.126    20590250.937   -13047835.515 9  14317649.785 9
  20017283.624    20017284.664    20959905.068 7 -61473738.497 7
  22331004.874    22331007.983    43820243.239 9 -43841862.900 8
 86  6 11  2  5 17.0800000  0  4G 6G13G 9G11
  22175521.435    22175523.671    44612897.221 9 -42803405.163 8
  20589239.839    20589242.425   -13053131.506 9  14313523.041 9
  20017815.162    20017818.207    20962709.608 8 -61471553.161 7
  22333970.918    22333973.631    43835831.243 9 -43829716.405 9
 86  6 11  2  5 23.0800000  0  4G 6G13G 9G11
  22179067.919    22179069.579    44631531.301 9 -42788885.095 9
  20588235.688    20588239.077   -13058408.205 9  14309411.330 8
  20018354.171    20018358.761    20965539.467 8 -61469348.069 8
  22336938.461    22336941.195    43851425.314 9 -43817565.201 9
 86  6 11  2  5 29.0800000  0  4G 6G13G 9G11
  22182616.039    22182619.144    44650181.337 8 -42774352.606 8
  20587235.017    20587237.650   -13063665.568 8  14305314.687 9
  20018898.188    20018901.462    20968394.642 7 -61467123.250 7
  22339906.039    22339909.886    43867025.448 9 -43805409.256 9
 86  6 11  2  5 35.0800000  0  4G 6G13G 9G11
  22186168.128    22186170.084    44668847.345 9 -42759807.673 8
  20586238.039    20586240.611   -13068903.605 9  14301233.100 8
  20019446.277    20019448.159    20971275.159 7 -61464878.712 6
  22342876.066    22342879.604    43882631.613 8 -43793248.612 9
 86  6 11  2  5 41.0800000  0  4G 6G13G 9G11
  22189723.320    22189724.549    44687529.302 9 -42745250.308 9
  20585245.661    20585248.157   -13074122.328 8  14297166.554 9
  20019999.968    20020001.785    20974180.956 7 -61462614.465 6
  22345847.107    22345850.358    43898243.754 8 -43781083.313 9
 86  6 11  2  5 47.0800000  0  4G 6G13G 9G11
  22193281.366    22193283.828    44706227.171 9 -42730680.553 8
  20584257.107    20584260.196   -13079321.862 8  14293114.977 8
  20020557.230    20020560.113    20977112.190 7 -61460330.384 7
  22348819.658    22348822.126    43913861.910 8 -43768913.332 9
 86  6 11  2  5 53.0800000  0  4G 6G13G 9G11
  22196842.172    22196844.355    44724940.979 9 -42716098.371 8
  20583271.288    20583273.794   -13084502.064 8  14289078.463 8
  20021120.267    20021120.966    20980068.702 7 -61458026.604 7
  22351792.754    22351796.615    43929486.058 9 -43756738.678 9
 86  6 11  2  5 59.0800000  0  4G 6G13G 9G11
  22200407.087    22200409.239    44743670.655 9 -42701503.831 8
  20582289.334    20582291.318   -13089662.954 9  14285056.983 9
  20021687.023    20021690.630    20983050.553 7 -61455703.072 7
  22354766.965    22354770.466    43945116.193 9 -43744559.364 9
 86  6 11  2  6  5.0800000  0  4G 6G13G 9G11
  22203973.305    22203976.547    44762416.205 8 -42686896.918 9
  20581310.504    20581312.553   -13094804.551 9  14281050.560 8
  20022259.236    20022261.905    20986057.694 7 -61453359.865 7
  22357743.071    22357744.511    43960752.262 9 -43732375.433 9
 86  6 11  2  6 11.0800000  0  4G 6G13G 9G11
  22207543.555    22207547.259    44781177.645 9 -42672277.621 9
  20580335.652    20580339.083   -13099926.795 9  14277059.200 9
  20022836.922    20022837.764    20989090.301 8 -61450996.798 6
  22360719.234    22360722.852    43976394.223 9 -43720186.875 9
 86  6 11  2  6 17.0800000  0  4G 6G13G 9G11
  22211117.603    22211119.467    44799954.876 9 -42657646.019 9
  20579364.341    20579367.111   -13105029.777 9  14273082.852 9
  20023419.171    20023421.509    20992148.161 7 -61448614.050 7
  22363696.055    22363700.555    43992042.179 9 -43707993.679 9
 86  6 11  2  6 23.0800000  0  4G 6G13G 9G11
  22214693.331    22214696.072    44818747.950 9 -42643002.083 9
  20578397.499    20578399.297   -13110113.494 9  14269121.515 8
  20024005.677    20024006.876    20995231.425 8 -61446211.498 7
  22366675.842    22366679.394    44007696.013 9 -43695795.898 9
 86  6 11  2  6 29.0800000  0  4G 6G13G 9G11
  22218272.604    22218274.006    44837556.845 9 -42628345.809 9
  20577433.344    20577436.183   -13115177.956 8  14265175.176 9
  20024597.114    20024600.247    20998340.043 7 -61443789.213 7
  22369655.416    22369658.625    44023355.730 8 -43683593.524 9
 86  6 11  2  6 35.0800000  0  4G 6G13G 9G11
  22221855.098    22221857.201    44856381.474 9 -42613677.264 8
  20576472.510    20576475.766   -13120223.141 9  14261243.867 9
  20025193.188    20025194.037    21001474.044 8 -61441347.141 7
  22372636.737    22372639.653    44039021.360 9 -43671386.539 9
 86  6 11  2  6 41.0800000  0  4G 6G13G 9G11
  22225440.090    22225442.531    44875221.909 9 -42598996.430 8
  20575517.089    20575518.767   -13125249.117 9  14257327.531 8
  20025795.014    20025796.049    21004633.425 7 -61438885.279 6
  22375618.697    22375622.476    44054692.784 9 -43659175.048 8
 86  6 11  2  6 47.0800000  0  4G 6G13G 9G11
  22229028.296    22229029.938    44894078.102 9 -42584303.303 9
  20574563.434    20574567.050   -13130255.905 8  14253426.141 9
  20026400.656    20026402.116    21007818.148 7 -61436403.694 7
  22378602.308    22378605.304    44070370.030 9 -43646959.012 9
 86  6 11  2  6 53.0800000  0  4G 6G13G 9G11
  22232619.511    22232622.284    44912950.059 9 -42569597.881 8
  20573614.565    20573617.486   -13135243.473 8  14249539.733 9
  20027012.166    20027013.874    21011028.215 8 -61433902.317 7
  22381586.088    22381589.309    44086053.163 8 -43634738.397 8
 86  6 11  2  6 59.0800000  0  4G 6G13G 9G11
  22236213.873    22236216.921    44931837.688 9 -42554880.280 8
  20572668.904    20572672.497   -13140211.845 9  14245668.269 8
  20027627.754    20027628.577    21014263.666 7 -61431381.207 7
  22384571.810    22384575.245    44101742.063 9 -43622513.287 9
 86  6 11  2  7  5.0800000  0  4G 6G13G 9G11
  22239811.143    22239813.954    44950741.070 9 -42540150.370 9
  20571727.361    20571729.916   -13145160.996 9  14241811.796 8
  20028246.934    20028248.985    21017524.477 7 -61428840.293 7
  22387558.454    22387561.657    44117436.698 9 -43610283.704 9
 86  6 11  2  7 11.0800000  0  4G 6G13G 9G11
  22243410.915    22243413.585    44969660.140 9 -42525408.255 9
  20570789.458    20570792.426   -13150090.912 9  14237970.297 9
  20028873.847    20028875.232    21020810.643 7 -61426279.669 6
  22390545.269    22390549.328    44133137.094 8 -43598049.637 9
 86  6 11  2  7 17.0800000  0  4G 6G13G 9G11
  22247014.096    22247017.091    44988594.868 9 -42510653.934 8
  20569854.352    20569858.140   -13155001.561 9  14234143.817 8
  20029504.359    20029504.088    21024122.164 8 -61423699.250 7
  22393534.900    22393538.172    44148843.255 9 -43585811.069 8
 86  6 11  2  7 23.0800000  0  4G 6G13G 9G11
  22250620.781    22250622.357    45007545.254 9 -42495887.413 8
  20568924.247    20568926.704   -13159892.963 9  14230332.339 9
  20030139.535    20030138.640    21027459.092 8 -61421099.047 7
  22396524.085    22396528.292    44164555.164 8 -43573568.031 9
 86  6 11  2  7 29.0800000  0  4G 6G13G 9G11
  22254229.482    22254232.250    45026511.274 9 -42481108.697 9
  20567996.821    20567999.849   -13164765.193 8  14226535.801 8
  20030780.303    20030776.959    21030821.468 8 -61418479.023 6
  22399515.164    22399518.675    44180272.776 9 -43561320.555 9
 86  6 11  2  7 35.0800000  0  4G 6G13G 9G11
  22257840.754    22257843.685    45045492.961 9 -42466317.793 9
  20567073.358    20567076.302   -13169618.277 8  14222754.182 9
  20031423.948    20031424.628    21034209.302 7 -61415839.151 7
  22402507.919    22402511.498    44195996.079 9 -43549068.634 9
 86  6 11  2  7 41.0800000  0  4G 6G13G 9G11
  22261456.515    22261457.924    45064490.275 9 -42451514.701 8
  20566153.774    20566157.076   -13174452.208 9  14218987.475 9
  20032071.954    20032074.164    21037622.513 7 -61413179.503 7
  22405499.731    22405504.028    44211725.070 8 -43536812.284 9
 86  6 11  2  7 47.0800000  0  4G 6G13G 9G11
  22265074.484    22265077.090    45083503.139 9 -42436699.480 8
  20565236.659    20565240.200   -13179266.965 9  14215235.733 8
  20032727.181    20032727.121    21041061.055 8 -61410500.129 7
  22408495.435    22408498.532    44227459.730 9 -43524551.509 9
 86  6 11  2  7 53.0800000  0  4G 6G13G 9G11
  22268695.225    22268698.458    45102531.573 9 -42421872.149 9
  20564323.746    20564327.036   -13184062.494 9  14211498.950 8
  20033386.627    20033387.428    21044524.928 8 -61407800.997 7
  22411490.922    22411493.178    44243200.049 8 -43512286.343 9
 86  6 11  2  7 59.0800000  0  4G 6G13G 9G11
  22272319.947    22272320.722    45121575.584 9 -42407032.658 9
  20563414.448    20563419.531   -13188838.869 8  14207777.113 9
  20034049.543    20034051.382    21048014.267 8 -61405082.050 6
  22414486.877    22414489.949    44258946.024 8 -43500016.752 9
 86  6 11  2  8  5.0800000  0  4G 6G13G 9G11
  22275945.852    22275949.057    45140635.118 9 -42392181.087 8
  20562509.847    20562512.843   -13193596.083 8  14204070.185 8
  20034719.289    20034720.336    21051529.050 8 -61402343.256 7
  22417483.542    22417487.450    44274697.595 9 -43487742.811 9
 86  6 11  2  8 11.0800000  0  4G 6G13G 9G11
  22279576.674    22279579.898    45159710.154 8 -42377317.431 9
  20561608.341    20561611.507   -13198334.146 8  14200378.185 8
  20035392.815    20035393.698    21055069.217 8 -61399584.695 7
  22420483.643    22420486.335    44290454.712 9 -43475464.548 9
 86  6 11  2  8 17.0800000  0  4G 6G13G 9G11
  22283208.895    22283211.953    45178800.726 9 -42362441.669 8
  20560711.133    20560713.389   -13203053.116 9  14196701.083 8
  20036069.848    20036073.098    21058634.771 8 -61396806.317 7
  22423481.355    22423486.050    44306217.371 9 -43463181.962 9
 86  6 11  2  8 23.0800000  0  4G 6G13G 9G11
  22286844.963    22286847.637    45197906.747 9 -42347553.869 8
  20559816.635    20559819.159   -13207752.901 9  14193038.905 8
  20036754.594    20036756.068    21062225.787 7 -61394008.152 7
  22426482.416    22426485.499    44321985.618 9 -43450895.032 9
 86  6 11  2  8 29.0800000  0  4G 6G13G 9G11
  22290484.469    22290486.751    45217028.262 9 -42332654.000 9
  20558926.781    20558927.856   -13212433.534 8  14189391.667 8
  20037443.686    20037444.600    21065842.136 8 -61391190.196 7
  22429484.640    22429487.431    44337759.314 9 -43438603.845 9
 86  6 11  2  8 35.0800000  0  4G 6G13G 9G11
  22294126.224    22294128.659    45236165.211 9 -42317742.095 9
  20558038.352    20558041.793   -13217095.059 9  14185759.312 8
  20038135.870    20038136.047    21069483.975 7 -61388352.409 7
  22432486.851    22432490.403    44353538.535 9 -43426308.361 9
 86  6 11  2  8 41.0800000  0  4G 6G13G 9G11
  22297769.872    22297772.580    45255317.569 9 -42302818.195 8
  20557156.240    20557158.225   -13221737.417 9  14182141.893 8
  20038833.367    20038835.211    21073151.116 7 -61385494.902 7
  22435490.305    22435493.519    44369323.226 9 -43414008.596 9
 86  6 11  2  8 47.0800000  0  4G 6G13G 9G11
  22301418.135    22301420.310    45274485.335 9 -42287882.285 9
  20556276.292    20556277.924   -13226360.702 8  14178539.338 9
  20039538.113    20039538.251    21076843.777 8 -61382617.514 7
  22438494.783    22438498.217    44385113.379 9 -43401704.582 9
 86  6 11  2  8 53.0800000  0  4G 6G13G 9G11
  22305068.046    22305070.471    45293668.499 9 -42272934.376 8
  20555400.112    20555402.071   -13230964.870 8  14174951.674 7
  20040244.856    20040245.133    21080561.856 7 -61379720.307 8
  22441502.220    22441504.759    44400909.021 8 -43389396.293 9
 86  6 11  2  8 59.0800000  0  4G 6G13G 9G11
  22308721.294    22308724.196    45312867.046 9 -42257974.469 9
  20554527.765    20554529.887   -13235549.985 9  14171378.863 8
  20040957.407    20040957.444    21084305.291 8 -61376803.346 7
  22444507.723    22444511.693    44416710.117 9 -43377083.759 9
 86  6 11  2  9  5.0800000  0  4G 6G13G 9G11
  22312378.334    22312379.661    45332080.976 9 -42243002.596 8
  20553658.396    20553660.206   -13240115.979 9  14167820.950 8
  20041675.309    20041676.376    21088074.155 7 -61373866.568 7
  22447516.185    22447519.279    44432516.670 8 -43364766.976 9
 86  6 11  2  9 11.0800000  0  4G 6G13G 9G11
  22316037.105    22316040.456    45351310.250 9 -42228018.746 8
  20552793.459    20552795.295   -13244662.895 9  14164277.900 9
  20042395.765    20042396.280    21091868.418 8 -61370909.998 6
  22450525.116    22450527.526    44448328.629 8 -43352445.978 9
 86  6 11  2  9 17.0800000  0  4G 6G13G 9G11
  22319699.003    22319701.618    45370554.860 9 -42213022.963 9
  20551931.791    20551933.030   -13249190.729 9  14160749.715 9
  20043122.652    20043123.166    21095688.200 8 -61367933.562 7
  22453534.929    22453537.949    44464145.984 9 -43340120.764 9
 86  6 11  2  9 23.0800000  0  4G 6G13G 9G11
  22323364.082    22323367.140    45389814.798 9 -42198015.245 9
  20551072.865    20551075.505   -13253699.460 9  14157236.419 9
  20043854.352    20043856.317    21099533.436 7 -61364937.270 6
  22456546.069    22456548.462    44479968.709 9 -43327791.377 9
 86  6 11  2  9 29.0800000  0  4G 6G13G 9G11
  22327032.215    22327034.858    45409090.034 9 -42182995.590 9
  20550219.276    20550220.998   -13258189.082 9  14153738.014 8
  20044589.783    20044592.657    21103404.054 7 -61361921.207 7
  22459557.765    22459561.415    44495796.800 9 -43315457.810 9
 86  6 11  2  9 35.0800000  0  4G 6G13G 9G11
  22330702.384    22330705.460    45428380.494 9 -42167964.065 9
  20549367.387    20549371.261   -13262659.641 9  14150254.463 9
  20045332.397    20045333.579    21107300.059 8 -61358885.366 7
  22462570.491    22462574.338    44511630.234 9 -43303120.069 9
 86  6 11  2  9 41.0800000  0  4G 6G13G 9G11
  22334376.461    22334379.686    45447686.233 9 -42152920.643 9
  20548521.090    20548523.212   -13267111.155 9  14146785.764 9
  20046078.159    20046079.250    21111221.577 8 -61355829.637 7
  22465584.975    22465587.777    44527469.014 9 -43290778.167 9
 86  6 11  2  9 47.0800000  0  4G 6G13G 9G11
  22338053.420    22338055.113    45467007.266 9 -42137865.308 8
  20547677.131    20547679.456   -13271543.615 9  14143331.896 8
  20046829.481    20046830.206    21115168.426 8 -61352754.158 6
  22468600.757    22468603.210    44543313.107 9 -43278432.136 9
 86  6 11  2  9 53.0800000  0  4G 6G13G 9G11
  22341732.428    22341735.525    45486343.485 9 -42122798.138 8
  20546838.017    20546840.308   -13275957.009 9  14139892.890 9
  20047584.263    20047585.403    21119140.851 8 -61349658.767 7
  22471616.436    22471619.528    44559162.485 9 -43266081.962 8
 86  6 11  2  9 59.0800000  0  4G 6G13G 9G11
  22345415.708    22345418.458    45505694.922 9 -42107719.121 9
  20546001.761    20546003.567   -13280351.385 9  14136468.703 9
  20048346.380    20048347.170    21123138.731 8 -61346543.550 7
  22474633.254    22474636.143    44575017.120 9 -43253727.723 8
 86  6 11  2 10  5.0800000  0  4G 6G13G 9G11
  22349100.902    22349103.181    45525061.573 9 -42092628.222 9
  20545169.689    20545171.589   -13284726.768 9  14133059.312 8
  20049111.711    20049112.290    21127161.930 8 -61343408.580 7
  22477651.063    22477654.120    44590876.947 9 -43241369.415 9
 86  6 11  2 10 11.0800000  0  4G 6G13G 9G11
  22352788.356    22352791.289    45544443.374 9 -42077525.528 9
  20544340.444    20544341.888   -13289083.152 9  14129664.727 8
  20049882.530    20049882.200    21131210.649 6 -61340253.743 7
  22480670.354    22480673.526    44606742.019 9 -43229007.023 9
 86  6 11  2 10 17.0800000  0  4G 6G13G 9G11
  22356480.957    22356483.206    45563840.353 9 -42062411.004 9
  20543515.429    20543516.903   -13293420.568 9  14126284.925 8
  20050657.010    20050659.372    21135284.782 7 -61337079.092 6
  22483690.613    22483693.163    44622612.292 9 -43216640.575 8
 86  6 11  2 10 23.0800000  0  4G 6G13G 9G11
  22360173.927    22360176.286    45583252.449 9 -42047284.716 8
  20542693.429    20542694.932   -13297739.021 9  14122919.893 8
  20051437.635    20051439.532    21139384.444 8 -61333884.554 7
  22486711.758    22486713.977    44638487.768 9 -43204270.091 9
 86  6 11  2 10 29.0800000  0  4G 6G13G 9G11
  22363871.565    22363872.923    45602679.665 9 -42032146.627 8
  20541874.473    20541876.986   -13302038.426 9  14119569.713 8
  20052222.923    20052222.919    21143509.427 7 -61330670.283 7
  22489733.900    22489736.885    44654368.425 9 -43191895.552 9
 86  6 11  2 10 35.0800000  0  4G 6G13G 9G11
  22367571.796    22367572.217    45622122.010 9 -42016996.762 8
  20541060.570    20541061.966   -13306318.794 9  14116234.363 8
  20053012.677    20053012.739    21147659.902 8 -61327436.162 7
  22492756.362    22492758.795    44670254.253 8 -43179516.989 9
 86  6 11  2 10 41.0800000  0  4G 6G13G 9G11
  22371275.235    22371275.438    45641579.398 9 -42001835.171 8
  20540248.791    20540252.108   -13310580.230 9  14112913.762 7
  20053807.428    20053807.659    21151835.828 8 -61324182.166 6
  22495779.654    22495783.432    44686145.214 9 -43167134.422 9
 86  6 11  2 10 47.0800000  0  4G 6G13G 9G11
  22374979.542    22374982.344    45661051.849 9 -41986661.845 8
  20539441.582    20539443.778   -13314822.707 9  14109607.934 8
  20054605.881    20054607.589    21156037.195 8 -61320908.391 7
  22498805.275    22498807.563    44702041.244 9 -43154747.910 8
 86  6 11  2 10 53.0800000  0  4G 6G13G 9G11
  22378687.622    22378691.297    45680539.373 9 -41971476.769 9
  20538637.659    20538640.078   -13319046.266 9  14106316.861 9
  20055411.157    20055413.180    21160264.056 8 -61317614.734 7
  22501831.166    22501834.208    44717942.379 9 -43142357.414 9
 86  6 11  2 10 59.0800000  0  4G 6G13G 9G11
  22382398.404    22382400.747    45700041.904 9 -41956280.004 8
  20537838.126    20537840.853   -13323250.821 8  14103040.585 8
  20056220.801    20056220.794    21164516.369 8 -61314301.254 7
  22504857.096    22504860.831    44733848.677 9 -43129962.901 9
 86  6 11  2 11  5.0800000  0  4G 6G13G 9G11
  22386112.604    22386114.591    45719559.453 8 -41941071.532 8
  20537041.384    20537044.076   -13327436.310 9  14099779.155 8
  20057034.191    20057035.175    21168794.072 8 -61310967.975 6
  22507885.099    22507888.408    44749760.029 8 -43117564.452 9
 86  6 11  2 11 11.0800000  0  4G 6G13G 9G11
  22389828.828    22389832.187    45739091.940 9 -41925851.424 9
  20536248.597    20536250.911   -13331602.860 9  14096532.497 8
  20057853.077    20057853.899    21173097.287 8 -61307614.818 6
  22510914.194    22510917.492    44765676.379 9 -43105162.098 9
 86  6 11  2 11 17.0800000  0  4G 6G13G 9G11
  22393548.393    22393551.447    45758639.411 9 -41910619.638 8
  20535459.673    20535461.247   -13335750.486 9  14093300.582 8
  20058675.931    20058676.967    21177425.850 7 -61304241.903 7
  22513944.406    22513947.237    44781597.745 9 -43092755.848 8
 86  6 11  2 11 23.0800000  0  4G 6G13G 9G11
  22397271.922    22397275.242    45778201.859 8 -41895376.194 8
  20534673.368    20534677.214   -13339879.247 9  14090083.376 8
  20059504.838    20059507.038    21181779.934 8 -61300849.116 7
  22516974.578    22516978.179    44797524.153 9 -43080345.669 8
 86  6 11  2 11 29.0800000  0  4G 6G13G 9G11
  22400997.005    22401000.174    45797779.243 9 -41880121.092 8
  20533892.201    20533893.827   -13343989.112 9  14086880.869 9
  20060340.046    20060340.322    21186159.492 7 -61297436.477 8
  22520006.730    22520009.006    44813455.597 9 -43067931.553 8
 86  6 11  2 11 35.0800000  0  4G 6G13G 9G11
  22404725.274    22404729.005    45817371.533 9 -41864854.388 8
  20533113.267    20533115.741   -13348080.083 9  14083693.115 9
  20061177.056    20061176.952    21190564.443 7 -61294004.058 8
  22523039.970    22523042.252    44829392.054 9 -43055513.548 8
 86  6 11  2 11 41.0800000  0  4G 6G13G 9G11
  22408456.228    22408458.783    45836978.729 9 -41849576.066 8
  20532338.537    20532340.271   -13352152.154 8  14080520.073 9
  20062019.219    20062020.497    21194994.846 8 -61290551.785 6
  22526072.517    22526075.989    44845333.457 9 -43043091.670 9
 86  6 11  2 11 47.0800000  0  4G 6G13G 9G11
  22412190.604    22412193.358    45856600.816 9 -41834286.125 8
  20531566.763    20531570.339   -13356205.338 9  14077361.745 8
  20062867.975    20062868.913    21199450.658 8 -61287079.724 7
  22529107.623    22529110.511    44861279.808 9 -43030665.947 8
 86  6 11  2 11 53.0800000  0  4G 6G13G 9G11
  22415927.527    22415929.782    45876237.781 9 -41818984.612 8
  20530799.266    20530802.151   -13360239.633 9  14074218.137 8
  20063721.966    20063721.290    21203932.048 7 -61283587.746 7
  22532142.459    22532145.044    44877231.137 9 -43018236.338 9
 86  6 11  2 11 59.0800000  0  4G 6G13G 9G11
  22419666.834    22419669.166    45895889.605 8 -41803671.522 8
  20530035.506    20530037.357   -13364255.066 9  14071089.229 8
  20064578.555    20064579.596    21208438.848 9 -61280075.945 8
  22535179.219    22535181.807    44893187.410 9 -43005802.878 9
 86  6 11  2 12  5.0800000  0  4G 6G13G 9G11
  22423409.387    22423411.828    45915556.259 9 -41788346.857 8
  20529275.317    20529278.139   -13368251.652 9  14067975.008 8
  20065441.172    20065442.942    21212971.137 8 -61276544.297 7
  22538217.404    22538219.125    44909148.621 9 -42993365.577 9
 86  6 11  2 12 11.0800000  0  4G 6G13G 9G11
  22427154.058    22427156.508    45935237.727 9 -41773010.658 8
  20528517.932    20528520.172   -13372229.318 9  14064875.539 9
  20066308.640    20066308.298    21217528.854 8 -61272992.835 7
  22541253.614    22541257.891    44925114.726 9 -42980924.461 9
 86  6 11  2 12 17.0800000  0  4G 6G13G 9G11
  22430902.960    22430906.006    45954933.993 9 -41757662.932 8
  20527765.301    20527767.273   -13376188.127 9  14061790.747 9
  20067180.033    20067179.855    21222112.034 7 -61269421.525 7
  22544294.220    22544296.459    44941085.690 9 -42968479.562 8
 86  6 11  2 12 23.0800000  0  4G 6G13G 9G11
  22434653.771    22434656.496    45974645.051 8 -41742303.673 9
  20527014.179    20527016.289   -13380128.087 9  14058720.643 8
  20068056.538    20068058.443    21226720.559 8 -61265830.475 7
  22547334.861    22547336.979    44957061.455 9 -42956030.920 9
 86  6 11  2 12 29.0800000  0  4G 6G13G 9G11
  22438407.363    22438410.273    45994370.881 9 -41726932.909 8
  20526269.158    20526271.276   -13384049.274 9  14055665.181 9
  20068937.402    20068940.267    21231354.717 9 -61262219.439 7
  22550375.392    22550378.186    44973042.051 9 -42943578.511 9
 86  6 11  2 12 35.0800000  0  4G 6G13G 9G11
  22442163.791    22442166.242    46014111.440 9 -41711550.656 8
  20525526.056    20525529.410   -13387951.586 9  14052624.418 9
  20069825.049    20069826.878    21236014.265 8 -61258588.626 7
  22553417.183    22553419.290    44989027.455 8 -42931122.351 9
 86  6 11  2 12 41.0800000  0  4G 6G13G 9G11
  22445923.486    22445926.749    46033866.725 9 -41696156.938 8
  20524787.156    20524790.105   -13391835.032 8  14049598.356 8
  20070717.306    20070718.788    21240699.266 8 -61254937.970 7
  22556459.890    22556462.621    45005017.667 9 -42918662.453 9
 86  6 11  2 12 47.0800000  0  4G 6G13G 9G11
  22449685.099    22449688.560    46053636.755 9 -41680751.741 9
  20524050.980    20524054.476   -13395699.646 9  14046586.972 8
  20071614.127    20071614.631    21245409.730 8 -61251267.485 7
  22559503.495    22559506.687    45021012.661 9 -42906198.831 9
 86  6 11  2 12 53.0800000  0  4G 6G13G 9G11
  22453450.424    22453452.668    46073421.462 7 -41665335.093 8
  20523319.899    20523323.047   -13399545.573 9  14043590.145 8
  20072515.018    20072516.677    21250145.776 7 -61247577.065 7
  22562547.914    22562550.856    45037012.433 9 -42893731.472 9
 86  6 11  2 12 59.0800000  0  4G 6G13G 9G11
  22457217.310    22457221.160    46093220.807 9 -41649907.044 8
  20522592.601    20522594.207   -13403372.671 9  14040607.986 8
  20073421.248    20073421.664    21254907.287 7 -61243866.807 6
  22565593.996    22565597.111    45053016.980 9 -42881260.410 9
 86  6 11  2 13  5.0800000  0  4G 6G13G 9G11
  22460988.637    22460991.491    46113034.836 8 -41634467.560 8
  20521866.745    20521870.162   -13407180.934 9  14037640.511 8
  20074332.076    20074331.952    21259694.120 7 -61240136.800 7
  22568640.332    22568642.946    45069026.243 9 -42868785.657 9
 86  6 11  2 13 11.0800000  0  4G 6G13G 9G11
  22464762.200    22464764.659    46132863.497 9 -41619016.663 8
  20521145.450    20521148.111   -13410970.421 9  14034687.669 8
  20075247.025    20075248.850    21264506.512 8 -61236386.880 7
  22571687.383    22571690.577    45085040.223 8 -42856307.244 9
 86  6 11  2 13 17.0800000  0  4G 6G13G 9G11
  22468537.897    22468541.352    46152706.748 9 -41603554.395 8
  20520428.391    20520431.741   -13414741.220 9  14031749.396 8
  20076168.707    20076169.177    21269344.338 8 -61232617.141 7
  22574735.802    22574738.899    45101058.863 9 -42843825.177 9
 86  6 11  2 13 23.0800000  0  4G 6G13G 9G11
  22472316.808    22472318.938    46172564.609 8 -41588080.746 8
  20519714.099    20519717.871   -13418493.214 9  14028825.760 9
  20077093.969    20077095.213    21274207.624 7 -61228827.586 7
  22577784.639    22577788.329    45117082.228 8 -42831339.445 9
 86  6 11  2 13 29.0800000  0  4G 6G13G 9G11
  22476098.490    22476100.933    46192437.061 9 -41572595.729 9
  20519004.256    20519006.693   -13422226.473 8  14025916.726 8
  20078024.392    20078025.507    21279096.374 7 -61225018.175 6
  22580834.752    22580838.290    45133110.258 9 -42818850.081 8
 86  6 11  2 13 35.0800000  0  4G 6G13G 9G11
  22479882.184    22479885.033    46212324.062 9 -41557099.384 8
  20518297.780    20518299.970   -13425940.986 8  14023022.307 9
  20078958.403    20078960.377    21284010.587 8 -61221188.902 7
  22583885.946    22583888.663    45149142.940 9 -42806357.074 9
 86  6 11  2 13 41.0800000  0  4G 6G13G 9G11
  22483670.068    22483672.648    46232225.593 9 -41541591.700 9
  20517593.740    20517596.117   -13429636.741 9  14020142.499 8
  20079899.567    20079901.193    21288950.269 8 -61217339.811 7
  22586937.342    22586941.166    45165180.252 9 -42793860.474 8
 86  6 11  2 13 47.0800000  0  4G 6G13G 9G11
  22487459.568    22487462.264    46252141.650 9 -41526072.701 8
  20516893.403    20516896.871   -13433313.793 8  14017277.270 8
  20080843.246    20080845.022    21293915.396 8 -61213470.883 6
  22589989.996    22589993.093    45181222.129 9 -42781360.320 8
 86  6 11  2 13 53.0800000  0  4G 6G13G 9G11
  22491253.024    22491255.305    46272072.195 9 -41510542.426 8
  20516198.541    20516200.987   -13436972.145 9  14014426.604 9
  20081792.767    20081795.366    21298906.010 7 -61209582.101 7
  22593043.400    22593046.698    45197268.595 9 -42768856.580 9
 86  6 11  2 13 59.0800000  0  4G 6G13G 9G11
  22495048.399    22495050.259    46292017.202 9 -41495000.854 8
  20515505.370    20515507.163   -13440611.776 9  14011590.528 8
  20082747.841    20082748.863    21303922.077 7 -61205673.461 7
  22596098.139    22596099.849    45213319.637 8 -42756349.279 8
 86  6 11  2 14  5.0800000  0  4G 6G13G 9G11
  22498846.123    22498848.061    46311976.684 9 -41479448.030 9
  20514816.302    20514819.126   -13444232.629 9  14008769.088 8
  20083707.088    20083709.852    21308963.551 8 -61201745.057 7
  22599153.677    22599156.512    45229375.223 9 -42743838.431 9
 86  6 11  2 14 11.0800000  0  4G 6G13G 9G11
  22502646.105    22502649.196    46331950.622 9 -41463883.922 8
  20514130.690    20514133.067   -13447834.753 9  14005962.242 8
  20084671.453    20084673.043    21314030.455 7 -61197796.810 7
  22602209.989    22602212.042    45245435.343 9 -42731324.058 9
 86  6 11  2 14 17.0800000  0  4G 6G13G 9G11
  22506449.587    22506452.522    46351939.021 9 -41448308.568 8
  20513448.489    20513451.386   -13451418.111 9  14003170.022 9
  20085640.261    20085643.239    21319122.894 8 -61193828.697 6
  22605265.763    22605270.343    45261499.956 9 -42718806.182 9
 86  6 11  2 14 23.0800000  0  4G 6G13G 9G11
  22510256.523    22510259.366    46371941.804 9 -41432721.995 8
  20512770.523    20512773.750   -13454982.772 9  14000392.355 8
  20086614.900    20086616.096    21324240.725 8 -61189840.765 8
  22608324.444    22608327.209    45277569.100 9 -42706284.769 9
 86  6 11  2 14 29.0800000  0  4G 6G13G 9G11
  22514065.593    22514068.798    46391959.004 9 -41417124.193 9
  20512096.040    20512099.136   -13458528.730 9  13997629.268 8
  20087593.554    20087594.340    21329383.968 9 -61185833.051 7
  22611382.783    22611385.960    45293642.785 9 -42693759.823 9
 86  6 11  2 14 35.0800000  0  4G 6G13G 9G11
  22517877.120    22517880.736    46411990.579 9 -41401515.180 9
  20511425.057    20511426.918   -13462056.016 9  13994880.743 9
  20088576.977    20088578.146    21334552.789 9 -61181805.397 7
  22614442.420    22614445.122    45309720.964 9 -42681231.381 9
 86  6 11  2 14 41.0800000  0  4G 6G13G 9G11
  22521691.669    22521694.878    46432036.519 9 -41385894.986 8
  20510758.315    20510759.051   -13465564.687 9  13992146.720 9
  20089566.278    20089567.389    21339747.107 8 -61177757.887 8
  22617502.870    22617505.984    45325803.595 9 -42668699.465 9
 86  6 11  2 14 47.0800000  0  4G 6G13G 9G11
  22525509.852    22525512.370    46452096.786 9 -41370263.611 9
  20510093.333    20510094.790   -13469054.613 9  13989427.289 8
  20090558.248    20090560.403    21344966.782 8 -61173690.603 7
  22620563.897    22620568.111    45341890.656 9 -42656164.099 9
 86  6 11  2 14 53.0800000  0  4G 6G13G 9G11
  22529329.899    22529333.284    46472171.387 9 -41354621.076 8
  20509432.674    20509434.604   -13472525.832 9  13986722.448 8
  20091557.086    20091558.655    21350211.976 8 -61169603.440 8
  22623626.941    22623630.058    45357982.151 8 -42643625.283 9
 86  6 11  2 14 59.0800000  0  4G 6G13G 9G11
  22533152.072    22533155.541    46492260.303 9 -41338967.381 8
  20508775.021    20508777.749   -13475978.380 8  13984032.150 8
  20092560.618    20092561.073    21355482.684 8 -61165496.399 7
  22626688.358    22626692.671    45374078.066 9 -42631083.009 9
 86  6 11  2 15  5.0800000  0  4G 6G13G 9G11
  22536978.661    22536981.345    46512363.505 9 -41323302.561 9
  20508121.906    20508124.360   -13479412.280 9  13981356.382 8
  20093568.733    20093569.455    21360778.761 8 -61161369.595 8
  22629752.334    22629756.444    45390178.364 8 -42618537.337 9
 86  6 11  2 15 11.0800000  0  4G 6G13G 9G11
  22540807.147    22540809.522    46532480.943 9 -41307626.649 8
  20507471.807    20507474.671   -13482827.598 9  13978695.097 8
  20094581.307    20094582.233    21366100.333 8 -61157222.910 7
  22632817.902    22632820.632    45406283.056 9 -42605988.228 8
 86  6 11  2 15 17.0800000  0  4G 6G13G 9G11
  22544637.975    22544640.285    46552612.671 9 -41291939.594 9
  20506826.298    20506827.670   -13486224.350 9  13976048.274 8
  20095597.796    20095600.227    21371447.323 9 -61153056.430 8
  22635883.508    22635886.007    45422392.117 9 -42593435.709 8
 86  6 11  2 15 23.0800000  0  4G 6G13G 9G11
  22548470.848    22548474.774    46572758.630 9 -41276241.447 9
  20506182.264    20506184.749   -13489602.553 9  13973415.928 9
  20096620.175    20096621.995    21376819.832 8 -61148870.067 7
  22638948.680    22638952.979    45438505.486 9 -42580879.848 8
 86  6 11  2 15 29.0800000  0  4G 6G13G 9G11
  22552307.277    22552310.867    46592918.757 9 -41260532.274 9
  20505542.818    20505546.162   -13492962.168 8  13970798.036 8
  20097647.862    20097650.115    21382217.710 9 -61144663.925 8
  22642015.243    22642020.467    45454623.205 8 -42568320.596 9
 86  6 11  2 15 35.0800000  0  4G 6G13G 9G11
  22556145.996    22556149.228    46613093.091 9 -41244812.031 8
  20504907.003    20504910.267   -13496303.188 9  13968194.639 8
  20098679.824    20098681.665    21387641.039 8 -61140437.936 7
  22645083.460    22645087.900    45470745.283 9 -42555757.947 9
 86  6 11  2 15 41.0800000  0  4G 6G13G 9G11
  22559988.455    22559992.066    46633281.569 9 -41229080.751 9
  20504275.435    20504277.534   -13499625.624 9  13965605.735 8
  20099717.069    20099718.540    21393089.846 9 -61136192.128 7
  22648153.057    22648156.764    45486871.663 9 -42543191.935 9
 86  6 11  2 15 47.0800000  0  4G 6G13G 9G11
  22563832.125    22563835.437    46653484.244 9 -41213338.434 9
  20503645.683    20503648.504   -13502929.472 8  13963031.319 8
  20100758.015    20100759.677    21398564.098 8 -61131926.480 7
  22651222.607    22651225.804    45503002.308 9 -42530622.614 9
 86  6 11  2 15 53.0800000  0  4G 6G13G 9G11
  22567679.201    22567683.033    46673701.034 9 -41197585.100 9
  20503021.347    20503023.386   -13506214.725 9  13960471.384 8
  20101804.896    20101805.153    21404063.720 8 -61127641.071 7
  22654292.793    22654296.712    45519137.183 8 -42518049.984 8
 86  6 11  2 15 59.0800000  0  4G 6G13G 9G11
  22571529.354    22571531.908    46693931.963 9 -41181820.754 8
  20502399.296    20502401.627   -13509481.415 9  13957925.895 8
  20102857.089    20102856.614    21409588.876 8 -61123335.743 7
  22657364.456    22657367.654    45535276.334 9 -42505474.026 9
 86  6 11  2 16  5.0800000  0  4G 6G13G 9G11
  22575382.129    22575384.373    46714176.935 9 -41166045.448 9
  20501781.606    20501783.784   -13512729.641 9  13955394.816 8
  20103912.161    20103913.091    21415139.464 9 -61119010.628 7
  22660436.079    22660438.958    45551419.754 9 -42492894.740 8
 86  6 11  2 16 11.0800000  0  4G 6G13G 9G11
  22579237.062    22579239.186    46734436.050 9 -41150259.136 9
  20501167.567    20501169.681   -13515959.340 9  13952878.172 8
  20104972.818    20104975.685    21420715.508 8 -61114665.664 7
  22663509.304    22663512.121    45567567.378 9 -42480312.190 8
 86  6 11  2 16 17.0800000  0  4G 6G13G 9G11
  22583095.703    22583097.603    46754709.183 9 -41134461.901 8
  20500555.932    20500558.644   -13519170.470 9  13950375.989 8
  20106039.109    20106039.521    21426316.928 8 -61110300.901 7
  22666582.878    22666585.349    45583719.155 9 -42467726.393 9
 86  6 11  2 16 23.0800000  0  4G 6G13G 9G11
  22586955.870    22586958.398    46774996.363 9 -41118653.715 9
  20499949.168    20499950.093   -13522363.043 9  13947888.277 8
  20107110.745    20107111.721    21431943.781 9 -61105916.357 7
  22669657.082    22669660.398    45599875.118 9 -42455137.336 9
 86  6 11  2 16 29.0800000  0  4G 6G13G 9G11
  22590818.395    22590822.150    46795297.548 9 -41102834.609 9
  20499345.265    20499346.789   -13525537.073 8  13945415.004 8
  20108185.347    20108187.019    21437596.193 8 -61101511.870 8
  22672732.529    22672735.729    45616035.261 8 -42442545.021 9
 86  6 11  2 16 35.0800000  0  4G 6G13G 9G11
  22594685.074    22594687.641    46815612.781 8 -41087004.572 9
  20498744.912    20498746.127   -13528692.596 9  13942956.150 7
  20109267.505    20109268.241    21443273.922 8 -61097087.682 8
  22675808.067    22675811.175    45632199.504 8 -42429949.514 9
 86  6 11  2 16 41.0800000  0  4G 6G13G 9G11
  22598553.372    22598555.780    46835941.927 9 -41071163.684 8
  20498147.875    20498148.804   -13531829.668 9  13940511.678 8
  20110352.572    20110352.730    21448977.129 8 -61092643.619 8
  22678885.728    22678888.215    45648367.870 9 -42417350.776 9
 86  6 11  2 16 47.0800000  0  4G 6G13G 9G11
  22602424.270    22602427.081    46856285.099 9 -41055311.875 9
  20497553.573    20497555.526   -13534948.263 9  13938081.602 8
  20111441.366    20111441.875    21454705.783 8 -61088179.744 7
  22681963.251    22681965.088    45664540.381 8 -42404748.823 9
 86  6 11  2 16 53.0800000  0  4G 6G13G 9G11
  22606298.664    22606300.757    46876642.169 9 -41039449.235 9
  20496964.105    20496965.418   -13538048.400 9  13935665.921 8
  20112536.735    20112537.158    21460459.897 8 -61083696.012 8
  22685041.943    22685043.858    45680717.027 9 -42392143.662 9
 86  6 11  2 16 59.0800000  0  4G 6G13G 9G11
  22610174.856    22610178.540    46897013.198 9 -41023575.725 9
  20496377.595    20496379.005   -13541129.981 8  13933264.686 7
  20113636.378    20113636.783    21466239.350 8 -61079192.532 7
  22688120.313    22688123.145    45696897.725 9 -42379535.315 9
 86  6 11  2 17  5.0800000  0  4G 6G13G 9G11
  22614053.633    22614055.969    46917398.121 9 -41007691.388 9
  20495794.616    20495796.910   -13544193.058 9  13930877.874 7
  20114741.891    20114741.744    21472044.266 9 -61074669.223 7
  22691200.912    22691203.333    45713082.448 9 -42366923.856 8
 86  6 11  2 17 11.0800000  0  4G 6G13G 9G11
  22617936.366    22617938.842    46937796.942 9 -40991796.206 9
  20495215.258    20495216.307   -13547237.677 9  13928505.436 8
  20115851.454    20115851.106    21477874.582 8 -61070126.133 8
  22694280.965    22694283.077    45729271.235 9 -42354309.221 9
 86  6 11  2 17 17.0800000  0  4G 6G13G 9G11
  22621820.613    22621822.933    46958209.632 9 -40975890.222 9
  20494639.090    20494641.338   -13550263.898 9  13926147.342 8
  20116964.402    20116965.528    21483730.350 8 -61065563.195 8
  22697361.797    22697363.912    45745464.070 9 -42341691.439 8
 86  6 11  2 17 23.0800000  0  4G 6G13G 9G11
  22625706.855    22625711.072    46978636.183 9 -40959973.447 9
  20494067.841    20494067.959   -13553271.709 9  13923803.597 8
  20118084.087    20118085.505    21489611.525 8 -61060980.462 8
  22700444.523    22700447.477    45761660.901 8 -42329070.530 9
 86  6 11  2 17 29.0800000  0  4G 6G13G 9G11
  22629597.029    22629600.120    46999076.575 9 -40944045.891 9
  20493498.114    20493499.448   -13556261.080 9  13921474.212 8
  20119207.322    20119208.308    21495518.114 7 -61056377.928 8
  22703527.227    22703529.789    45777861.722 9 -42316446.519 9
 86  6 11  2 17 35.0800000  0  4G 6G13G 9G11
  22633489.710    22633491.082    47019530.775 9 -40928107.560 8
  20492933.763    20492934.196   -13559232.064 9  13919159.167 8
  20120337.138    20120336.720    21501450.196 8 -61051755.524 7
  22706610.560    22706613.609    45794066.530 9 -42303819.404 9
 86  6 11  2 17 41.0800000  0  4G 6G13G 9G11
  22637384.190    22637386.997    47039998.746 9 -40912158.497 9
  20492371.806    20492372.304   -13562184.642 9  13916858.454 9
  20121470.961    20121471.648    21507407.653 9 -61047113.357 7
  22709695.118    22709698.132    45810275.291 9 -42291189.205 9
 86  6 11  2 17 47.0800000  0  4G 6G13G 9G11
  22641281.012    22641284.313    47060480.561 9 -40896198.657 9
  20491811.916    20491814.264   -13565118.833 9  13914572.080 9
  20122609.247    20122609.161    21513390.509 8 -61042451.402 7
  22712780.260    22712782.779    45826487.972 9 -42278555.949 9
 86  6 11  2 17 53.0800000  0  4G 6G13G 9G11
  22645181.776    22645185.273    47080976.089 9 -40880228.130 9
  20491257.524    20491259.127   -13568034.555 9  13912300.078 8
  20123752.400    20123753.591    21519398.751 9 -61037769.651 7
  22715866.261    22715868.946    45842704.584 9 -42265919.638 9
 86  6 11  2 17 59.0800000  0  4G 6G13G 9G11
  22649085.360    22649087.040    47101485.360 9 -40864246.884 9
  20490706.653    20490707.633   -13570931.868 9  13910042.432 8
  20124900.367    20124901.602    21525432.445 8 -61033068.064 8
  22718953.114    22718955.579    45858925.126 8 -42253280.263 9
 86  6 11  2 18  5.0800000  0  4G 6G13G 9G11
  22652989.872    22652992.888    47122008.348 9 -40848254.956 9
  20490159.295    20490160.846   -13573810.777 8  13907799.144 8
  20126053.414    20126054.278    21531491.474 8 -61028346.748 8
  22722040.259    22722042.401    45875149.597 9 -42240637.824 9
 86  6 11  2 18 11.0800000  0  4G 6G13G 9G11
  22656898.498    22656900.750    47142545.038 8 -40832252.348 8
  20489615.467    20489616.149   -13576671.366 9  13905570.090 9
  20127211.544    20127212.242    21537575.962 9 -61023605.592 7
  22725128.938    22725130.989    45891377.899 9 -42227992.397 9
 86  6 11  2 18 17.0800000  0  4G 6G13G 9G11
  22660809.682    22660811.144    47163095.416 9 -40816239.082 9
  20489073.686    20489076.165   -13579513.519 9  13903355.434 9
  20128374.269    20128375.842    21543685.908 8 -61018844.602 7
  22728217.733    22728219.983    45907610.111 9 -42215343.922 9
 86  6 11  2 18 23.0800000  0  4G 6G13G 9G11
  22664723.099    22664724.906    47183659.480 9 -40800215.153 8
  20488536.438    20488536.864   -13582337.346 9  13901155.051 7
  20129542.722    20129543.415    21549821.266 8 -61014063.810 8
  22731307.768    22731310.508    45923846.177 9 -42202692.447 9
 86  6 11  2 18 29.0800000  0  4G 6G13G 9G11
  22668638.426    22668640.846    47204237.127 9 -40784180.629 9
  20488002.767    20488003.017   -13585142.805 9  13898968.980 9
  20130715.226    20130714.649    21555981.995 9 -61009263.252 8
  22734397.626    22734400.154    45940086.132 9 -42190037.947 9
 86  6 11  2 18 35.0800000  0  4G 6G13G 9G11
  22672556.781    22672558.927    47224828.432 9 -40768135.471 9
  20487471.783    20487473.576   -13587929.913 9  13896797.204 8
  20131891.384    20131892.417    21562168.105 8 -61004442.902 7
  22737488.120    22737490.508    45956329.871 9 -42177380.483 9
 86  6 11  2 18 41.0800000  0  4G 6G13G 9G11
  22676477.635    22676480.108    47245433.339 9 -40752079.703 8
  20486944.423    20486946.610   -13590698.819 9  13894639.612 9
  20133074.297    20133075.147    21568379.624 8 -60999602.749 7
  22740580.691    22740583.600    45972577.422 9 -42164720.062 9
 86  6 11  2 18 47.0800000  0  4G 6G13G 9G11
  22680401.509    22680404.306    47266051.832 9 -40736013.365 9
  20486421.463    20486423.689   -13593449.435 9  13892496.289 7
  20134259.871    20134262.522    21574616.540 9 -60994742.828 7
  22743673.228    22743674.795    45988828.787 9 -42152056.661 9
 86  6 11  2 18 53.0800000  0  4G 6G13G 9G11
  22684326.002    22684330.462    47286683.881 9 -40719936.457 8
  20485901.414    20485903.502   -13596181.714 9  13890367.245 8
  20135451.887    20135453.441    21580878.761 8 -60989863.163 8
  22746765.862    22746769.283    46005083.902 9 -42139390.339 9
 86  6 11  2 18 59.0800000  0  4G 6G13G 9G11
  22688256.177    22688259.024    47307329.450 9 -40703849.006 8
  20485384.391    20485387.353   -13598895.700 8  13888252.446 8
  20136649.642    20136649.856    21587166.418 8 -60984963.708 8
  22749859.945    22749863.102    46021342.750 9 -42126721.123 9
 86  6 11  2 19  5.0800000  0  4G 6G13G 9G11
  22692186.556    22692190.070    47327988.553 8 -40687751.021 8
  20484872.243    20484874.283   -13601591.459 9  13886151.855 8
  20137849.324    20137850.993    21593479.448 8 -60980044.474 8
  22752954.296    22752957.450    46037605.311 8 -42114049.001 9
 86  6 11  2 19 11.0800000  0  4G 6G13G 9G11
  22696121.334    22696123.327    47348661.182 9 -40671642.495 9
  20484361.801    20484364.370   -13604268.958 9  13884065.499 9
  20139056.611    20139058.312    21599817.845 8 -60975105.449 6
  22756050.485    22756053.325    46053871.589 9 -42101373.977 9
 86  6 11  2 19 17.0800000  0  4G 6G13G 9G11
  22700056.890    22700060.361    47369347.273 9 -40655523.459 8
  20483856.313    20483858.778   -13606928.218 9  13881993.344 8
  20140266.547    20140266.708    21606181.629 8 -60970146.661 6
  22759145.380    22759148.886    46070141.548 8 -42088696.102 8
 86  6 11  2 19 23.0800000  0  4G 6G13G 9G11
  22703995.626    22703999.559    47390046.872 9 -40639393.927 8
  20483353.887    20483356.259   -13609569.178 9  13879935.452 9
  20141482.619    20141483.613    21612570.754 9 -60965168.133 7
  22762243.400    22762245.622    46086415.183 8 -42076015.355 9
 86  6 11  2 19 29.0800000  0  4G 6G13G 9G11
  22707936.839    22707940.492    47410759.915 8 -40623253.909 8
  20482854.382    20482857.535   -13612191.877 9  13877891.799 8
  20142704.205    20142705.079    21618985.278 8 -60960169.798 7
  22765339.571    22765342.918    46102692.462 8 -42063331.763 9
 86  6 11  2 19 35.0800000  0  4G 6G13G 9G11
  22711881.847    22711885.332    47431486.342 9 -40607103.454 9
  20482358.321    20482360.320   -13614796.321 9  13875862.363 8
  20143929.520    20143930.407    21625425.186 8 -60955151.704 6
  22768438.434    22768441.957    46118973.418 8 -42050645.310 9
 86  6 11  2 19 41.0800000  0  4G 6G13G 9G11
  22715828.482    22715832.112    47452226.210 9 -40590942.524 8
  20481866.416    20481868.974   -13617382.615 9  13873847.076 9
  20145160.333    20145160.814    21631890.433 9 -60950113.848 7
  22771537.582    22771541.059    46135257.997 9 -42037956.027 9
 86  6 11  2 19 47.0800000  0  4G 6G13G 9G11
  22719776.375    22719781.655    47472979.455 9 -40574771.185 9
  20481378.087    20481380.801   -13619950.686 9  13871845.983 9
  20146395.271    20146394.619    21638380.951 9 -60945056.298 8
  22774637.095    22774640.928    46151546.217 9 -42025263.920 9
 86  6 11  2 19 53.0800000  0  4G 6G13G 9G11
  22723729.817    22723733.274    47493746.042 9 -40558589.440 9
  20480892.776    20480894.549   -13622500.614 9  13869859.031 9
  20147634.344    20147636.429    21644896.939 9 -60939978.914 7
  22777738.046    22777741.218    46167838.045 9 -42012568.998 9
 86  6 11  2 19 59.0800000  0  4G 6G13G 9G11
  22727684.424    22727686.961    47514526.031 8 -40542397.250 9
  20480411.409    20480413.490   -13625032.331 9  13867886.257 9
  20148880.446    20148880.393    21651438.252 8 -60934881.779 8
  22780838.208    22780840.950    46184133.479 9 -41999871.260 9
 86  6 11  2 20  5.0800000  0  4G 6G13G 9G11
  22731640.731    22731643.853    47535319.319 9 -40526194.699 8
  20479932.588    20479934.530   -13627545.842 9  13865927.688 8
  20150129.075    20150130.525    21658004.906 9 -60929764.916 7
  22783940.440    22783943.617    46200432.460 9 -41987170.757 9
 86  6 11  2 20 11.0800000  0  4G 6G13G 9G11
  22735600.600    22735603.178    47556125.945 8 -40509981.745 9
  20479457.277    20479459.875   -13630041.192 9  13863983.252 8
  20151383.535    20151384.527    21664596.931 8 -60924628.278 7
  22787041.448    22787045.230    46216735.030 9 -41974467.456 9
 86  6 11  2 20 17.0800000  0  4G 6G13G 9G11
  22739562.443    22739565.214    47576945.837 9 -40493758.473 9
  20478986.586    20478989.595   -13632518.345 9  13862053.004 8
  20152643.547    20152644.337    21671214.324 8 -60919471.863 7
  22790144.683    22790148.770    46233041.120 8 -41961761.429 9
 86  6 11  2 20 23.0800000  0  4G 6G13G 9G11
  22743526.895    22743529.123    47597779.064 9 -40477524.800 9
  20478518.763    20478519.377   -13634977.402 9  13860136.860 8
  20153907.906    20153909.327    21677857.042 9 -60914295.722 7
  22793248.621    22793252.606    46249350.780 9 -41949052.613 9
 86  6 11  2 20 29.0800000  0  4G 6G13G 9G11
  22747492.872    22747496.560    47618625.517 9 -40461280.815 9
  20478053.500    20478056.010   -13637418.339 9  13858234.824 7
  20155175.548    20155176.804    21684525.096 9 -60909099.837 8
  22796352.663    22796355.460    46265663.889 9 -41936341.093 9
 86  6 11  2 20 35.0800000  0  4G 6G13G 9G11
  22751462.528    22751465.396    47639485.212 8 -40445026.533 9
  20477592.794    20477594.888   -13639841.123 9  13856346.953 8
  20156449.028    20156450.608    21691218.464 7 -60903884.237 7
  22799457.580    22799461.118    46281980.506 9 -41923626.855 8
 86  6 11  2 20 41.0800000  0  4G 6G13G 9G11
  22755434.334    22755437.750    47660358.111 8 -40428761.953 8
  20477135.713    20477136.704   -13642245.766 8  13854473.202 8
  20157727.850    20157728.671    21697937.191 9 -60898648.879 7
  22802562.755    22802566.811    46298300.609 9 -41910909.888 9
 86  6 11  2 20 47.0800000  0  4G 6G13G 9G11
  22759408.116    22759411.983    47681244.208 9 -40412487.089 9
  20476680.788    20476683.430   -13644632.273 9  13852613.584 8
  20159011.604    20159012.111    21704681.251 8 -60893393.746 8
  22805669.441    22805672.996    46314624.204 9 -41898190.220 9
 86  6 11  2 20 53.0800000  0  4G 6G13G 9G11
  22763386.746    22763390.137    47702143.503 9 -40396201.934 8
  20476230.508    20476233.228   -13647000.635 9  13850768.107 8
  20160299.785    20160300.811    21711450.693 8 -60888118.867 8
  22808775.056    22808780.071    46330951.224 9 -41885467.864 9
 86  6 11  2 20 59.0800000  0  4G 6G13G 9G11
  22767366.839    22767369.370    47723055.952 9 -40379906.529 9
  20475783.768    20475785.579   -13649350.838 9  13848936.777 8
  20161591.867    20161593.500    21718245.402 9 -60882824.280 8
  22811884.072    22811887.649    46347281.666 9 -41872742.848 9
 86  6 11  2 21  5.0800000  0  4G 6G13G 9G11
  22771348.703    22771350.384    47743981.539 9 -40363600.891 8
  20475339.039    20475340.897   -13651682.941 9  13847119.551 8
  20162889.062    20162892.332    21725065.507 9 -60877509.927 8
  22814991.667    22814996.336    46363615.566 9 -41860015.134 9
 86  6 11  2 21 11.0800000  0  4G 6G13G 9G11
  22775332.857    22775335.585    47764920.220 9 -40347285.048 8
  20474899.262    20474901.745   -13653997.041 9  13845316.362 8
  20164192.317    20164194.593    21731910.856 8 -60872175.891 8
  22818100.850    22818104.513    46379952.838 9 -41847284.818 9
 86  6 11  2 21 17.0800000  0  4G 6G13G 9G11
  22779320.178    22779323.218    47785871.980 9 -40330959.021 9
  20474462.235    20474464.030   -13656293.089 9  13843527.231 8
  20165500.044    20165500.908    21738781.487 8 -60866822.165 8
  22821210.889    22821214.622    46396293.489 9 -41834551.837 9
 86  6 11  2 21 23.0800000  0  4G 6G13G 9G11
  22783308.825    22783312.075    47806836.816 9 -40314622.793 9
  20474028.790    20474031.027   -13658571.053 8  13841752.199 8
  20166812.158    20166812.983    21745677.367 8 -60861448.746 7
  22824320.849    22824323.909    46412637.508 9 -41821816.247 8
 86  6 11  2 21 29.0800000  0  4G 6G13G 9G11
  22787300.722    22787303.356    47827814.761 9 -40298276.353 9
  20473599.688    20473601.169   -13660830.889 8  13839991.290 8
  20168130.570    20168131.811    21752598.655 8 -60856055.536 7
  22827431.954    22827435.463    46428984.907 9 -41809078.013 8
 86  6 11  2 21 35.0800000  0  4G 6G13G 9G11
  22791295.247    22791298.064    47848805.718 9 -40281919.773 9
  20473173.361    20473174.943   -13663072.692 9  13838244.427 8
  20169451.881    20169453.083    21759545.157 9 -60850642.676 8
  22830542.749    22830547.045    46445335.697 9 -41796337.139 9
 86  6 11  2 21 41.0800000  0  4G 6G13G 9G11
  22795291.902    22795295.643    47869809.698 9 -40265553.040 8
  20472749.413    20472751.025   -13665296.463 9  13836511.628 8
  20170779.145    20170779.269    21766516.963 9 -60845210.105 8
  22833654.604    22833659.321    46461689.797 9 -41783593.699 9
 86  6 11  2 21 47.0800000  0  4G 6G13G 9G11
  22799291.215    22799295.600    47890826.735 9 -40249176.144 8
  20472330.603    20472331.301   -13667502.195 9  13834792.873 7
  20172108.622    20172110.090    21773514.113 9 -60839757.785 8
  22836767.214    22836771.592    46478047.215 8 -41770847.659 9
 86  6 11  2 21 53.0800000  0  4G 6G13G 9G11
  22803294.334    22803296.172    47911856.716 8 -40232789.162 9
  20471913.286    20471915.632   -13669689.935 9  13833088.142 8
  20173445.520    20173448.043    21780536.586 8 -60834285.725 7
  22839881.723    22839884.357    46494407.940 8 -41758099.053 9
 86  6 11  2 21 59.0800000  0  4G 6G13G 9G11
  22807297.621    22807300.316    47932899.663 9 -40216392.058 8
  20471500.079    20471501.031   -13671859.704 9  13831397.412 8
  20174787.617    20174788.528    21787584.343 8 -60828793.979 8
  22842995.375    22842998.890    46510771.892 9 -41745347.927 9
 86  6 11  2 22  5.0800000  0  4G 6G13G 9G11
  22811304.097    22811308.336    47953955.564 9 -40199984.884 9
  20471091.434    20471092.005   -13674011.550 9  13829720.644 8
  20176133.082    20176134.422    21794657.392 9 -60823282.507 7
  22846109.971    22846113.592    46527139.114 9 -41732594.251 9
 86  6 11  2 22 11.0800000  0  4G 6G13G 9G11
  22815315.409    22815316.803    47975024.374 9 -40183567.642 8
  20470685.571    20470686.527   -13676145.482 9  13828057.850 9
  20177483.892    20177483.927    21801755.679 8 -60817751.379 7
  22849225.569    22849228.580    46543509.615 9 -41719838.036 9
 86  6 11  2 22 17.0800000  0  4G 6G13G 9G11
  22819325.208    22819328.632    47996106.124 9 -40167140.316 8
  20470282.565    20470284.394   -13678261.433 9  13826409.063 8
  20178839.256    20178840.144    21808879.301 9 -60812200.509 8
  22852341.356    22852344.435    46559883.339 9 -41707079.291 8
 86  6 11  2 22 23.0800000  0  4G 6G13G 9G11
  22823339.902    22823342.163    48017200.737 9 -40150702.961 9
  20469883.458    20469884.283   -13680359.383 9  13824774.297 7
  20180200.337    20180200.353    21816028.110 8 -60806630.013 9
  22855457.508    22855460.849    46576260.342 9 -41694318.004 9
 86  6 11  2 22 29.0800000  0  4G 6G13G 9G11
  22827356.513    22827359.460    48038308.164 8 -40134255.618 9
  20469487.092    20469488.803   -13682439.403 9  13823153.496 8
  20181565.385    20181566.194    21823202.192 8 -60801039.834 8
  22858575.281    22858577.854    46592640.521 8 -41681554.229 9
 86  6 11  2 22 35.0800000  0  4G 6G13G 9G11
  22831375.323    22831378.231    48059428.503 9 -40117798.218 8
  20469094.277    20469097.106   -13684501.459 9  13821546.700 8
  20182934.682    20182935.250    21830401.606 9 -60795429.892 8
  22861693.454    22861695.587    46609023.842 9 -41668788.005 9
 86  6 11  2 22 41.0800000  0  4G 6G13G 9G11
  22835397.817    22835400.067    48080561.602 9 -40101330.884 8
  20468705.405    20468707.002   -13686545.608 9  13819953.853 8
  20184310.634    20184310.918    21837626.302 8 -60789800.267 8
  22864810.986    22864813.769    46625410.293 9 -41656019.353 9
 86  6 11  2 22 47.0800000  0  4G 6G13G 9G11
  22839421.263    22839423.910    48101707.561 9 -40084853.520 8
  20468320.322    20468321.818   -13688571.893 8  13818374.939 9
  20185689.868    20185690.100    21844876.165 8 -60784151.020 7
  22867930.344    22867932.306    46641799.962 8 -41643248.194 9
 86  6 11  2 22 53.0800000  0  4G 6G13G 9G11
  22843448.025    22843450.014    48122866.245 9 -40068366.246 8
  20467937.813    20467940.853   -13690580.198 8  13816810.027 7
  20187074.134    20187075.206    21852151.277 8 -60778482.123 8
  22871049.394    22871051.135    46658192.726 9 -41630474.616 9
 86  6 11  2 22 59.0800000  0  4G 6G13G 9G11
  22847476.349    22847479.368    48144037.686 9 -40051869.018 9
  20467558.417    20467560.616   -13692570.584 9  13815259.084 8
  20188462.145    20188464.202    21859451.646 8 -60772793.513 8
  22874169.576    22874171.455    46674588.560 8 -41617698.644 9
 86  6 11  2 23  5.0800000  0  4G 6G13G 9G11
  22851507.322    22851510.320    48165221.865 9 -40035361.881 9
  20467183.625    20467185.168   -13694543.118 9  13813722.045 9
  20189857.444    20189858.083    21866777.227 8 -60767085.270 7
  22877290.285    22877292.091    46690987.518 9 -41604920.248 9
 86  6 11  2 23 11.0800000  0  4G 6G13G 9G11
  22855541.803    22855544.392    48186418.798 9 -40018844.805 9
  20466810.819    20466814.713   -13696497.693 9  13812198.995 8
  20191257.054    20191255.537    21874128.052 8 -60761357.365 8
  22880410.610    22880413.024    46707389.580 9 -41592139.430 8
 86  6 11  2 23 17.0800000  0  4G 6G13G 9G11
  22859577.044    22859581.187    48207628.398 9 -40002317.850 8
  20466443.310    20466445.199   -13698434.427 9  13810689.857 9
  20192658.268    20192662.008    21881504.167 8 -60755609.745 8
  22883532.092    22883534.868    46723794.718 8 -41579356.202 8
 86  6 11  2 23 23.0800000  0  4G 6G13G 9G11
  22863615.266    22863619.734    48228850.705 9 -39985780.998 8
  20466077.850    20466080.009   -13700353.294 9  13809194.627 8
  20194067.360    20194068.745    21888905.394 8 -60749842.563 8
  22886654.998    22886656.531    46740202.911 8 -41566570.610 9
 86  6 11  2 23 29.0800000  0  4G 6G13G 9G11
  22867656.173    22867659.446    48250085.696 9 -39969234.270 8
  20465716.544    20465717.789   -13702254.416 9  13807713.256 8
  20195479.068    20195482.493    21896331.924 7 -60744055.650 8
  22889778.821    22889780.606    46756614.167 8 -41553782.629 9
 86  6 11  2 23 35.0800000  0  4G 6G13G 9G11
  22871700.429    22871702.907    48271333.335 9 -39952677.686 9
  20465358.215    20465359.471   -13704137.659 9  13806245.783 8
  20196899.703    20196900.201    21903783.636 8 -60738249.124 7
  22892901.780    22892903.726    46773028.440 8 -41540992.283 9
 86  6 11  2 23 41.0800000  0  4G 6G13G 9G11
  22875745.630    22875748.825    48292593.543 9 -39936111.287 9
  20465002.966    20465004.240   -13706003.114 9  13804792.179 7
  20198322.879    20198322.607    21911260.568 9 -60732422.964 8
  22896026.094    22896027.832    46789445.719 9 -41528199.613 8
 86  6 11  2 23 47.0800000  0  4G 6G13G 9G11
  22879794.187    22879796.266    48313866.385 9 -39919535.066 9
  20464651.937    20464652.082   -13707850.756 8  13803352.468 8
  20199749.725    20199750.306    21918762.684 8 -60726577.154 8
  22899149.482    22899152.805    46805866.024 8 -41515404.580 9
 86  6 11  2 23 53.0800000  0  4G 6G13G 9G11
  22883844.260    22883847.133    48335151.827 9 -39902949.023 8
  20464303.260    20464304.104   -13709680.558 9  13801926.642 9
  20201181.673    20201182.796    21926290.040 9 -60720711.681 8
  22902274.896    22902277.973    46822289.291 9 -41502607.229 9
 86  6 11  2 23 59.0800000  0  4G 6G13G 9G11
  22887898.026    22887900.847    48356449.845 9 -39886353.175 9
  20463958.234    20463960.159   -13711492.586 9  13800514.669 9
  20202618.211    20202619.467    21933842.523 8 -60714826.631 8
  22905401.379    22905403.779    46838715.535 9 -41489807.564 9
 86  6 11  2 24  5.0800000  0  4G 6G13G 9G11
  22891952.266    22891956.413    48377760.379 9 -39869747.571 9
  20463616.703    20463618.440   -13713286.837 9  13799116.550 8
  20204061.218    20204062.460    21941420.216 8 -60708921.940 9
  22908527.790    22908530.775    46855144.744 9 -41477005.589 8
 86  6 11  2 24 11.0800000  0  4G 6G13G 9G11
  22896010.655    22896013.268    48399083.436 9 -39853132.208 9
  20463278.494    20463280.053   -13715063.315 9  13797732.288 9
  20205508.041    20205509.360    21949023.104 8 -60702997.611 8
  22911654.760    22911657.285    46871576.922 9 -41464201.295 8
 86  6 11  2 24 17.0800000  0  4G 6G13G 9G11
  22900070.492    22900073.014    48420419.028 9 -39836507.083 9
  20462943.771    20462945.822   -13716822.012 9  13796361.877 8
  20206959.698    20206960.174    21956651.191 7 -60697053.655 8
  22914782.841    22914784.693    46888012.047 9 -41451394.710 8
 86  6 11  2 24 23.0800000  0  4G 6G13G 9G11
  22904132.770    22904134.196    48441767.080 9 -39819872.240 9
  20462613.122    20462615.196   -13718562.928 9  13795005.320 8
  20208416.251    20208417.692    21964304.406 8 -60691090.110 8
  22917910.373    22917913.441    46904450.092 8 -41438585.841 9
 86  6 11  2 24 29.0800000  0  4G 6G13G 9G11
  22908197.475    22908199.566    48463127.579 8 -39803227.705 8
  20462285.103    20462286.721   -13720286.145 9  13793662.550 9
  20209876.714    20209878.016    21971982.772 8 -60685106.995 9
  22921038.563    22921042.063    46920890.995 9 -41425774.748 8
 86  6 11  2 24 35.0800000  0  4G 6G13G 9G11
  22912265.215    22912266.930    48484500.483 9 -39786573.508 9
  20461960.767    20461962.411   -13721991.656 9  13792333.585 8
  20211343.246    20211344.418    21979686.313 8 -60679104.216 8
  22924168.040    22924171.418    46937334.738 9 -41412961.455 9
 86  6 11  2 24 41.0800000  0  4G 6G13G 9G11
  22916335.334    22916336.022    48505885.844 9 -39769909.594 9
  20461639.065    20461640.998   -13723679.485 9  13791018.386 8
  20212813.467    20212813.400    21987415.002 9 -60673081.866 7
  22927296.831    22927300.183    46953781.368 8 -41400145.904 9
 86  6 11  2 24 47.0800000  0  4G 6G13G 9G11
  22920405.506    22920408.361    48527283.614 9 -39753236.019 8
  20461321.232    20461323.407   -13725349.631 9  13789716.974 8
  20214288.487    20214291.116    21995168.914 8 -60667039.861 7
  22930428.358    22930431.363    46970230.802 8 -41387328.161 8
 86  6 11  2 24 53.0800000  0  4G 6G13G 9G11
  22924479.345    22924482.885    48548693.790 9 -39736552.774 8
  20461006.602    20461008.538   -13727001.985 9  13788429.432 8
  20215769.107    20215769.952    22002947.956 7 -60660978.261 9
  22933558.162    22933561.765    46986683.075 9 -41374508.211 9
 86  6 11  2 24 59.0800000  0  4G 6G13G 9G11
  22928555.842    22928560.682    48570116.293 9 -39719859.925 9
  20460695.893    20460697.332   -13728636.680 9  13787155.646 7
  20217254.410    20217255.122    22010752.149 8 -60654897.078 8
  22936689.270    22936692.612    47003138.185 8 -41361686.048 9
 86  6 11  2 25  5.0800000  0  4G 6G13G 9G11
  22932635.311    22932639.180    48591551.149 9 -39703157.452 8
  20460388.026    20460389.246   -13730253.624 9  13785895.688 8
  20218743.959    20218745.587    22018581.462 8 -60648796.322 8
  22939821.289    22939824.269    47019596.065 9 -41348861.724 9
 86  6 11  2 25 11.0800000  0  4G 6G13G 9G11
  22936716.505    22936720.524    48612998.342 9 -39686445.370 9
  20460084.099    20460085.557   -13731852.897 9  13784649.507 8
  20220238.278    20220240.077    22026435.986 9 -60642675.904 7
  22942952.008    22942956.791    47036056.759 8 -41336035.215 9
 86  6 11  2 25 17.0800000  0  4G 6G13G 9G11
  22940799.678    22940803.824    48634457.829 9 -39669723.697 9
  20459782.974    20459783.878   -13733434.540 9  13783417.047 8
  20221738.093    20221739.700    22034315.566 8 -60636535.996 8
  22946085.533    22946089.857    47052520.270 9 -41323206.513 9
 86  6 11  2 25 23.0800000  0  4G 6G13G 9G11
  22944886.784    22944890.281    48655929.624 9 -39652992.437 8
  20459484.736    20459486.889   -13734998.532 9  13782198.357 9
  20223243.000    20223242.795    22042220.256 9 -60630376.492 8
  22949219.446    22949223.614    47068986.508 8 -41310375.682 9
 86  6 11  2 25 29.0800000  0  4G 6G13G 9G11
  22948974.834    22948977.369    48677413.683 9 -39636251.626 8
  20459192.375    20459192.555   -13736544.915 9  13780993.389 8
  20224750.969    20224752.580    22050150.088 9 -60624197.411 9
  22952353.451    22952357.873    47085455.487 9 -41297542.717 9
 86  6 11  2 25 35.0800000  0  4G 6G13G 9G11
  22953065.039    22953069.236    48698910.018 9 -39619501.247 8
  20458901.509    20458901.919   -13738073.621 9  13779802.187 9
  20226265.004    20226266.634    22058105.011 8 -60617998.767 7
  22955487.754    22955492.339    47101927.173 8 -41284707.646 9
 86  6 11  2 25 41.0800000  0  4G 6G13G 9G11
  22957158.858    22957160.383    48720418.553 9 -39602741.358 8
  20458613.600    20458614.247   -13739584.824 9  13778624.628 8
  20227784.098    20227784.782    22066085.020 9 -60611780.579 8
  22958622.498    22958626.811    47118401.560 9 -41271870.470 8
 86  6 11  2 25 47.0800000  0  4G 6G13G 9G11
  22961253.993    22961256.919    48741939.270 9 -39585971.976 8
  20458328.822    20458329.132   -13741078.432 9  13777460.783 8
  20229307.445    20229309.223    22074090.147 7 -60605542.824 8
  22961758.678    22961763.426    47134878.662 8 -41259031.175 9
 86  6 11  2 25 53.0800000  0  4G 6G13G 9G11
  22965351.398    22965353.876    48763472.141 9 -39569193.124 9
  20458047.679    20458048.834   -13742554.430 8  13776310.659 7
  20230835.412    20230838.071    22082120.423 8 -60599285.476 8
  22964894.136    22964899.085    47151358.459 9 -41246189.782 9
 86  6 11  2 25 59.0800000  0  4G 6G13G 9G11
  22969451.296    22969454.050    48785017.237 9 -39552404.755 8
  20457770.132    20457771.623   -13744012.823 9  13775174.249 8
  20232367.717    20232370.904    22090175.808 9 -60593008.555 8
  22968030.476    22968035.488    47167840.927 8 -41233346.306 9
 86  6 11  2 26  5.0800000  0  4G 6G13G 9G11
  22973554.236    22973556.446    48806574.405 9 -39535606.971 8
  20457496.084    20457497.281   -13745453.693 9  13774051.490 8
  20233905.410    20233907.310    22098256.141 8 -60586712.192 8
  22971167.928    22971171.934    47184326.022 9 -41220500.789 9
 86  6 11  2 26 11.0800000  0  4G 6G13G 9G11
  22977658.072    22977659.699    48828143.705 9 -39518799.726 8
  20457224.901    20457226.456   -13746876.982 9  13772942.434 7
  20235448.343    20235449.770    22106361.627 8 -60580396.227 8
  22974304.748    22974310.406    47200813.720 9 -41207653.237 8
 86  6 11  2 26 17.0800000  0  4G 6G13G 9G11
  22981764.467    22981766.398    48849725.124 9 -39501983.037 8
  20456958.028    20456958.985   -13748282.742 9  13771847.025 8
  20236995.406    20236997.722    22114492.254 9 -60574060.675 7
  22977443.858    22977448.381    47217304.074 9 -41194803.621 8
 86  6 11  2 26 23.0800000  0  4G 6G13G 9G11
  22985873.825    22985875.761    48871318.586 9 -39485156.974 9
  20456694.155    20456694.847   -13749670.986 9  13770765.287 8
  20238547.238    20238549.529    22122647.841 8 -60567705.676 8
  22980582.093    22980586.607    47233797.065 9 -41181951.946 9
 86  6 11  2 26 29.0800000  0  4G 6G13G 9G11
  22989985.772    22989987.712    48892924.130 8 -39468321.489 9
  20456432.570    20456434.035   -13751041.758 9  13769697.153 8
  20240103.813    20240105.578    22130828.392 8 -60561331.233 7
  22983721.496    22983725.114    47250292.628 8 -41169098.259 8
 86  6 11  2 26 35.0800000  0  4G 6G13G 9G11
  22994098.904    22994102.107    48914541.715 9 -39451476.630 8
  20456175.213    20456175.964   -13752394.989 9  13768642.695 8
  20241666.490    20241667.808    22139034.053 9 -60554937.211 7
  22986860.847    22986865.221    47266790.750 8 -41156242.593 8
 86  6 11  2 26 41.0800000  0  4G 6G13G 9G11
  22998216.154    22998217.799    48936171.320 9 -39434622.400 8
  20455921.253    20455922.478   -13753730.644 8  13767601.918 8
  20243231.515    20243233.796    22147264.838 9 -60548523.636 7
  22990000.845    22990005.032    47283291.424 9 -41143384.923 8
 86  6 11  2 26 47.0800000  0  4G 6G13G 9G11
  23002332.749    23002336.604    48957812.932 9 -39417758.825 9
  20455670.245    20455672.000   -13755048.849 9  13766574.746 8
  20244803.306    20244805.073    22155520.625 8 -60542090.535 8
  22993142.565    22993144.741    47299794.680 9 -41130525.257 9
 86  6 11  2 26 53.0800000  0  4G 6G13G 9G11
  23006453.518    23006456.877    48979466.520 9 -39400885.916 8
  20455422.325    20455423.490   -13756349.591 9  13765561.195 9
  20246377.962    20246380.913    22163801.434 8 -60535637.967 8
  22996282.609    22996286.301    47316300.434 9 -41117663.622 9
 86  6 11  2 26 59.0800000  0  4G 6G13G 9G11
  23010577.121    23010579.809    49001132.023 9 -39384003.712 9
  20455177.805    20455179.993   -13757632.865 9  13764561.225 8
  20247958.996    20247961.334    22172107.186 7 -60529165.952 8
  22999424.100    22999427.750    47332808.670 9 -41104800.079 9
 86  6 11  2 27  5.0800000  0  4G 6G13G 9G11
  23014700.764    23014705.206    49022809.462 9 -39367112.213 9
  20454937.301    20454939.163   -13758898.662 9  13763574.889 8
  20249545.314    20249547.883    22180438.032 8 -60522674.386 8
  23002566.581    23002569.304    47349319.374 9 -41091934.599 8
 86  6 11  2 27 11.0800000  0  4G 6G13G 9G11
  23018829.187    23018832.987    49044498.844 8 -39350211.412 9
  20454700.458    20454702.209   -13760146.993 9  13762602.172 8
  20251134.627    20251135.738    22188793.851 8 -60516163.365 8
  23005708.909    23005711.528    47365832.565 8 -41079067.178 8
 86  6 11  2 27 17.0800000  0  4G 6G13G 9G11
  23022958.452    23022962.013    49066200.075 9 -39333301.375 9
  20454466.018    20454467.719   -13761377.958 8  13761642.981 8
  20252729.759    20252731.429    22197174.720 8 -60509632.827 7
  23008851.156    23008854.685    47382348.235 9 -41066197.829 8
 86  6 11  2 27 23.0800000  0  4G 6G13G 9G11
  23027089.990    23027094.415    49087913.218 8 -39316382.063 9
  20454233.807    20454236.384   -13762591.482 9  13760697.378 9
  20254328.897    20254330.678    22205580.538 7 -60503082.835 9
  23011995.315    23011997.499    47398866.364 9 -41053326.570 9
 86  6 11  2 27 29.0800000  0  4G 6G13G 9G11
  23031223.879    23031228.462    49109638.230 9 -39299453.509 9
  20454006.521    20454007.936   -13763787.581 9  13759765.350 8
  20255933.836    20255934.829    22214011.424 8 -60496513.316 8
  23015139.411    23015141.589    47415386.940 9 -41040453.389 8
 86  6 11  2 27 35.0800000  0  4G 6G13G 9G11
  23035361.353    23035364.129    49131375.034 8 -39282515.740 8
  20453782.409    20453784.303   -13764966.233 9  13758846.921 8
  20257542.370    20257542.967    22222467.234 7 -60489924.378 8
  23018281.933    23018285.851    47431909.986 9 -41027578.294 8
 86  6 11  2 27 41.0800000  0  4G 6G13G 9G11
  23039500.283    23039502.065    49153123.629 9 -39265568.798 8
  20453561.624    20453562.007   -13766127.490 9  13757942.047 8
  20259156.487    20259158.862    22230948.034 9 -60483315.977 8
  23021427.638    23021430.250    47448435.484 9 -41014701.294 9
 86  6 11  2 27 47.0800000  0  4G 6G13G 9G11
  23043640.406    23043643.800    49174884.065 9 -39248612.625 9
  20453343.662    20453344.886   -13767271.391 9  13757050.694 8
  20260774.417    20260775.769    22239453.800 8 -60476688.105 8
  23024572.523    23024574.647    47464963.355 9 -41001822.430 8
 86  6 11  2 27 53.0800000  0  4G 6G13G 9G11
  23047783.179    23047786.021    49196656.233 9 -39231647.317 9
  20453130.089    20453130.789   -13768397.942 9  13756172.865 8
  20262398.044    20262400.053    22247984.500 8 -60470040.817 8
  23027717.992    23027720.961    47481493.597 9 -40988941.734 9
 86  6 11  2 27 59.0800000  0  4G 6G13G 9G11
  23051928.924    23051931.931    49218440.179 9 -39214672.820 9
  20452918.139    20452919.700   -13769507.132 8  13755308.556 8
  20264025.114    20264028.092    22256540.200 8 -60463374.037 7
  23030865.385    23030867.191    47498026.178 9 -40976059.212 9
 86  6 11  2 28  5.0800000  0  3G13G 9G11
  20452710.436    20452712.426   -13770599.045 9  13754457.724 9
  20265658.870    20265660.660    22265120.798 7 -60456687.853 8
  23034011.205    23034013.751    47514561.091 9 -40963174.858 9
 86  6 11  2 28 11.0800000  0  3G13G 9G11
  20452506.160    20452507.273   -13771673.631 9  13753620.393 8
  20267295.970    20267298.902    22273726.314 9 -60449982.268 8
  23037157.594    23037159.857    47531098.307 9 -40950288.714 9
 86  6 11  2 28 17.0800000  0  3G13G 9G11
  20452305.594    20452306.237   -13772730.835 8  13752796.593 8
  20268938.863    20268940.235    22282356.764 8 -60443257.243 8
  23040304.138    23040307.772    47547637.891 9 -40937400.755 8
 86  6 11  2 28 23.0800000  0  4G12G13G 9G11
                  23069486.360   -26591436.228 9
  20452108.169    20452108.497   -13773770.694 9  13751986.311 8
  20270586.410    20270588.272    22291012.244 7 -60436512.724 8
  23043452.413    23043455.557    47564179.837 9 -40924510.927 8
 86  6 11  2 28 29.0800000  0  4G12G13G 9G11
                  23068896.272   -26570770.671 9
  20451912.248    20451913.615   -13774793.268 9  13751189.501 8
  20272237.379    20272239.183    22299692.629 8 -60429748.769 8
  23046600.435    23046602.997    47580724.079 8 -40911619.316 9
 86  6 11  2 28 35.0800000  0  4G12G13G 9G11
                  23078352.632   -26650006.788 1
  20451721.815    20451722.309   -13775798.548 9  13750406.174 7
  20273893.728    20273896.707    22308397.930 8 -60422965.428 8
  23049748.944    23049752.431    47597270.593 9 -40898725.924 9
 86  6 11  2 28 41.0800000  0  4G12G13G 9G11
                  23081051.601   -26671202.709 1
  20451532.831    20451533.849   -13776786.576 9  13749636.284 8
  20275556.434    20275557.132    22317128.087 7 -60416162.724 7
  23052897.136    23052902.573    47613819.382 9 -40885830.774 8
 86  6 11  2 28 47.0800000  0  4G12G13G 9G11
                  23086445.149   -26736295.676 1
  20451348.374    20451348.759   -13777757.334 9  13748879.852 9
  20277220.708    20277222.986    22325883.249 7 -60409340.518 7
  23056049.091    23056051.071    47630370.448 9 -40872933.855 8
 86  6 11  2 28 53.0800000  0  4G12G13G 9G11
                  23091079.422   -26756776.660 1
  20451167.650    20451168.083   -13778710.819 9  13748136.869 8
  20278892.515    20278893.970    22334663.310 8 -60402498.919 8
  23059198.128    23059201.287    47646923.697 8 -40860035.218 9
 86  6 11  2 28 59.0800000  0  4G12G13G 9G11
                  23093911.931   -26819746.668 1
  20450989.580    20450990.397   -13779647.098 9  13747407.310 8
  20280568.146    20280569.417    22343468.230 8 -60395637.939 7
  23062347.925    23062352.229    47663479.138 9 -40847134.871 8
 86  6 11  2 29  5.0800000  0  4G12G13G 9G11
                  23099482.647   -26841498.952 1
  20450813.600    20450816.183   -13780566.131 9  13746691.182 8
  20282247.559    20282250.537    22352298.023 8 -60388757.589 7
  23065499.277    23065502.790    47680036.771 9 -40834232.832 9
 86  6 11  2 29 11.0800000  0  4G12G13G 9G11
                  23102284.731   -26861981.072 1
  20450642.181    20450645.817   -13781467.937 8  13745988.471 7
  20283932.943    20283934.316    22361152.664 8 -60381857.882 8
  23068650.737    23068654.262    47696596.574 9 -40821329.105 8
 86  6 11  2 29 17.0800000  0  4G12G13G 9G11
                  23106599.007   -26885254.446 1
  20450475.021    20450475.710   -13782352.564 9  13745299.151 8
  20285622.782    20285624.525    22370032.184 8 -60374938.772 8
  23071801.694    23071804.348    47713158.539 9 -40808423.661 8
 86  6 11  2 29 23.0800000  0  4G12G13G 9G11
                  23111465.431   -26954234.153 1
  20450309.012    20450310.339   -13783219.988 9  13744623.252 8
  20287317.807    20287319.424    22378936.582 8 -60368000.289 8
  23074953.207    23074958.255    47729722.675 8 -40795516.555 9
 86  6 11  2 29 29.0800000  0  4G12G13G 9G11
                  23116129.711   -26974720.654 1
  20450146.837    20450149.192   -13784070.243 9  13743960.697 8
  20289016.398    20289018.583    22387865.787 8 -60361042.460 8
  23078107.011    23078109.769    47746289.008 9 -40782607.739 8
 86  6 11  2 29 35.0800000  0  4G12G13G 9G11
                  23120721.729   -26996278.932 1
  20449989.482    20449991.201   -13784903.342 8  13743311.536 8
  20290718.976    20290721.741    22396819.869 8 -60354065.264 8
  23081259.846    23081263.525    47762857.525 9 -40769697.209 9
 86  6 11  2 29 41.0800000  0  4G12G13G 9G11
                  23124383.135   -27060295.952 1
  20449832.974    20449835.795   -13785719.286 9  13742675.734 8
  20292429.235    20292430.967    22405798.785 8 -60347068.713 8
  23084413.592    23084416.241    47779428.159 9 -40756785.028 9
 86  6 11  2 29 47.0800000  0  4G12G13G 9G11
                  23128947.021   -27081854.274 1
  20449681.445    20449684.152   -13786518.114 9  13742053.268 9
  20294142.990    20294144.695    22414802.493 7 -60340052.827 8
  23087566.651    23087569.843    47796000.854 9 -40743871.246 9
 86  6 11  2 29 53.0800000  0  3G13G 9G11
  20449533.281    20449534.200   -13787299.847 9  13741444.131 8
  20295861.314    20295863.363    22423831.041 8 -60333017.608 8
  23090720.491    23090723.131    47812575.603 9 -40730955.862 9
 86  6 11  2 29 59.0800000  0  3G13G 9G11
  20449387.884    20449389.095   -13788064.414 8  13740848.370 7
  20297584.606    20297585.226    22432884.286 7 -60325963.138 7
  23093875.306    23093878.519    47829152.416 8 -40718038.872 8
 86  6 11  2 30  5.0800000  0  3G13G 9G11
  20449244.730    20449246.428   -13788811.841 9  13740265.960 7
  20299310.661    20299313.776    22441962.388 5 -60318889.292 6
  23097030.147    23097033.292    47845731.267 9 -40705120.289 9
 86  6 11  2 30 11.0800000  0  4G12G13G 9G11
                  21787347.622   -27174382.248 9
  20449106.846    20449108.057   -13789542.134 9  13739696.888 7
  20301041.347    20301045.637    22451065.329 3 -60311796.091 4
  23100185.506    23100189.306    47862312.172 9 -40692200.108 8
 86  6 11  2 30 17.0800000  0  4G12G13G 9G11
                  21784417.130   -27189747.075 9
  20448970.527    20448972.044   -13790255.295 9  13739141.181 8
  20302780.348    20302783.281    22460193.083 3 -60304683.563 5
  23103341.438    23103344.562    47878895.090 9 -40679278.368 9
 86  6 11  2 30 23.0800000  0  4G12G13G 9G11
                  21781528.464   -27205097.526 9
  20448837.605    20448839.923   -13790951.394 9  13738598.776 8
  20304522.025    20304524.472    22469345.602 6 -60297551.734 4
  23106497.257    23106499.782    47895480.017 9 -40666355.045 9
 86  6 11  2 30 29.0800000  0  4G12G13G 9G11
  21778610.682    21778611.489   -27220432.062 9  34636571.484 7
  20448709.175    20448711.159   -13791630.383 9  13738069.692 8
  20306268.503    20306270.512    22478522.890 5 -60290400.593 6
  23109653.442    23109656.666    47912066.992 9 -40653430.138 9
 86  6 11  2 30 35.0800000  0  4G12G13G 9G11
  21775695.095    21775697.389   -27235751.445 9  34624634.282 9
  20448582.227    20448584.800   -13792292.370 9  13737553.856 8
  20308018.855    20308021.582    22487725.061 5 -60283230.085 5
  23112811.204    23112813.596    47928655.974 9 -40640503.663 9
 86  6 11  2 30 41.0800000  0  4G12G13G 9G11
  21772782.779    21772785.197   -27251055.713 9  34612708.873 9
  20448460.919    20448461.855   -13792937.277 9  13737051.336 8
  20309775.940    20309777.119    22496951.886 3 -60276040.363 5
  23115968.327    23115970.902    47945246.963 9 -40627575.624 9
 86  6 11  2 30 47.0800000  0  4G12G13G 9G11
  21769873.517    21769876.282   -27266344.826 9  34600795.289 9
  20448340.994    20448342.802   -13793565.120 9  13736562.106 9
  20311535.862    20311538.467    22506203.442 5 -60268831.353 5
  23119125.543    23119129.065    47961839.916 9 -40614646.059 9
 86  6 11  2 30 53.0800000  0  4G12G13G 9G11
  21766967.727    21766970.530   -27281618.695 9  34588893.579 9
  20448223.844    20448226.516   -13794175.950 9  13736086.131 8
  20313300.618    20313302.929    22515479.767 5 -60261603.070 4
  23122283.008    23122285.813    47978434.817 9 -40601714.979 9
 86  6 11  2 30 59.0800000  0  4G12G13G 9G11
  21764063.319    21764065.756   -27296877.379 7  34577003.696 2
  20448111.377    20448113.432   -13794769.883 8  13735623.325 8
  20315070.853    20315072.195    22524780.777 8 -60254355.518 8
  23125441.163    23125444.544    47995031.610 9 -40588782.410 9
 86  6 11  2 31  5.0800000  0  4G12G13G 9G11
  21761164.155    21761164.863   -27312120.815 6  34565125.696 5
  20448002.357    20448003.227   -13795346.887 9  13735173.710 8
  20316845.334    20316847.298    22534106.554 7 -60247088.687 8
  23128599.610    23128603.460    48011630.341 9 -40575848.344 9
 86  6 11  2 31 11.0800000  0  4G12G13G 9G11
  21758265.372    21758267.681   -27327348.990 3  34553259.593 3
  20447894.896    20447897.165   -13795906.889 8  13734737.354 8
  20318624.068    20318625.795    22543457.095 8 -60239802.554 8
  23131758.459    23131761.988    48028230.949 9 -40562912.809 9
 86  6 11  2 31 17.0800000  0  4G12G13G 9G11
  21755369.806    21755372.101   -27342561.893 4  34541405.380 5
  20447792.168    20447793.969   -13796449.817 9  13734314.296 8
  20320407.984    20320411.212    22552832.285 8 -60232497.199 7
  23134917.942    23134921.949    48044833.425 8 -40549975.818 9
 86  6 11  2 31 23.0800000  0  4G12G13G 9G11
  21752477.827    21752481.473   -27357759.511 5  34529563.083 4
  20447692.183    20447693.576   -13796975.779 9  13733904.453 8
  20322196.977    20322199.404    22562232.208 8 -60225172.598 8
  23138078.700    23138081.497    48061437.826 9 -40537037.335 9
 86  6 11  2 31 29.0800000  0  4G12G13G 9G11
  21749587.734    21749592.428   -27372941.738 6  34517732.783 4
  20447594.857    20447596.825   -13797484.824 9  13733507.792 7
  20323990.138    20323993.662    22571656.868 9 -60217828.719 8
  23141237.595    23141241.684    48078044.106 9 -40524097.371 9
 86  6 11  2 31 35.0800000  0  4G12G13G 9G11
  21746703.276    21746705.662   -27388108.567 5  34505914.484 5
  20447500.890    20447503.028   -13797976.973 9  13733124.303 8
  20325788.742    20325791.154    22581106.121 8 -60210465.675 9
  23144397.456    23144401.734    48094652.227 8 -40511155.996 9
 86  6 11  2 31 41.0800000  0  4G12G13G 9G11
  21743819.584    21743822.255   -27403259.961 2  34494108.200 3
  20447410.072    20447413.657   -13798452.230 9  13732753.982 7
  20327590.901    20327592.396    22590580.038 8 -60203083.391 8
  23147559.041    23147562.327    48111262.149 8 -40498213.198 9
 86  6 11  2 31 47.0800000  0  4G12G13G 9G11
  21740939.231    21740942.382   -27418395.919 9  34482313.954 8
  20447323.070    20447325.036   -13798910.613 9  13732396.795 8
  20329398.564    20329400.708    22600078.631 9 -60195681.895 8
  23150720.342    23150723.561    48127873.885 8 -40485268.998 9
 86  6 11  2 31 53.0800000  0  4G12G13G 9G11
  21738062.544    21738064.209   -27433516.417 9  34470531.750 9
  20447240.259    20447241.423   -13799352.061 8  13732052.803 8
  20331211.125    20331213.342    22609601.895 8 -60188261.183 9
  23153881.552    23153885.365    48144487.416 8 -40472323.396 8
 86  6 11  2 31 59.0800000  0  4G12G13G 9G11
  21735187.218    21735190.109   -27448621.423 9  34458761.620 9
  20447158.092    20447160.013   -13799776.560 9  13731722.026 8
  20333028.212    20333030.301    22619149.883 9 -60180821.197 8
  23157042.704    23157046.359    48161102.768 9 -40459376.374 9
 86  6 11  2 32  5.0800000  0  4G12G13G 9G11
  21732316.659    21732318.680   -27463710.938 9  34447003.560 9
  20447080.326    20447084.288   -13800184.179 9  13731404.404 8
  20334850.174    20334852.689    22628722.404 9 -60173362.080 8
  23160204.771    23160209.114    48177719.899 9 -40446427.969 9
 86  6 11  2 32 11.0800000  0  4G12G13G 9G11
  21729447.478    21729450.932   -27478784.961 9  34435257.572 9
  20447005.078    20447008.144   -13800574.948 9  13731099.915 8
  20336676.038    20336678.519    22638319.608 8 -60165883.745 8
  23163367.202    23163370.509    48194338.795 8 -40433478.189 9
 86  6 11  2 32 17.0800000  0  4G12G13G 9G11
  21726582.561    21726584.533   -27493843.421 9  34423523.709 9
  20446934.796    20446936.904   -13800948.875 8  13730808.538 8
  20338507.776    20338509.320    22647941.463 8 -60158386.202 8
  23166530.397    23166533.756    48210959.495 8 -40420527.004 9
 86  6 11  2 32 23.0800000  0  4G12G13G 9G11
  21723719.009    21723721.785   -27508886.319 9  34411801.975 9
  20446866.637    20446868.534   -13801305.977 9  13730530.276 9
  20340344.457    20340345.419    22657587.960 8 -60150869.449 7
  23169693.181    23169696.670    48227581.954 8 -40407574.441 9
 86  6 11  2 32 29.0800000  0  4G12G13G 9G11
  21720859.849    21720861.925   -27523913.663 9  34400092.357 9
  20446801.930    20446804.000   -13801646.293 9  13730265.105 8
  20342184.696    20342185.411    22667259.066 8 -60143333.526 7
  23172857.020    23172860.818    48244206.106 9 -40394620.562 8
 86  6 11  2 32 35.0800000  0  4G12G13G 9G11
  21718003.620    21718005.508   -27538925.342 9  34388394.940 9
  20446740.653    20446742.565   -13801969.757 9  13730013.055 8
  20344027.835    20344030.126    22676954.786 8 -60135778.444 8
  23176020.431    23176024.180    48260831.987 8 -40381665.348 9
 86  6 11  2 32 41.0800000  0  4G12G13G 9G11
  21715150.359    21715152.235   -27553921.399 9  34376709.703 9
  20446681.914    20446685.100   -13802276.491 9  13729774.047 8
  20345877.364    20345878.872    22686675.072 8 -60128204.187 8
  23179185.379    23179189.227    48277459.588 9 -40368708.771 9
 86  6 11  2 32 47.0800000  0  4G12G13G 9G11
  21712299.019    21712301.255   -27568901.781 9  34365036.681 9
  20446626.809    20446628.759   -13802566.483 8  13729548.078 8
  20347732.100    20347734.058    22696419.934 7 -60120610.780 7
  23182349.748    23182352.354    48294088.913 8 -40355750.853 9
 86  6 11  2 32 53.0800000  0  4G12G13G 9G11
  21709450.767    21709453.566   -27583866.546 9  34353375.827 9
  20446574.642    20446576.226   -13802839.687 8  13729335.192 9
  20349591.748    20349592.651    22706189.308 8 -60112998.281 8
  23185514.757    23185518.269    48310719.860 9 -40342791.690 9
 86  6 11  2 32 59.0800000  0  4G12G13G 9G11
  21706607.334    21706608.441   -27598815.631 9  34341727.194 9
  20446526.111    20446527.975   -13803096.124 9  13729135.379 8
  20351455.607    20351456.712    22715983.213 8 -60105366.679 9
  23188679.285    23188682.104    48327352.458 8 -40329831.229 9
 86  6 11  2 33  5.0800000  0  4G12G13G 9G11
  21703765.565    21703767.320   -27613748.863 9  34330090.905 9
  20446481.037    20446483.149   -13803335.720 8  13728948.682 8
  20353324.601    20353324.921    22725801.817 8 -60097715.819 8
  23191844.297    23191848.229    48343986.703 9 -40316869.478 9
 86  6 11  2 33 11.0800000  0  4G12G13G 9G11
  21700925.955    21700928.795   -27628666.446 9  34318466.819 9
  20446438.581    20446441.395   -13803558.654 9  13728774.958 9
  20355197.035    20355198.133    22735644.799 9 -60090045.970 9
  23195010.807    23195013.615    48360622.522 9 -40303906.509 9
 86  6 11  2 33 17.0800000  0  4G12G13G 9G11
  21698090.192    21698093.948   -27643568.196 9  34306855.067 9
  20446399.474    20446401.997   -13803764.727 9  13728614.385 8
  20357074.723    20357075.962    22745512.396 8 -60082356.925 8
  23198176.963    23198180.374    48377260.010 9 -40290942.241 8
 86  6 11  2 33 23.0800000  0  4G12G13G 9G11
  21695258.007    21695261.049   -27658454.187 9  34295255.590 9
  20446362.723    20446366.300   -13803954.150 8  13728466.782 9
  20358956.558    20358958.597    22755404.485 9 -60074648.813 8
  23201342.634    23201346.127    48393899.064 8 -40277976.751 9
 86  6 11  2 33 29.0800000  0  4G12G13G 9G11
  21692428.065    21692430.118   -27673324.408 9  34283668.417 9
  20446330.980    20446332.797   -13804126.858 8  13728332.199 8
  20360842.492    20360846.156    22765321.109 8 -60066921.583 8
  23204509.661    23204513.038    48410539.659 8 -40265010.055 9
 86  6 11  2 33 35.0800000  0  4G12G13G 9G11
  21689601.162    21689603.695   -27688178.784 9  34272093.577 9
  20446300.540    20446302.872   -13804282.878 9  13728210.638 8
  20362736.075    20362736.252    22775262.261 8 -60059175.229 8
  23207676.068    23207679.922    48427181.904 9 -40252042.082 9
 86  6 11  2 33 41.0800000  0  4G12G13G 9G11
  21686777.410    21686780.639   -27703017.278 9  34260531.116 9
  20446274.311    20446276.142   -13804422.215 9  13728102.062 8
  20364632.549    20364632.883    22785227.960 8 -60051409.766 7
  23210845.061    23210847.254    48443825.732 9 -40239072.867 9
 86  6 11  2 33 47.0800000  0  4G12G13G 9G11
  21683957.052    21683960.050   -27717839.847 9  34248981.065 9
  20446250.930    20446253.256   -13804544.908 9  13728006.455 9
  20366533.057    20366534.004    22795218.157 8 -60043625.187 8
  23214010.229    23214015.345    48460471.126 8 -40226102.436 9
 86  6 11  2 33 53.0800000  0  4G12G13G 9G11
  21681138.939    21681143.020   -27732646.583 9  34237443.349 9
  20446231.502    20446232.432   -13804650.999 9  13727923.780 8
  20368438.249    20368440.848    22805232.814 9 -60035821.555 8
  23217178.586    23217182.218    48477118.007 9 -40213130.849 8
 86  6 11  2 33 59.0800000  0  4G12G13G 9G11
  21678325.093    21678328.495   -27747437.399 9  34225918.040 8
  20446213.635    20446215.605   -13804740.535 9  13727854.026 9
  20370348.953    20370350.091    22815271.892 9 -60027998.917 8
  23220347.555    23220351.357    48493766.323 8 -40200158.134 9
 86  6 11  2 34  5.0800000  0  4G12G13G 9G11
  21675514.101    21675516.040   -27762212.042 9  34214405.332 8
  20446200.379    20446202.125   -13804813.230 9  13727797.371 9
  20372264.516    20372266.265    22825335.676 9 -60020157.014 8
  23223515.462    23223519.136    48510416.337 9 -40187184.107 9
 86  6 11  2 34 11.0800000  0  4G12G13G 9G11
  21672704.708    21672707.643   -27776970.875 9  34202904.947 9
  20446188.880    20446191.422   -13804869.516 9  13727753.520 8
  20374183.933    20374186.188    22835423.622 8 -60012296.272 8
  23226684.054    23226687.993    48527067.663 8 -40174209.057 9
 86  6 11  2 34 17.0800000  0  4G12G13G 9G11
  21669898.913    21669902.131   -27791713.727 9  34191417.011 9
  20446182.021    20446182.913   -13804909.241 9  13727722.557 8
  20376108.590    20376110.440    22845536.072 7 -60004416.431 8
  23229852.190    23229856.203    48543720.470 8 -40161232.850 9
 86  6 11  2 34 23.0800000  0  4G12G13G 9G11
  21667096.560    21667100.494   -27806440.407 9  34179941.681 9
  20446177.132    20446178.677   -13804932.225 9  13727704.657 8
  20378037.304    20378038.544    22855673.081 8 -59996517.482 8
  23233020.999    23233026.855    48560374.913 8 -40148255.369 9
 86  6 11  2 34 29.0800000  0  4G12G13G 9G11
  21664297.061    21664300.986   -27821151.001 9  34168478.889 9
  20446175.572    20446177.761   -13804938.616 9  13727699.682 9
  20379971.290    20379973.209    22865834.547 8 -59988599.457 7
  23236191.081    23236196.295    48577030.822 8 -40135276.746 9
 86  6 11  2 34 35.0800000  0  4G12G13G 9G11
  21661500.795    21661504.157   -27835845.456 9  34157028.660 8
  20446177.713    20446179.440   -13804928.389 9  13727707.646 8
  20381908.158    20381911.210    22876020.402 8 -59980662.429 7
  23239360.429    23239365.880    48593688.184 9 -40122296.995 9
 86  6 11  2 34 41.0800000  0  4G12G13G 9G11
  21658707.747    21658711.387   -27850523.897 9  34145590.910 8
  20446182.636    20446185.392   -13804901.656 9  13727728.475 8
  20383851.606    20383854.629    22886230.597 8 -59972706.440 7
  23242531.863    23242536.089    48610346.890 8 -40109316.194 9
 86  6 11  2 34 47.0800000  0  4G12G13G 9G11
  21655918.154    21655921.006   -27865186.437 9  34134165.559 9
  20446192.028    20446193.444   -13804858.618 9  13727762.010 8
  20385799.984    20385802.491    22896464.992 8 -59964731.586 8
  23245701.411    23245706.559    48627006.844 8 -40096334.418 9
 86  6 11  2 34 53.0800000  0  4G12G13G 9G11
  21653131.263    21653134.630   -27879832.673 9  34122752.906 9
  20446202.115    20446205.807   -13804798.904 9  13727808.551 9
  20387752.193    20387754.316    22906723.937 9 -59956737.626 8
  23248872.335    23248877.049    48643668.282 8 -40083351.487 9
 86  6 11  2 34 59.0800000  0  4G12G13G 9G11
  21650346.273    21650351.125   -27894462.691 9  34111352.896 9
  20446217.230    20446218.905   -13804722.596 8  13727868.002 9
  20389709.103    20389711.656    22917007.271 9 -59948724.608 8
  23252042.520    23252047.852    48660331.151 9 -40070367.441 9
 86  6 11  2 35  5.0800000  0  4G12G13G 9G11
  21647565.375    21647568.936   -27909076.543 9  34099965.491 9
  20446234.717    20446238.393   -13804629.831 9  13727940.287 8
  20391671.038    20391672.320    22927314.941 9 -59940692.678 7
  23255213.849    23255217.855    48676995.322 8 -40057382.376 9
 86  6 11  2 35 11.0800000  0  4G12G13G 9G11
  21644787.577    21644791.305   -27923674.249 9  34088590.651 9
  20446255.058    20446257.902   -13804520.642 8  13728025.374 8
  20393637.165    20393638.918    22937646.941 9 -59932641.774 7
  23258386.059    23258389.943    48693660.809 8 -40044396.297 9
 86  6 11  2 35 17.0800000  0  4G12G13G 9G11
  21642013.671    21642016.470   -27938255.564 9  34077228.601 9
  20446280.267    20446281.606   -13804394.854 9  13728123.402 9
  20395606.429    20395609.640    22948003.317 8 -59924571.881 7
  23261556.490    23261561.386    48710327.750 9 -40031409.079 9
 86  6 11  2 35 23.0800000  0  4G12G13G 9G11
  21639240.942    21639244.869   -27952820.627 9  34065879.203 9
  20446306.667    20446309.176   -13804252.613 9  13728234.228 9
  20397582.826    20397584.081    22958384.056 8 -59916482.990 8
  23264729.748    23264733.187    48726996.023 8 -40018420.819 9
 86  6 11  2 35 29.0800000  0  4G12G13G 9G11
  21636472.334    21636476.411   -27967369.427 9  34054542.474 9
  20446337.193    20446339.435   -13804093.933 9  13728357.875 8
  20399562.694    20399564.533    22968789.030 8 -59908375.220 7
  23267901.341    23267905.210    48743665.561 9 -40005431.574 9
 86  6 11  2 35 35.0800000  0  4G12G13G 9G11
  21633707.054    21633709.747   -27981901.954 9  34043218.429 9
  20446369.928    20446372.699   -13803918.840 9  13728494.309 9
  20401548.361    20401550.099    22979218.337 9 -59900248.490 9
  23271074.163    23271078.021    48760336.405 8 -39992441.325 9
 86  6 11  2 35 41.0800000  0  4G12G13G 9G11
  21630944.930    21630948.678   -27996418.108 9  34031907.144 9
  20446406.298    20446409.340   -13803727.356 8  13728643.527 8
  20403538.087    20403539.834    22989672.018 9 -59892102.771 8
  23274245.781    23274249.646    48777008.536 8 -39979450.052 9
 86  6 11  2 35 47.0800000  0  4G12G13G 9G11
  21628185.116    21628188.423   -28010917.871 9  34020608.626 9
  20446445.886    20446449.205   -13803519.406 9  13728805.559 9
  20405532.361    20405532.987    23000149.979 8 -59883938.124 8
  23277419.455    23277422.979    48793682.024 9 -39966457.728 8
 86  6 11  2 35 53.0800000  0  4G12G13G 9G11
  21625429.690    21625432.014   -28025401.298 9  34009322.848 9
  20446488.966    20446491.942   -13803295.107 9  13728980.330 8
  20407529.326    20407530.204    23010652.127 8 -59875754.633 9
  23280592.419    23280595.759    48810356.709 8 -39953464.474 9
 86  6 11  2 35 59.0800000  0  4G12G13G 9G11
  21622675.975    21622679.006   -28039868.307 9  33998049.858 8
  20446534.327    20446536.872   -13803054.367 9  13729167.927 8
  20409533.073    20409534.414    23021178.702 8 -59867552.109 8
  23283765.374    23283768.669    48827032.656 9 -39940470.231 9
 86  6 11  2 36  5.0800000  0  4G12G13G 9G11
  21619927.085    21619929.785   -28054318.907 9  33986789.656 9
  20446583.135    20446586.535   -13802797.367 8  13729368.178 9
  20411539.772    20411541.419    23031729.517 8 -59859330.707 8
  23286939.435    23286942.401    48843709.743 8 -39927475.111 9
 86  6 11  2 36 11.0800000  0  4G12G13G 9G11
  21617179.524    21617183.123   -28068752.985 9  33975542.328 9
  20446635.611    20446637.923   -13802523.912 9  13729581.270 9
  20413552.399    20413555.124    23042304.567 9 -59851090.410 8
  23290113.237    23290116.711    48860388.130 9 -39914478.962 9
 86  6 11  2 36 17.0800000  0  4G12G13G 9G11
  21614436.926    21614439.422   -28083170.604 9  33964307.813 8
  20446689.071    20446692.881   -13802234.060 8  13729807.123 8
  20415569.553    20415572.033    23052903.919 8 -59842831.158 9
  23293287.334    23293289.865    48877067.720 8 -39901481.878 9
 86  6 11  2 36 23.0800000  0  4G12G13G 9G11
  21611696.344    21611698.377   -28097571.751 9  33953086.141 9
  20446749.374    20446751.062   -13801927.931 9  13730045.666 9
  20417592.054    20417592.581    23063527.456 9 -59834553.085 7
  23296461.845    23296464.739    48893748.502 9 -39888483.878 9
 86  6 11  2 36 29.0800000  0  4G12G13G 9G11
  21608958.112    21608962.411   -28111956.384 9  33941877.345 9
  20446809.978    20446812.210   -13801605.448 8  13730296.956 8
  20419617.379    20419619.967    23074175.163 8 -59826256.184 7
  23299635.378    23299638.911    48910430.437 9 -39875484.967 8
 86  6 11  2 36 35.0800000  0  4G12G13G 9G11
  21606224.407    21606226.759   -28126324.535 9  33930681.393 9
  20446874.545    20446877.173   -13801266.693 9  13730560.916 9
  20421648.287    20421650.383    23084847.112 9 -59817940.394 8
  23302811.207    23302814.293    48927113.561 9 -39862485.146 8
 86  6 11  2 36 41.0800000  0  4G12G13G 9G11
  21603494.487    21603495.299   -28140676.002 9  33919498.427 9
  20446943.225    20446944.732   -13800911.628 9  13730837.585 8
  20423682.777    20423684.293    23095543.350 8 -59809605.652 8
  23305985.249    23305988.009    48943797.849 9 -39849484.396 8
 86  6 11  2 36 47.0800000  0  4G12G13G 9G11
  21600766.697    21600767.693   -28155010.912 9  33908328.358 8
  20447013.378    20447014.808   -13800540.305 9  13731126.935 9
  20425722.823    20425724.676    23106263.765 9 -59801252.091 7
  23309160.459    23309163.343    48960483.305 9 -39836482.734 9
 86  6 11  2 36 53.0800000  0  4G12G13G 9G11
  21598041.098    21598043.612   -28169329.282 9  33897171.197 9
  20447086.842    20447088.463   -13800152.720 9  13731428.956 8
  20427767.637    20427770.172    23117008.239 8 -59792879.774 7
  23312336.259    23312339.130    48977169.854 9 -39823480.243 9
 86  6 11  2 36 59.0800000  0  4G12G13G 9G11
  21595319.216    21595322.077   -28183631.037 9  33886026.973 8
  20447163.395    20447165.951   -13799748.868 9  13731743.641 9
  20429817.563    20429819.502    23127776.921 9 -59784488.595 8
  23315511.433    23315514.900    48993857.559 9 -39810476.834 9
 86  6 11  2 37  5.0800000  0  4G12G13G 9G11
  21592601.308    21592603.118   -28197916.107 9  33874895.750 9
  20447243.427    20447246.445   -13799328.726 9  13732071.023 8
  20431870.715    20431872.156    23138569.727 8 -59776078.609 7
  23318688.305    23318690.005    49010546.354 9 -39797472.577 8
 86  6 11  2 37 11.0800000  0  4G12G13G 9G11
  21589886.715    21589887.628   -28212184.541 9  33863777.491 8
  20447326.940    20447328.370   -13798892.330 8  13732411.079 8
  20433929.140    20433932.169    23149386.800 8 -59767649.721 8
  23321863.532    23321867.190    49027236.194 9 -39784467.505 8
 86  6 11  2 37 17.0800000  0  4G12G13G 9G11
  21587174.551    21587176.590   -28226436.266 9  33852672.248 9
  20447412.709    20447414.635   -13798439.662 8  13732763.812 9
  20435991.925    20435993.980    23160227.937 8 -59759202.087 7
  23325039.108    23325042.337    49043927.069 9 -39771461.627 8
 86  6 11  2 37 23.0800000  0  4G12G13G 9G11
  21584466.128    21584467.179   -28240671.271 9  33841580.043 9
  20447501.969    20447504.745   -13797970.776 9  13733129.174 9
  20438059.546    20438062.871    23171093.329 8 -59750735.564 8
  23328216.360    23328218.746    49060619.005 9 -39758454.930 8
 86  6 11  2 37 29.0800000  0  4G12G13G 9G11
  21581760.337    21581761.787   -28254889.507 9  33830500.901 8
  20447593.706    20447596.495   -13797485.699 9  13733507.164 9
  20440132.131    20440133.979    23181982.678 8 -59742250.369 8
  23331392.428    23331396.069    49077312.017 9 -39745447.388 9
 86  6 11  2 37 35.0800000  0  4G12G13G 9G11
  21579057.952    21579059.456   -28269090.963 9  33819434.833 8
  20447689.406    20447691.529   -13796984.467 8  13733897.736 8
  20442209.759    20442209.293    23192896.155 9 -59733746.358 9
  23334569.705    23334572.877    49094006.067 9 -39732439.025 8
 86  6 11  2 37 41.0800000  0  4G12G13G 9G11
  21576358.503    21576359.961   -28283275.635 9  33808381.842 9
  20447787.777    20447789.279   -13796467.110 9  13734300.872 7
  20444290.316    20444291.164    23203833.688 9 -59725223.605 8
  23337746.196    23337748.960    49110701.134 9 -39719429.889 9
 86  6 11  2 37 47.0800000  0  4G12G13G 9G11
  21573662.168    21573664.064   -28297443.388 9  33797342.041 9
  20447889.825    20447891.208   -13795933.576 9  13734716.612 8
  20446375.810    20446376.419    23214795.387 9 -59716682.019 8
  23340923.677    23340926.621    49127397.214 9 -39706419.961 9
 86  6 11  2 37 53.0800000  0  4G12G13G 9G11
  21570968.855    21570971.779   -28311594.343 9  33786315.309 9
  20447994.415    20447995.961   -13795383.961 8  13735144.876 9
  20448466.557    20448469.091    23225781.085 8 -59708121.741 8
  23344100.686    23344104.309    49144094.303 9 -39693409.237 9
 86  6 11  2 37 59.0800000  0  4G12G13G 9G11
  21568279.905    21568281.766   -28325728.429 9  33775301.752 9
  20448102.183    20448103.203   -13794818.183 9  13735585.742 8
  20450561.449    20450564.243    23236790.855 9 -59699542.709 8
  23347279.318    23347281.524    49160792.420 9 -39680397.716 9
 86  6 11  2 38  5.0800000  0  4G12G13G 9G11
  21565593.137    21565596.117   -28339845.628 9  33764301.331 8
  20448211.915    20448214.710   -13794236.303 9  13736039.159 9
  20452661.499    20452664.656    23247824.732 9 -59690944.883 8
  23350456.004    23350459.841    49177491.512 8 -39667385.447 9
 86  6 11  2 38 11.0800000  0  4G12G13G 9G11
  21562909.935    21562912.395   -28353945.941 9  33753314.080 9
  20448326.570    20448328.554   -13793638.302 9  13736505.133 8
  20454765.723    20454767.475    23258882.571 9 -59682328.387 9
  23353634.384    23353639.214    49194191.562 9 -39654372.429 9
 86  6 11  2 38 17.0800000  0  4G12G13G 9G11
  21560229.610    21560232.398   -28368029.307 9  33742340.030 9
  20448443.867    20448445.221   -13793024.235 9  13736983.622 8
  20456875.145    20456876.080    23269964.441 7 -59673693.174 7
  23356811.902    23356815.683    49210892.578 9 -39641358.650 8
 86  6 11  2 38 23.0800000  0  4G12G13G 9G11
  21557553.857    21557556.548   -28382095.750 9  33731379.173 9
  20448562.853    20448565.141   -13792394.095 9  13737474.661 9
  20458988.388    20458989.151    23281070.295 8 -59665039.260 7
  23359991.319    23359992.890    49227594.534 9 -39628344.138 9
 86  6 11  2 38 29.0800000  0  4G12G13G 9G11
  21554879.755    21554881.911   -28396145.142 9  33720431.598 9
  20448685.916    20448687.991   -13791747.863 8  13737978.197 9
  20461106.344    20461107.253    23292200.230 8 -59656366.588 7
  23363169.905    23363171.891    49244297.406 9 -39615328.911 9
 86  6 11  2 38 35.0800000  0  4G12G13G 9G11
  21552209.293    21552211.756   -28410177.504 9  33709497.297 8
  20448811.827    20448813.778   -13791085.636 9  13738494.230 8
  20463229.639    20463229.059    23303354.149 9 -59647675.228 7
  23366347.557    23366351.084    49261001.117 9 -39602313.047 9
 86  6 11  2 38 41.0800000  0  4G12G13G 9G11
  21549542.770    21549545.343   -28424192.926 9  33698576.187 9
  20448940.243    20448943.391   -13790407.309 8  13739022.783 9
  20465355.465    20465357.174    23314532.051 9 -59638965.180 8
  23369526.282    23369530.014    49277705.730 9 -39589296.467 9
 86  6 11  2 38 47.0800000  0  4G12G13G 9G11
  21546878.550    21546881.537   -28438191.250 9  33687668.405 9
  20449073.995    20449075.168   -13789712.977 9  13739563.831 8
  20467487.121    20467487.792    23325733.936 9 -59630236.430 8
  23372704.009    23372708.908    49294411.214 9 -39576279.205 9
 86  6 11  2 38 53.0800000  0  4G12G13G 9G11
  21544218.487    21544221.021   -28452172.447 9  33676773.978 9
  20449208.354    20449210.963   -13789002.707 8  13740117.291 8
  20469624.007    20469625.352    23336959.739 9 -59621489.051 7
  23375883.930    23375888.415    49311117.588 9 -39563261.256 9
 86  6 11  2 38 59.0800000  0  4G12G13G 9G11
  21541560.604    21541563.185   -28466136.547 9  33665892.858 9
  20449346.309    20449349.323   -13788276.426 8  13740683.209 9
  20471764.409    20471766.828    23348209.538 8 -59612722.990 7
  23379064.591    23379066.659    49327824.817 9 -39550242.645 9
 86  6 11  2 39  5.0800000  0  4G12G13G 9G11
  21538905.881    21538909.437   -28480083.564 9  33655025.054 8
  20449487.750    20449490.211   -13787534.094 9  13741261.661 9
  20473910.319    20473911.122    23359483.251 8 -59603938.269 8
  23382243.073    23382245.041    49344532.917 9 -39537223.350 9
 86  6 11  2 39 11.0800000  0  4G12G13G 9G11
  21536255.524    21536257.727   -28494013.500 9  33644170.561 9
  20449632.431    20449635.268   -13786775.802 9  13741852.532 8
  20476059.159    20476061.231    23370780.864 8 -59595134.951 7
  23385422.469    23385425.862    49361241.855 9 -39524203.405 8
 86  6 11  2 39 17.0800000  0  4G12G13G 9G11
  21533607.809    21533611.475   -28507926.273 9  33633329.451 9
  20449779.958    20449781.909   -13786001.518 9  13742455.863 8
  20478214.495    20478215.023    23382102.383 9 -59586312.972 8
  23388602.570    23388605.567    49377951.627 9 -39511182.805 9
 86  6 11  2 39 23.0800000  0  4G12G13G 9G11
  21530963.916    21530967.609   -28521821.829 9  33622501.746 9
  20449930.362    20449932.937   -13785211.252 9  13743071.651 9
  20480373.070    20480373.586    23393447.836 9 -59577472.366 7
  23391783.413    23391784.898    49394662.236 9 -39498161.565 8
 86  6 11  2 39 29.0800000  0  4G12G13G 9G11
  21528323.498    21528325.441   -28535700.143 9  33611687.476 9
  20450083.823    20450085.932   -13784405.030 9  13743699.881 8
  20482536.880    20482537.261    23404817.216 9 -59568613.121 8
  23394962.514    23394965.196    49411373.663 9 -39485139.669 8
 86  6 11  2 39 35.0800000  0  4G12G13G 9G11
  21525684.977    21525687.652   -28549561.219 9  33600886.629 9
  20450240.232    20450241.215   -13783582.954 9  13744340.474 8
  20484704.566    20484704.506    23416210.421 9 -59559735.294 8
  23398142.310    23398144.766    49428085.893 9 -39472117.158 9
 86  6 11  2 39 41.0800000  0  4G12G13G 9G11
  21523051.227    21523053.025   -28563405.002 9  33590099.273 9
  20450399.751    20450401.305   -13782745.030 9  13744993.386 9
  20486877.716    20486879.788    23427627.572 8 -59550838.816 8
  23401322.784    23401326.386    49444798.887 9 -39459094.052 8
 86  6 11  2 39 47.0800000  0  4G12G13G 9G11
  21520420.515    21520421.685   -28577231.512 9  33579325.377 9
  20450561.464    20450563.878   -13781891.293 9  13745658.640 8
  20489053.502    20489055.758    23439068.516 8 -59541923.800 6
  23404503.323    23404506.332    49461512.558 8 -39446070.414 9
 86  6 11  2 39 53.0800000  0  4G12G13G 9G11
  21517791.499    21517794.848   -28591040.672 9  33568564.990 9
  20450726.688    20450729.377   -13781021.643 9  13746336.296 8
  20491235.783    20491237.911    23450533.204 8 -59532990.284 8
  23407684.247    23407687.070    49478226.963 9 -39433046.207 9
 86  6 11  2 39 59.0800000  0  4G12G13G 9G11
  21515167.680    21515170.320   -28604832.530 9  33557818.086 9
  20450896.146    20450898.196   -13780136.078 9  13747026.342 9
  20493421.184    20493423.498    23462021.778 9 -59524038.168 8
  23410864.732    23410868.128    49494942.111 9 -39420021.420 9
 86  6 11  2 40  5.0800000  0  4G12G13G 9G11
  21512546.166    21512549.213   -28618607.056 9  33547084.701 9
  20451067.742    20451069.106   -13779234.694 9  13747728.714 9
  20495612.093    20495613.808    23473534.337 8 -59515067.335 8
  23414046.205    23414049.062    49511658.004 9 -39406996.038 9
 86  6 11  2 40 11.0800000  0  4G12G13G 9G11
  21509929.146    21509931.322   -28632364.204 9  33536364.850 9
  20451241.685    20451244.136   -13778317.469 8  13748443.443 8
  20497808.429    20497809.358    23485070.544 8 -59506078.084 8
  23417228.207    23417229.646    49528374.622 9 -39393970.112 8
 86  6 11  2 40 17.0800000  0  4G12G13G 9G11
  21507313.671    21507316.644   -28646103.927 9  33525658.572 8
  20451419.772    20451421.855   -13777384.357 9  13749170.550 9
  20500008.501    20500008.730    23496630.445 7 -59497070.367 8
  23420407.347    23420411.277    49545091.937 9 -39380943.637 9
 86  6 11  2 40 23.0800000  0  4G12G13G 9G11
  21504702.493    21504705.460   -28659826.286 9  33514965.828 9
  20451600.354    20451602.504   -13776435.430 9  13749909.967 9
  20502211.303    20502214.957    23508214.260 8 -59488044.026 6
  23423589.727    23423592.822    49561809.909 9 -39367916.631 8
 86  6 11  2 40 29.0800000  0  4G12G13G 9G11
  21502095.182    21502097.732   -28673531.257 9  33504286.620 9
  20451783.946    20451786.482   -13775470.736 9  13750661.681 8
  20504420.176    20504422.949    23519821.823 8 -59478999.183 8
  23426770.222    23426774.085    49578528.544 9 -39354889.132 8
 86  6 11  2 40 35.0800000  0  4G12G13G 9G11
  21499490.320    21499492.223   -28687218.730 9  33493621.065 9
  20451969.459    20451973.427   -13774490.203 9  13751425.733 9
  20506632.967    20506635.954    23531453.106 8 -59469935.848 8
  23429951.843    23429955.040    49595247.817 9 -39341861.126 9
 86  6 11  2 40 41.0800000  0  4G12G13G 9G11
  21496889.097    21496891.047   -28700888.742 9  33482969.111 8
  20452159.347    20452162.184   -13773493.906 9  13752202.068 9
  20508851.275    20508854.564    23543108.183 9 -59460853.977 7
  23433134.195    23433137.628    49611967.700 9 -39328832.640 8
 86  6 11  2 40 47.0800000  0  4G12G13G 9G11
  21494290.753    21494292.489   -28714541.222 9  33472330.810 9
  20452352.082    20452354.376   -13772481.877 9  13752990.656 9
  20511073.329    20511077.269    23554786.931 9 -59451753.648 7
  23436315.987    23436318.853    49628688.251 9 -39315803.643 8
 86  6 11  2 40 53.0800000  0  4G12G13G 9G11
  21491696.529    21491698.628   -28728176.143 9  33461706.201 9
  20452547.737    20452550.288   -13771454.174 9  13753791.472 9
  20513300.987    20513301.019    23566489.505 8 -59442634.762 7
  23439498.721    23439502.555    49645409.431 9 -39302774.145 8
 86  6 11  2 40 59.0800000  0  4G12G13G 9G11
  21489105.494    21489107.782   -28741793.482 9  33451095.288 8
  20452746.577    20452748.556   -13770410.691 9  13754604.577 9
  20515532.439    20515534.590    23578215.808 8 -59433497.403 7
  23442680.053    23442683.565    49662131.237 9 -39289744.162 8
 86  6 11  2 41  5.0800000  0  4G12G13G 9G11
  21486516.556    21486519.111   -28755393.221 9  33440498.094 9
  20452948.532    20452950.182   -13769351.547 9  13755429.879 9
  20517768.246    20517771.372    23589965.776 8 -59424341.569 7
  23445862.012    23445865.025    49678853.642 9 -39276713.709 8
 86  6 11  2 41 11.0800000  0  4G12G13G 9G11
  21483931.826    21483934.678   -28768975.363 9  33429914.618 8
  20453151.951    20453155.481   -13768276.642 9  13756267.469 8
  20520009.167    20520010.705    23601739.463 9 -59415167.275 7
  23449044.810    23449048.035    49695576.630 9 -39263682.813 8
 86  6 11  2 41 17.0800000  0  4G12G13G 9G11
  21481351.179    21481353.956   -28782539.912 9  33419344.837 9
  20453360.226    20453362.382   -13767185.991 9  13757117.324 9
  20522254.147    20522254.845    23613536.694 8 -59405974.633 8
  23452226.008    23452229.904    49712300.176 8 -39250651.473 8
 86  6 11  2 41 23.0800000  0  4G12G13G 9G11
  21478773.758    21478775.320   -28796086.895 9  33408788.752 9
  20453569.870    20453573.825   -13766079.665 9  13757979.407 8
  20524503.010    20524505.047    23625357.662 8 -59396763.485 7
  23455409.448    23455412.524    49729024.297 9 -39237619.680 8
 86  6 11  2 41 29.0800000  0  4G12G13G 9G11
  21476198.807    21476200.660   -28809616.200 9  33398246.435 9
  20453783.349    20453786.505   -13764957.669 9  13758853.685 8
  20526757.765    20526760.423    23637202.309 8 -59387533.909 7
  23458591.035    23458594.802    49745748.908 9 -39224587.518 9
 86  6 11  2 41 35.0800000  0  4G12G13G 9G11
  21473627.180    21473629.539   -28823127.853 9  33387717.873 8
  20453999.938    20454003.052   -13763820.024 9  13759740.153 9
  20529015.892    20529018.862    23649070.534 8 -59378285.945 9
  23461775.665    23461778.523    49762474.051 9 -39211554.939 8
 86  6 11  2 41 41.0800000  0  4G12G13G 9G11
  21471059.865    21471062.091   -28836621.761 9  33377203.145 9
  20454219.712    20454222.640   -13762666.761 8  13760638.804 9
  20531278.657    20531282.692    23660962.434 8 -59369019.536 7
  23464957.788    23464961.496    49779199.767 9 -39198521.915 8
 86  6 11  2 41 47.0800000  0  4G12G13G 9G11
  21468496.165    21468497.959   -28850097.881 9  33366702.271 9
  20454442.549    20454445.368   -13761497.898 9  13761549.606 8
  20533547.322    20533547.948    23672877.874 8 -59359734.769 7
  23468140.265    23468142.764    49795925.996 9 -39185488.483 8
 86  6 11  2 41 53.0800000  0  4G12G13G 9G11
  21465934.080    21465936.403   -28863556.298 9  33356215.196 9
  20454666.875    20454670.670   -13760313.470 9  13762472.534 8
  20535818.623    20535819.703    23684816.925 8 -59350431.610 7
  23471323.197    23471325.914    49812652.710 8 -39172454.685 9
 86  6 11  2 41 59.0800000  0  4G12G13G 9G11
  21463376.099    21463378.467   -28876996.951 9  33345741.963 9
  20454896.022    20454898.015   -13759113.489 9  13763407.591 8
  20538095.510    20538094.985    23696779.654 9 -59341110.012 8
  23474505.763    23474509.095    49829379.888 8 -39159420.518 8
 86  6 11  2 42  5.0800000  0  4G12G13G 9G11
  21460822.465    21460824.894   -28890419.810 9  33335282.589 8
  20455127.120    20455130.815   -13757897.962 9  13764354.757 9
  20540376.387    20540377.013    23708765.847 8 -59331770.127 8
  23477688.557    23477692.568    49846107.517 8 -39146386.009 8
 86  6 11  2 42 11.0800000  0  4G12G13G 9G11
  21458271.461    21458273.175   -28903824.801 9  33324837.140 9
  20455360.839    20455364.524   -13756666.870 8  13765314.055 7
  20542661.928    20542661.720    23720775.608 7 -59322411.868 8
  23480872.416    23480875.783    49862835.613 7 -39133351.142 8
 86  6 11  2 42 17.0800000  0  4G12G13G 9G11
  21455723.744    21455726.680   -28917212.010 9  33314405.558 9
  20455598.511    20455601.664   -13755420.130 9  13766285.542 7
  20544950.703    20544952.622    23732808.943 8 -59313035.241 8
  23484055.877    23484059.585    49879564.190 8 -39120315.881 9
 86  6 11  2 42 23.0800000  0  4G12G13G 9G11
  21453179.328    21453182.936   -28930581.389 9  33303987.864 8
  20455838.689    20455841.680   -13754157.856 9  13767269.139 9
  20547245.487    20547246.462    23744865.791 8 -59303640.301 8
  23487239.027    23487243.317    49896293.197 9 -39107280.304 9
 86  6 11  2 42 29.0800000  0  4G12G13G 9G11
  21450638.670    21450641.349   -28943932.803 9  33293584.150 9
  20456081.978    20456084.198   -13752880.069 9  13768264.812 8
  20549543.859    20549546.221    23756946.195 8 -59294226.998 7
  23490423.646    23490426.549    49913022.572 8 -39094244.430 9
 86  6 11  2 42 35.0800000  0  4G12G13G 9G11
  21448101.662    21448104.282   -28957266.307 9  33283194.423 8
  20456327.793    20456330.545   -13751586.730 8  13769272.613 9
  20551848.153    20551849.051    23769050.106 8 -59284795.391 7
  23493606.655    23493610.080    49929752.324 7 -39081208.261 9
 86  6 11  2 42 41.0800000  0  4G12G13G 9G11
  21445566.829    21445570.367   -28970581.899 9  33272818.636 8
  20456576.708    20456579.599   -13750277.947 9  13770292.447 8
  20554154.718    20554156.437    23781177.513 9 -59275345.476 8
  23496790.063    23496793.678    49946482.542 8 -39068171.740 9
 86  6 11  2 42 47.0800000  0  4G12G13G 9G11
  21443037.735    21443040.406   -28983879.574 9  33262456.807 8
  20456829.041    20456831.899   -13748953.693 9  13771324.326 8
  20556467.684    20556468.148    23793328.417 8 -59265877.235 7
  23499974.206    23499977.412    49963213.179 8 -39055134.880 9
 86  6 11  2 42 53.0800000  0  4G12G13G 9G11
  21440510.950    21440512.838   -28997159.211 9  33252109.051 9
  20457084.733    20457085.893   -13747613.901 9  13772368.315 8
  20558784.409    20558785.427    23805502.703 8 -59256390.777 7
  23503156.980    23503161.177    49979944.187 9 -39042097.739 9
 86  6 11  2 42 59.0800000  0  4G12G13G 9G11
  21437986.391    21437988.756   -29010420.812 9  33241775.329 8
  20457342.798    20457344.561   -13746258.582 9  13773424.412 9
  20561105.703    20561107.847    23817700.414 8 -59246886.065 8
  23506340.733    23506345.407    49996675.542 9 -39029060.326 9
 86  6 11  2 43  5.0800000  0  4G12G13G 9G11
  21435466.807    21435469.053   -29023664.305 9  33231455.727 9
  20457603.004    20457605.973   -13744887.827 9  13774492.543 8
  20563431.033    20563432.204    23829921.683 8 -59237363.008 8
  23509525.160    23509528.541    50013407.240 8 -39016022.651 9
 86  6 11  2 43 11.0800000  0  4G12G13G 9G11
  21432950.135    21432952.878   -29036889.690 9  33221150.239 9
  20457866.318    20457870.654   -13743501.618 8  13775572.699 8
  20565760.855    20565762.956    23842166.301 8 -59227821.759 7
  23512709.640    23512712.027    50030139.236 9 -39002984.728 9
 86  6 11  2 43 17.0800000  0  4G12G13G 9G11
  21430436.427    21430438.811   -29050097.005 9  33210858.825 8
  20458134.064    20458135.718   -13742100.031 9  13776664.851 7
  20568095.028    20568097.710    23854434.356 8 -59218262.238 8
  23515892.009    23515897.678    50046871.629 8 -38989946.517 9
 86  6 11  2 43 23.0800000  0  4G12G13G 9G11
  21427926.342    21427929.589   -29063286.284 9  33200581.468 9
  20458403.396    20458405.753   -13740683.109 8  13777768.948 9
  20570434.762    20570436.625    23866725.911 8 -59208684.415 8
  23519078.103    23519081.043    50063604.316 8 -38976908.052 9
 86  6 11  2 43 29.0800000  0  4G12G13G 9G11
  21425420.449    21425423.105   -29076457.467 9  33190318.207 9
  20458676.235    20458679.110   -13739250.849 9  13778884.992 8
  20572778.064    20572778.938    23879040.769 8 -59199088.410 7
  23522262.387    23522264.463    50080337.339 7 -38963869.345 9
 86  6 11  2 43 35.0800000  0  4G12G13G 9G11
  21422916.684    21422920.246   -29089610.470 9  33180069.113 9
  20458951.110    20458954.488   -13737803.225 8  13780013.005 7
  20575125.297    20575126.365    23891379.018 8 -59189474.202 8
  23525444.658    23525450.096    50097070.623 8 -38950830.428 9
 86  6 11  2 43 41.0800000  0  4G12G13G 9G11
  21420417.424    21420420.552   -29102745.334 9  33169834.154 9
  20459229.931    20459232.389   -13736340.195 8  13781153.032 8
  20577479.186    20577479.903    23903740.674 9 -59179841.749 8
  23528630.175    23528634.086    50113804.230 8 -38937791.258 9
 86  6 11  2 43 47.0800000  0  4G12G13G 9G11
  21417921.627    21417925.086   -29115862.053 9  33159613.338 8
  20459512.276    20459512.988   -13734861.802 9  13782305.031 8
  20579833.993    20579837.114    23916125.676 8 -59170191.098 7
  23531815.005    23531818.747    50130538.145 8 -38924751.847 8
 86  6 11  2 43 53.0800000  0  4G12G13G 9G11
  21415429.538    21415431.447   -29128960.562 9  33149406.708 9
  20459795.254    20459797.757   -13733367.915 9  13783469.093 8
  20582196.098    20582198.431    23928533.975 8 -59160522.296 7
  23534999.545    23535003.019    50147272.298 9 -38911712.244 9
 86  6 11  2 43 59.0800000  0  4G12G13G 9G11
  21412940.031    21412942.184   -29142040.890 9  33139214.251 9
  20460082.821    20460084.649   -13731858.754 9  13784645.058 9
  20584561.188    20584564.079    23940965.608 8 -59150835.317 8
  23538184.969    23538186.989    50164006.654 8 -38898672.491 9
 86  6 11  2 44  5.0800000  0  4G12G13G 9G11
  21410454.174    21410457.783   -29155102.929 9  33129036.032 8
  20460373.174    20460374.313   -13730334.292 8  13785832.963 9
  20586931.323    20586933.801    23953420.561 8 -59141130.170 8
  23541367.958    23541372.334    50180741.240 8 -38885632.561 9
 86  6 11  2 44 11.0800000  0  4G12G13G 9G11
  21407972.223    21407974.961   -29168146.625 9  33118872.115 8
  20460665.801    20460667.147   -13728794.521 8  13787032.789 7
  20589306.927    20589309.851    23965898.801 8 -59131406.869 7
  23544552.392    23544556.587    50197476.075 8 -38872592.431 9
 86  6 11  2 44 17.0800000  0  4G12G13G 9G11
  21405493.253    21405495.116   -29181172.035 9  33108722.449 9
  20460961.842    20460964.016   -13727239.459 9  13788244.523 8
  20591685.677    20591686.875    23978400.305 8 -59121665.429 7
  23547737.213    23547740.900    50214211.145 9 -38859552.122 9
 86  6 11  2 44 23.0800000  0  4G12G13G 9G11
  21403017.942    21403021.699   -29194179.116 9  33098587.061 9
  20461260.127    20461262.021   -13725669.177 9  13789468.123 8
  20594068.204    20594070.681    23990925.133 8 -59111905.834 9
  23550922.531    23550925.895    50230946.398 9 -38846511.666 9
 86  6 11  2 44 29.0800000  0  4G12G13G 9G11
  21400546.429    21400549.237   -29207167.904 9  33088465.919 8
  20461561.438    20461563.407   -13724083.666 8  13790703.578 8
  20596456.780    20596457.641    24003473.080 9 -59102128.221 8
  23554106.853    23554110.200    50247681.820 8 -38833471.084 9
 86  6 11  2 44 35.0800000  0  4G12G13G 9G11
  21398078.909    21398080.919   -29220138.365 9  33078359.079 8
  20461866.591    20461868.007   -13722482.988 9  13791950.861 9
  20598848.533    20598850.301    24016044.331 9 -59092332.436 7
  23557291.310    23557294.281    50264417.367 8 -38820430.390 9
 86  6 11  2 44 41.0800000  0  4G12G13G 9G11
  21395614.338    21395616.401   -29233090.400 9  33068266.577 8
  20462173.764    20462175.933   -13720867.109 9  13793209.986 9
  20601245.508    20601247.301    24028638.794 8 -59082518.573 8
  23560475.793    23560480.096    50281153.079 9 -38807389.585 9
 86  6 11  2 44 47.0800000  0  4G12G13G 9G11
  21393153.031    21393154.813   -29246024.025 9  33058188.430 9
  20462484.174    20462486.585   -13719235.993 9  13794480.995 8
  20603646.586    20603648.012    24041256.444 9 -59072686.646 8
  23563660.584    23563664.558    50297888.936 8 -38794348.653 9
 86  6 11  2 44 53.0800000  0  4G12G13G 9G11
  21390695.232    21390697.846   -29258939.247 9  33048124.618 9
  20462797.110    20462799.039   -13717589.700 9  13795763.814 9
  20606053.663    20606054.026    24053897.329 8 -59062836.601 7
  23566844.016    23566849.874    50314624.928 8 -38781307.633 9
 86  6 11  2 44 59.0800000  0  4G12G13G 9G11
  21388240.957    21388243.155   -29271836.049 9  33038075.169 8
  20463113.515    20463114.470   -13715928.308 9  13797058.411 8
  20608463.313    20608464.361    24066561.372 8 -59052968.524 8
  23570030.366    23570033.784    50331361.066 7 -38768266.488 9
 86  6 11  2 45  5.0800000  0  4G12G13G 9G11
  21385790.259    21385792.998   -29284714.382 9  33028040.106 9
  20463432.331    20463434.426   -13714251.767 9  13798364.801 8
  20610877.664    20610879.447    24079248.564 8 -59043082.395 8
  23573214.826    23573218.879    50348097.348 8 -38755225.227 9
 86  6 11  2 45 11.0800000  0  4G12G13G 9G11
  21383341.824    21383345.503   -29297574.216 9  33018019.454 9
  20463755.153    20463756.555   -13712560.017 9  13799683.048 8
  20613294.863    20613297.290    24091958.954 8 -59033178.208 8
  23576399.533    23576404.044    50364833.728 8 -38742183.909 9
 86  6 11  2 45 17.0800000  0  4G12G13G 9G11
  21380898.802    21380902.518   -29310415.586 9  33008013.201 9
  20464079.571    20464081.056   -13710853.107 9  13801013.103 8
  20615717.519    20615719.484    24104692.401 8 -59023256.045 8
  23579584.001    23579588.362    50381570.154 8 -38729142.531 9
 86  6 11  2 45 23.0800000  0  4G12G13G 9G11
  21378459.045    21378460.901   -29323238.382 9  32998021.411 8
  20464407.662    20464409.367   -13709131.022 9  13802354.996 9
  20618145.466    20618146.827    24117449.092 8 -59013315.765 7
  23582768.858    23582773.586    50398306.697 8 -38716101.081 8
 86  6 11  2 45 29.0800000  0  4G12G13G 9G11
  21376022.893    21376024.593   -29336042.641 9  32988044.071 9
  20464737.573    20464738.903   -13707393.834 9  13803708.656 8
  20620578.257    20620578.645    24130228.781 8 -59003357.567 8
  23585954.086    23585958.251    50415043.237 8 -38703059.623 9
 86  6 11  2 45 35.0800000  0  4G12G13G 9G11
  21373589.770    21373592.783   -29348828.266 9  32978081.228 9
  20465071.487    20465073.314   -13705641.466 9  13805074.137 8
  20623013.602    20623016.436    24143031.628 8 -58993381.337 8
  23589138.307    23589141.780    50431779.832 8 -38690018.121 9
 86  6 11  2 45 41.0800000  0  4G12G13G 9G11
  21371160.687    21371163.687   -29361595.321 9  32968132.886 9
  20465407.415    20465409.450   -13703873.996 9  13806451.379 8
  20625453.176    20625457.145    24155857.534 7 -58983387.131 9
  23592323.329    23592327.406    50448516.484 8 -38676976.581 9
 86  6 11  2 45 47.0800000  0  4G12G13G 9G11
  21368734.443    21368736.693   -29374343.781 9  32958199.030 9
  20465746.154    20465748.464   -13702091.467 9  13807840.372 9
  20627898.659    20627901.870    24168706.545 7 -58973374.906 8
  23595508.381    23595513.002    50465253.243 8 -38663934.937 9
 86  6 11  2 45 53.0800000  0  4G12G13G 9G11
  21366312.260    21366314.064   -29387073.587 9  32948279.695 9
  20466089.508    20466090.888   -13700293.915 9  13809241.059 8
  20630349.555    20630351.669    24181578.679 9 -58963344.689 8
  23598694.017    23598697.366    50481990.037 6 -38650893.292 8
 86  6 11  2 45 59.0800000  0  4G12G13G 9G11
  21363892.932    21363895.095   -29399784.705 9  32938374.941 9
  20466434.703    20466435.419   -13698481.351 9  13810653.434 9
  20632801.635    20632804.790    24194473.807 8 -58953296.544 7
  23601878.494    23601881.921    50498726.817 7 -38637851.647 8
 86  6 11  2 46  5.0800000  0  4G12G13G 9G11
  21361477.730    21361479.573   -29412477.117 9  32928484.740 9
  20466780.763    20466783.922   -13696653.776 9  13812077.533 9
  20635260.409    20635263.622    24207391.919 8 -58943230.490 8
  23605063.444    23605066.889    50515463.588 7 -38624810.014 7
 86  6 11  2 46 11.0800000  0  4G12G13G 9G11
  21359066.481    21359068.802   -29425150.776 9  32918609.159 9
  20467132.465    20467134.346   -13694811.221 9  13813513.286 8
  20637723.389    20637726.917    24220333.081 8 -58933146.471 7
  23608248.868    23608251.874    50532200.325 7 -38611768.407 9
 86  6 11  2 46 17.0800000  0  4G12G13G 9G11
  21356657.329    21356660.557   -29437805.721 9  32908748.166 8
  20467485.930    20467488.114   -13692953.630 9  13814960.762 9
  20640189.995    20640191.992    24233297.327 9 -58923044.464 9
  23611433.410    23611436.791    50548936.997 9 -38598726.845 9
 86  6 11  2 46 23.0800000  0  4G12G13G 9G11
  21354253.600    21354255.874   -29450441.846 9  32898901.844 9
  20467842.089    20467844.415   -13691081.006 9  13816419.950 8
  20642661.831    20642664.623    24246284.513 8 -58912924.579 8
  23614618.055    23614620.999    50565673.692 9 -38585685.267 9
 86  6 11  2 46 29.0800000  0  4G12G13G 9G11
  21351851.767    21351854.458   -29463059.262 9  32889070.106 9
  20468201.304    20468203.675   -13689193.424 9  13817890.798 8
  20645137.550    20645140.742    24259294.628 8 -58902786.835 8
  23617803.201    23617805.898    50582410.337 8 -38572643.722 9
 86  6 11  2 46 35.0800000  0  4G12G13G 9G11
  21349455.385    21349457.621   -29475657.882 9  32879252.993 8
  20468563.153    20468565.025   -13687290.835 9  13819373.334 9
  20647616.891    20647621.307    24272327.659 8 -58892631.221 8
  23620988.415    23620991.193    50599146.892 9 -38559602.257 9
 86  6 11  2 46 41.0800000  0  4G12G13G 9G11
  21347061.387    21347063.194   -29488237.752 9  32869450.491 9
  20468928.669    20468930.425   -13685373.323 9  13820867.495 8
  20650101.421    20650105.619    24285383.643 9 -58882457.750 7
  23624172.185    23624175.126    50615883.337 8 -38546560.885 9
 86  6 11  2 46 47.0800000  0  4G12G13G 9G11
  21344671.065    21344672.422   -29500798.756 9  32859662.696 8
  20469295.818    20469297.271   -13683440.902 9  13822373.286 9
  20652590.616    20652593.645    24298462.609 7 -58872266.344 8
  23627358.384    23627361.234    50632619.662 9 -38533519.587 9
 86  6 11  2 46 53.0800000  0  4G12G13G 9G11
  21342284.494    21342286.846   -29513340.839 9  32849889.640 9
  20469667.166    20469668.624   -13681493.588 9  13823890.678 9
  20655084.307    20655087.872    24311564.495 8 -58862057.094 7
  23630541.851    23630545.716    50649355.952 8 -38520478.319 8
 86  6 11  2 46 59.0800000  0  4G12G13G 9G11
  21339901.159    21339904.006   -29525863.999 9  32840131.340 9
  20470040.699    20470042.238   -13679531.412 9  13825419.642 8
  20657582.975    20657583.706    24324689.286 9 -58851829.991 8
  23633727.958    23633730.518    50666092.131 9 -38507437.147 9
 86  6 11  2 47  5.0800000  0  4G12G13G 9G11
  21337521.524    21337524.346   -29538368.242 9  32830387.779 9
  20470416.485    20470418.351   -13677554.356 9  13826960.210 9
  20660083.470    20660086.345    24337836.881 9 -58841585.102 8
  23636912.486    23636915.825    50682828.189 9 -38494396.070 9
 86  6 11  2 47 11.0800000  0  4G12G13G 9G11
  21335145.594    21335148.528   -29550853.553 9  32820658.967 8
  20470795.964    20470797.307   -13675562.444 9  13828512.344 9
  20662591.037    20662592.868    24351007.453 9 -58831322.315 8
  23640097.014    23640100.404    50699564.145 9 -38481355.072 9
 86  6 11  2 47 17.0800000  0  4G12G13G 9G11
  21332774.656    21332775.887   -29563319.913 9  32810944.917 8
  20471176.534    20471179.632   -13673555.616 9  13830076.109 9
  20665101.172    20665102.609    24364200.895 9 -58821041.723 8
  23643281.542    23643284.949    50716300.013 9 -38468314.140 9
 86  6 11  2 47 23.0800000  0  4G12G13G 9G11
  21330405.448    21330408.725   -29575767.250 9  32801245.692 9
  20471562.967    20471563.120   -13671533.964 9  13831651.426 8
  20667615.211    20667618.632    24377417.136 8 -58810743.367 8
  23646466.144    23646469.855    50733035.756 9 -38455273.304 9
 86  6 11  2 47 29.0800000  0  4G12G13G 9G11
  21328040.460    21328043.494   -29588195.633 9  32791561.237 9
  20471949.402    20471952.559   -13669497.489 9  13833238.283 9
  20670135.011    20670138.189    24390656.183 8 -58800427.211 9
  23649651.167    23649654.102    50749771.339 9 -38442232.584 9
 86  6 11  2 47 35.0800000  0  4G12G13G 9G11
  21325679.001    21325681.512   -29600604.939 9  32781891.651 9
  20472340.073    20472342.356   -13667446.205 9  13834836.686 8
  20672658.621    20672661.309    24403918.049 8 -58790093.309 8
  23652836.004    23652840.073    50766506.744 9 -38429192.004 9
 86  6 11  2 47 41.0800000  0  4G12G13G 9G11
  21323320.624    21323323.211   -29612995.224 9  32772236.879 9
  20472732.888    20472734.817   -13665380.116 9  13836446.641 9
  20675186.483    20675189.935    24417202.680 8 -58779741.662 8
  23656019.779    23656024.589    50783241.986 9 -38416151.562 9
 86  6 11  2 47 47.0800000  0  4G12G13G 9G11
  21320967.625    21320969.459   -29625366.441 9  32762596.979 9
  20473128.680    20473130.909   -13663299.344 9  13838068.019 8
  20677718.998    20677720.800    24430510.100 9 -58769372.245 7
  23659204.734    23659208.648    50799977.019 9 -38403111.275 9
 86  6 11  2 47 53.0800000  0  4G12G13G 9G11
  21318615.611    21318619.041   -29637718.575 9  32752971.943 9
  20473527.333    20473529.290   -13661203.764 9  13839700.931 9
  20680255.601    20680257.453    24443840.297 9 -58758985.075 7
  23662389.671    23662394.669    50816711.815 9 -38390071.175 9
 86  6 11  2 47 59.0800000  0  4G12G13G 9G11
  21316268.776    21316272.713   -29650051.619 9  32743361.779 9
  20473929.681    20473931.481   -13659093.396 9  13841345.382 9
  20682796.640    20682797.373    24457193.233 9 -58748580.184 8
  23665572.891    23665578.315    50833446.445 9 -38377031.211 8
 86  6 11  2 48  5.0800000  0  4G12G13G 9G11
  21313925.503    21313928.324   -29662365.550 9  32733766.501 9
  20474333.659    20474334.973   -13656968.228 9  13843001.352 8
  20685342.948    20685342.588    24470568.779 8 -58738157.692 7
  23668757.731    23668762.214    50850180.807 9 -38363991.433 9
 86  6 11  2 48 11.0800000  0  4G12G13G 9G11
  21311586.516    21311589.283   -29674660.285 9  32724186.196 9
  20474740.725    20474742.711   -13654828.276 9  13844668.845 8
  20687891.783    20687894.668    24483967.165 8 -58727717.387 8
  23671942.777    23671947.074    50866914.987 9 -38350951.823 9
 86  6 11  2 48 17.0800000  0  4G12G13G 9G11
  21309250.186    21309253.646   -29686935.859 9  32714620.818 8
  20475150.887    20475153.715   -13652673.668 9  13846347.764 9
  20690445.806    20690447.192    24497388.286 8 -58717259.384 8
  23675126.921    23675132.082    50883648.899 9 -38337912.414 9
 86  6 11  2 48 23.0800000  0  4G12G13G 9G11
  21306917.988    21306920.347   -29699192.256 9  32705070.367 9
  20475563.792    20475566.735   -13650504.283 9  13848038.189 9
  20693003.309    20693005.295    24510831.997 9 -58706783.762 8
  23678311.343    23678315.169    50900382.580 9 -38324873.172 9
 86  6 11  2 48 29.0800000  0  4G12G13G 9G11
  21304589.581    21304591.568   -29711429.464 9  32695534.885 9
  20475979.161    20475981.419   -13648320.200 9  13849740.083 9
  20695567.185    20695568.192    24524298.491 8 -58696290.397 9
  23681494.729    23681499.788    50917115.974 9 -38311834.163 8
 86  6 11  2 48 35.0800000  0  4G12G13G 9G11
  21302264.611    21302266.866   -29723647.458 9  32686014.371 8
  20476397.304    20476400.019   -13646121.475 9  13851453.374 9
  20698134.026    20698136.159    24537787.648 8 -58685779.357 8
  23684680.410    23684683.583    50933849.047 9 -38298795.403 9
 86  6 11  2 48 41.0800000  0  4G12G13G 9G11
  21299943.004    21299946.242   -29735846.224 9  32676508.843 8
  20476819.142    20476820.738   -13643908.067 9  13853178.108 9
  20700704.827    20700706.746    24551299.454 9 -58675250.685 8
  23687864.609    23687868.454    50950581.805 9 -38285756.889 9
 86  6 11  2 48 47.0800000  0  4G12G13G 9G11
  21297625.214    21297627.193   -29748025.665 9  32667018.369 9
  20477243.033    20477245.205   -13641679.977 9  13854914.284 8
  20703280.703    20703282.027    24564833.853 9 -58664704.405 8
  23691047.832    23691051.563    50967314.264 9 -38272718.611 9
 86  6 11  2 48 53.0800000  0  4G12G13G 9G11
  21295310.817    21295314.065   -29760185.812 9  32657542.934 8
  20477669.393    20477671.591   -13639437.307 9  13856661.825 8
  20705860.258    20705860.626    24578390.893 9 -58654140.477 7
  23694232.214    23694235.072    50984046.399 9 -38259680.577 9
 86  6 11  2 48 59.0800000  0  4G12G13G 9G11
  21292999.494    21293004.556   -29772326.689 9  32648082.508 8
  20478099.354    20478101.153   -13637180.095 9  13858420.687 8
  20708444.666    20708446.026    24591970.452 9 -58643559.015 7
  23697416.736    23697419.794    51000778.209 9 -38246642.810 9
 86  6 11  2 49  5.0800000  0  4G12G13G 9G11
  21290693.993    21290696.668   -29784448.240 9  32638637.150 9
  20478531.606    20478533.131   -13634908.339 9  13860190.892 9
  20711033.096    20711033.842    24605572.622 8 -58632959.924 7
  23700600.228    23700603.750    51017509.683 9 -38233605.291 8
 86  6 11  2 49 11.0800000  0  4G12G13G 9G11
  21288391.988    21288393.625   -29796550.398 9  32629206.889 9
  20478967.381    20478967.663   -13632621.993 9  13861972.465 8
  20713625.496    20713627.839    24619197.365 8 -58622343.250 7
  23703784.083    23703786.160    51034240.751 9 -38220568.105 9
 86  6 11  2 49 17.0800000  0  4G12G13G 9G11
  21286092.144    21286095.329   -29808633.226 9  32619791.712 9
  20479405.157    20479405.955   -13630321.058 9  13863765.397 8
  20716222.366    20716224.698    24632844.643 9 -58611709.011 8
  23706968.159    23706970.860    51050971.456 9 -38207531.185 9
 86  6 11  2 49 23.0800000  0  4G12G13G 9G11
  21283796.355    21283799.274   -29820696.698 9  32610391.611 9
  20479845.594    20479847.309   -13628005.521 9  13865569.711 9
  20718824.031    20718825.823    24646514.506 9 -58601057.168 7
  23710151.725    23710154.998    51067701.752 9 -38194494.594 9
 86  6 11  2 49 29.0800000  0  4G12G13G 9G11
  21281504.362    21281506.735   -29832740.697 9  32601006.675 9
  20480289.180    20480290.336   -13625675.465 9  13867385.342 9
  20721429.031    20721430.810    24660206.859 9 -58590387.812 7
  23713335.089    23713337.231    51084431.694 9 -38181458.284 9
 86  6 11  2 49 35.0800000  0  4G12G13G 9G11
  21279216.399    21279218.938   -29844765.162 9  32591636.955 9
  20480735.170    20480735.594   -13623330.883 9  13869212.290 8
  20724039.102    20724040.283    24673921.595 9 -58579701.001 7
  23716518.718    23716521.009    51101161.258 9 -38168422.252 9
 86  6 11  2 49 41.0800000  0  4G12G13G 9G11
  21276931.606    21276934.290   -29856770.237 9  32582282.346 8
  20481183.223    20481185.104   -13620971.765 9  13871050.565 8
  20726653.318    20726654.084    24687658.904 9 -58568996.610 8
  23719701.634    23719703.832    51117890.456 9 -38155386.507 9
 86  6 11  2 49 47.0800000  0  4G12G13G 9G11
  21274650.644    21274653.642   -29868755.792 9  32572942.960 9
  20481634.876    20481637.289   -13618598.196 9  13872900.100 8
  20729272.015    20729273.821    24701418.711 9 -58558274.681 8
  23722885.103    23722888.147    51134619.251 9 -38142351.100 9
 86  6 11  2 49 53.0800000  0  4G12G13G 9G11
  21272372.999    21272376.628   -29880721.817 9  32563618.787 9
  20482089.336    20482092.177   -13616210.128 9  13874760.935 8
  20731894.718    20731896.198    24715201.027 9 -58547535.219 7
  23726068.759    23726070.614    51151347.587 9 -38129316.033 9
 86  6 11  2 49 59.0800000  0  4G12G13G 9G11
  21270099.227    21270102.439   -29892668.252 9  32554309.880 8
  20482546.426    20482548.741   -13613807.580 9  13876633.056 8
  20734520.945    20734522.975    24729005.759 9 -58536778.290 7
  23729251.057    23729254.135    51168075.515 9 -38116281.276 9
 86  6 11  2 50  5.0800000  0  4G12G13G 9G11
  21267830.265    21267832.777   -29904595.107 9  32545016.227 9
  20483007.011    20483008.412   -13611390.525 9  13878516.470 9
  20737153.089    20737155.446    24742832.876 9 -58526003.916 8
  23732435.447    23732437.799    51184803.041 9 -38103246.853 9
 86  6 11  2 50 11.0800000  0  4G12G13G 9G11
  21265564.354    21265567.276   -29916502.449 9  32535737.784 8
  20483468.857    20483471.326   -13608959.068 9  13880411.116 9
  20739787.642    20739790.180    24756682.403 9 -58515212.089 8
  23735617.905    23735620.679    51201530.132 9 -38090212.757 8
 86  6 11  2 50 17.0800000  0  4G12G13G 9G11
  21263302.437    21263305.914   -29928390.134 9  32526474.651 9
  20483934.882    20483936.923   -13606513.214 9  13882316.977 8
  20742428.500    20742429.094    24770554.282 9 -58504402.831 7
  23738800.020    23738804.610    51218256.725 9 -38077179.056 8
 86  6 11  2 50 23.0800000  0  4G12G13G 9G11
  21261044.103    21261047.472   -29940258.283 9  32517226.750 9
  20484402.732    20484406.175   -13604052.990 9  13884234.028 9
  20745072.250    20745073.919    24784448.655 9 -58493576.046 8
  23741983.893    23741987.203    51234982.821 9 -38064145.733 9
 86  6 11  2 50 29.0800000  0  4G12G13G 9G11
  21258789.509    21258792.011   -29952106.796 9  32507994.132 9
  20484874.078    20484876.106   -13601578.305 9  13886162.365 8
  20747719.350    20747721.454    24798365.218 9 -58482731.977 8
  23745166.860    23745170.847    51251708.439 9 -38051112.796 9
 86  6 11  2 50 35.0800000  0  4G12G13G 9G11
  21256538.101    21256540.637   -29963935.667 9  32498776.834 9
  20485347.570    20485349.797   -13599089.229 9  13888101.905 8
  20750372.674    20750374.168    24812304.233 9 -58471870.407 8
  23748348.925    23748352.783    51268433.562 9 -38038080.227 8
 86  6 11  2 50 41.0800000  0  4G12G13G 9G11
  21254290.920    21254293.133   -29975744.818 9  32489574.904 9
  20485824.233    20485827.149   -13596585.750 8  13890052.660 9
  20753029.015    20753030.905    24826265.582 8 -58460991.437 8
  23751531.538    23751535.870    51285158.183 9 -38025048.056 9
 86  6 11  2 50 47.0800000  0  4G12G13G 9G11
  21252047.799    21252049.835   -29987534.222 9  32480388.354 8
  20486303.254    20486305.736   -13594067.979 9  13892014.569 8
  20755689.843    20755692.316    24840249.258 9 -58450095.070 7
  23754713.551    23754718.630    51301882.283 9 -38012016.291 9
 86  6 11  2 50 53.0800000  0  4G12G13G 9G11
  21249807.815    21249810.612   -29999303.880 9  32471217.201 9
  20486785.070    20486788.046   -13591535.902 9  13893987.604 9
  20758356.069    20758358.213    24854255.208 8 -58439181.355 7
  23757897.373    23757900.942    51318605.877 9 -37998984.925 9
 86  6 11  2 50 59.0800000  0  4G12G13G 9G11
  21247571.640    21247575.624   -30011053.834 9  32462061.390 9
  20487268.609    20487271.509   -13588989.501 9  13895971.817 9
  20761025.988    20761027.166    24868283.460 9 -58428250.247 8
  23761078.219    23761083.633    51335328.878 8 -37985954.023 8
 86  6 11  2 51  5.0800000  0  4G12G13G 9G11
  21245340.608    21245342.755   -30022784.034 9  32452920.968 9
  20487756.696    20487759.594   -13586428.763 9  13897967.200 8
  20763699.876    20763701.096    24882333.955 9 -58417301.809 9
  23764261.102    23764266.300    51352051.302 9 -37972923.562 8
 86  6 11  2 51 11.0800000  0  4G12G13G 9G11
  21243111.948    21243114.064   -30034494.425 9  32443795.994 9
  20488246.815    20488248.899   -13583853.710 9  13899973.733 9
  20766377.571    20766379.667    24896406.763 9 -58406336.006 8
  23767443.715    23767447.156    51368773.157 9 -37959893.539 8
 86  6 11  2 51 17.0800000  0  4G12G13G 9G11
  21240887.143    21240888.733   -30046184.934 9  32434686.507 9
  20488739.224    20488741.277   -13581264.403 9  13901991.372 7
  20769059.111    20769061.342    24910501.762 9 -58395352.877 7
  23770624.999    23770629.942    51385494.391 9 -37946864.019 8
 86  6 11  2 51 23.0800000  0  4G12G13G 9G11
  21238666.377    21238668.793   -30057855.600 9  32425592.486 9
  20489235.837    20489236.890   -13578660.818 9  13904020.150 8
  20771745.030    20771746.378    24924619.035 9 -58384352.415 8
  23773807.070    23773811.803    51402215.080 9 -37933834.901 9
 86  6 11  2 51 29.0800000  0  4G12G13G 9G11
  21236449.453    21236451.504   -30069506.469 9  32416513.888 9
  20489733.856    20489735.580   -13576042.990 9  13906060.001 9
  20774435.626    20774437.884    24938758.529 9 -58373334.629 8
  23776989.280    23776992.753    51418935.240 9 -37920806.213 9
 86  6 11  2 51 35.0800000  0  4G12G13G 9G11
  21234235.547    21234238.043   -30081137.424 9  32407450.806 9
  20490234.391    20490236.362   -13573411.025 9  13908110.893 9
  20777131.072    20777132.140    24952920.142 9 -58362299.620 8
  23780170.014    23780174.299    51435654.793 8 -37907777.985 9
 86  6 11  2 51 41.0800000  0  4G12G13G 9G11
  21232026.256    21232028.721   -30092748.457 9  32398403.247 9
  20490737.900    20490739.658   -13570764.738 9  13910172.925 8
  20779830.176    20779831.677    24967103.950 9 -58351247.293 8
  23783351.843    23783356.561    51452373.743 9 -37894750.243 8
 86  6 11  2 51 47.0800000  0  4G12G13G 9G11
  21229820.703    21229822.839   -30104339.635 9  32389371.175 9
  20491244.622    20491245.646   -13568104.205 9  13912246.056 8
  20782534.161    20782534.940    24981309.838 9 -58340177.774 8
  23786532.834    23786537.512    51469092.095 9 -37881722.949 8
 86  6 11  2 51 53.0800000  0  4G12G13G 9G11
  21227618.404    21227620.786   -30115910.883 9  32380354.626 9
  20491752.426    20491755.370   -13565429.495 9  13914330.266 8
  20785242.261    20785242.300    24995537.897 9 -58329090.978 8
  23789714.205    23789718.940    51485809.807 9 -37868696.157 9
 86  6 11  2 51 59.0800000  0  4G12G13G 9G11
  21225420.624    21225422.773   -30127462.238 9  32371353.559 9
  20492265.069    20492266.063   -13562740.694 9  13916425.442 8
  20787953.353    20787954.489    25009788.115 9 -58317986.919 8
  23792895.266    23792899.075    51502526.839 9 -37855669.889 8
 86  6 11  2 52  5.0800000  0  4G12G13G 9G11
  21223226.478    21223229.512   -30138993.637 9  32362368.055 8
  20492778.941    20492781.039   -13560037.757 9  13918531.625 8
  20790668.790    20790669.260    25024060.309 9 -58306865.736 8
  23796076.853    23796079.644    51519243.218 9 -37842644.145 8
 86  6 11  2 52 11.0800000  0  4G12G13G 9G11
  21221036.645    21221037.618   -30150504.997 9  32353398.177 9
  20493296.706    20493297.584   -13557320.611 9  13920648.880 9
  20793388.604    20793390.487    25038354.705 9 -58295727.264 8
  23799258.702    23799260.516    51535958.912 8 -37829618.914 8
 86  6 11  2 52 17.0800000  0  4G12G13G 9G11
  21218849.195    21218851.706   -30161996.397 9  32344443.836 9
  20493814.957    20493818.284   -13554589.380 8  13922777.121 9
  20796112.725    20796114.213    25052671.053 9 -58284571.664 8
  23802437.313    23802441.185    51552673.946 9 -37816594.209 8
 86  6 11  2 52 23.0800000  0  4G12G13G 9G11
  21216666.566    21216668.077   -30173467.786 9  32335505.092 9
  20494337.924    20494340.803   -13551843.955 9  13924916.408 9
  20798841.623    20798843.046    25067009.495 9 -58273398.851 7
  23805619.169    23805622.188    51569388.296 9 -37803570.041 9
 86  6 11  2 52 29.0800000  0  4G12G13G 9G11
  21214487.659    21214488.982   -30184919.140 9  32326581.963 9
  20494862.846    20494865.404   -13549084.458 9  13927066.668 9
  20801573.815    20801575.437    25081369.961 8 -58262208.884 8
  23808799.902    23808801.608    51586101.937 9 -37790546.420 8
 86  6 11  2 52 35.0800000  0  4G12G13G 9G11
  21212312.270    21212314.523   -30196350.339 9  32317674.532 9
  20495390.512    20495393.554   -13546310.884 9  13929227.891 8
  20804311.613    20804312.727    25095752.429 9 -58251001.774 7
  23811980.015    23811983.008    51602814.840 9 -37777523.377 7
 86  6 11  2 52 41.0800000  0  4G12G13G 9G11
  21210141.528    21210142.702   -30207761.405 9  32308782.795 9
  20495921.441    20495924.642   -13543523.232 9  13931400.095 9
  20807051.822    20807053.263    25110156.928 9 -58239777.488 8
  23815161.236    23815162.343    51619527.068 9 -37764500.870 8
 86  6 11  2 52 47.0800000  0  4G12G13G 9G11
  21207973.050    21207976.473   -30219152.357 9  32299906.737 9
  20496454.572    20496457.645   -13540721.489 9  13933583.269 9
  20809797.118    20809799.293    25124583.375 9 -58228536.109 8
  23818341.001    23818342.971    51636238.568 9 -37751478.907 7
 86  6 11  2 52 53.0800000  0  4G12G13G 9G11
  21205809.194    21205811.561   -30230523.162 9  32291046.370 9
  20496990.425    20496992.923   -13537905.680 9  13935777.406 9
  20812547.272    20812549.477    25139031.836 8 -58217277.574 7
  23821520.420    23821523.417    51652949.320 9 -37738457.533 8
 86  6 11  2 52 59.0800000  0  4G12G13G 9G11
  21203649.067    21203651.978   -30241873.825 9  32282201.703 9
  20497529.480    20497531.879   -13535075.854 9  13937982.467 8
  20815299.499    20815303.658    25153502.279 9 -58206001.917 8
  23824700.353    23824702.523    51669659.362 9 -37725436.733 9
 86  6 11  2 53  5.0800000  0  4G12G13G 9G11
  21201493.272    21201496.647   -30253204.304 9  32273372.764 9
  20498070.566    20498072.569   -13532232.004 9  13940198.448 8
  20818058.988    20818060.367    25167994.604 9 -58194709.197 7
  23827880.533    23827881.870    51686368.632 8 -37712416.520 8
 86  6 11  2 53 11.0800000  0  4G12G13G 9G11
  21199340.884    21199343.411   -30264514.601 9  32264559.545 9
  20498614.377    20498616.689   -13529374.151 9  13942425.340 9
  20820820.394    20820822.631    25182508.933 9 -58183399.343 8
  23831059.614    23831060.894    51703077.109 8 -37699396.908 8
 86  6 11  2 53 17.0800000  0  4G12G13G 9G11
  21197192.015    21197195.424   -30275804.697 9  32255762.077 9
  20499161.732    20499163.646   -13526502.363 9  13944663.108 8
  20823586.225    20823588.488    25197045.134 8 -58172072.428 8
  23834239.128    23834239.930    51719784.804 9 -37686377.936 8
 86  6 11  2 53 23.0800000  0  4G12G13G 9G11
  21195047.373    21195050.086   -30287074.561 9  32246980.354 9
  20499709.973    20499712.431   -13523616.567 9  13946911.775 8
  20826356.681    20826357.474    25211603.160 8 -58160728.516 8
  23837419.348    23837420.815    51736491.699 9 -37673359.568 8
 86  6 11  2 53 29.0800000  0  4G12G13G 9G11
  21192907.711    21192909.438   -30298324.147 9  32238214.460 9
  20500261.623    20500263.960   -13520716.779 9  13949171.354 9
  20829131.805    20829132.032    25226183.021 9 -58149367.586 7
  23840597.292    23840599.999    51753197.727 9 -37660341.880 8
 86  6 11  2 53 35.0800000  0  4G12G13G 9G11
  21190770.487    21190773.075   -30309553.432 9  32229464.368 9
  20500815.819    20500819.503   -13517802.991 8  13951441.846 8
  20831908.506    20831911.200    25240784.746 8 -58137989.612 8
  23843775.869    23843777.882    51769902.977 9 -37647324.795 7
 86  6 11  2 53 41.0800000  0  4G12G13G 9G11
  21188636.840    21188638.962   -30320762.419 9  32220730.088 9
  20501372.791    20501375.257   -13514875.335 9  13953723.141 9
  20834691.686    20834693.660    25255408.356 8 -58126594.608 7
  23846955.516    23846957.878    51786607.384 9 -37634308.376 8
 86  6 11  2 53 47.0800000  0  4G12G13G 9G11
  21186507.098    21186510.933   -30331951.082 9  32212011.661 9
  20501932.623    20501935.599   -13511933.819 9  13956015.225 7
  20837479.140    20837481.879    25270053.856 8 -58115182.536 8
  23850133.626    23850135.562    51803310.966 7 -37621292.593 9
 86  6 11  2 53 53.0800000  0  4G12G13G 9G11
  21184382.892    21184384.781   -30343119.425 9  32203309.049 9
  20502495.261    20502498.060   -13508978.402 9  13958318.152 8
  20840270.728    20840272.388    25284721.164 8 -58103753.476 8
  23853310.144    23853314.018    51820013.726 8 -37608277.455 8
 86  6 11  2 53 59.0800000  0  4G12G13G 9G11
  21182261.517    21182263.301   -30354267.340 9  32194622.372 9
  20503060.903    20503062.402   -13506009.154 9  13960631.858 9
  20843066.463    20843067.500    25299410.166 9 -58092307.496 8
  23856490.838    23856493.001    51836715.654 8 -37595262.970 8
 86  6 11  2 54  5.0800000  0  4G12G13G 9G11
  21180143.373    21180145.568   -30365394.887 9  32185951.561 9
  20503627.831    20503630.087   -13503025.935 9  13962956.444 9
  20845864.873    20845867.249    25314120.933 9 -58080844.571 8
  23859666.706    23859670.996    51853416.713 7 -37582249.155 8
 86  6 11  2 54 11.0800000  0  4G12G13G 9G11
  21178029.659    21178032.273   -30376502.051 9  32177296.629 8
  20504198.197    20504200.138   -13500028.773 9  13965291.899 8
  20848668.241    20848670.233    25328853.467 9 -58069364.665 8
  23862845.121    23862850.039    51870116.883 7 -37569236.038 8
 86  6 11  2 54 17.0800000  0  4G12G13G 9G11
  21175920.433    21175922.703   -30387588.777 9  32168657.619 9
  20504770.909    20504773.365   -13497017.817 9  13967638.087 9
  20851476.457    20851476.666    25343607.817 9 -58057867.790 8
  23866021.583    23866028.648    51886816.152 8 -37556223.632 8
 86  6 11  2 54 23.0800000  0  4G12G13G 9G11
  21173814.617    21173816.990   -30398655.096 9  32160034.518 9
  20505347.058    20505349.184   -13493993.061 9  13969995.051 9
  20854288.608    20854289.671    25358383.731 8 -58046354.081 7
  23869199.305    23869204.637    51903514.580 7 -37543211.869 9
 86  6 11  2 54 29.0800000  0  4G12G13G 9G11
  21171712.031    21171714.655   -30409700.915 9  32151427.389 9
  20505924.463    20505926.962   -13490954.536 9  13972362.737 9
  20857103.440    20857106.094    25373181.411 8 -58034823.417 8
  23872377.515    23872382.599    51920212.105 7 -37530200.804 9
 86  6 11  2 54 35.0800000  0  4G12G13G 9G11
  21169613.604    21169617.449   -30420726.195 9  32142836.263 9
  20506505.410    20506507.885   -13487902.207 9  13974741.167 9
  20859924.492    20859924.808    25388000.820 9 -58023275.838 8
  23875556.323    23875559.710    51936908.750 6 -37517190.450 8
 86  6 11  2 54 41.0800000  0  4G12G13G 9G11
  21167520.175    21167522.554   -30431730.984 9  32134261.115 9
  20507089.631    20507091.815   -13484836.098 9  13977130.343 9
  20862748.515    20862749.535    25402841.802 9 -58011711.441 8
  23878731.506    23878735.573    51953604.453 6 -37504180.811 8
 86  6 11  2 54 47.0800000  0  4G12G13G 9G11
  21165429.402    21165432.811   -30442715.248 9  32125701.940 9
  20507675.334    20507677.921   -13481756.208 9  13979530.255 9
  20865575.525    20865579.206    25417704.398 9 -58000130.200 8
  23881908.011    23881913.870    51970299.234 7 -37491171.897 9
 86  6 11  2 54 53.0800000  0  4G12G13G 9G11
  21163344.338    21163345.398   -30453678.964 9  32117158.786 9
  20508264.499    20508267.129   -13478662.560 9  13981940.896 9
  20868408.620    20868411.256    25432588.630 9 -57988532.104 8
  23885085.372    23885091.811    51986993.051 6 -37478163.737 9
 86  6 11  2 54 59.0800000  0  4G12G13G 9G11
  21161261.609    21161263.456   -30464622.188 9  32108631.604 9
  20508855.902    20508858.288   -13475555.197 9  13984362.215 9
  20871244.692    20871246.753    25447494.557 8 -57976917.095 8
  23888261.891    23888266.542    52003685.955 6 -37465156.305 9
 86  6 11  2 55  5.0800000  0  4G12G13G 9G11
  21159182.706    21159184.542   -30475544.752 9  32100120.520 9
  20509449.761    20509451.929   -13472434.146 9  13986794.207 9
  20874084.561    20874087.156    25462422.112 9 -57965285.247 7
  23891439.194    23891444.119    52020377.869 6 -37452149.617 9
 86  6 11  2 55 11.0800000  0  4G12G13G 9G11
  21157108.242    21157109.606   -30486446.641 9  32091625.544 9
  20510046.455    20510047.866   -13469299.408 9  13989236.852 9
  20876930.943    20876931.188    25477371.141 9 -57953636.652 7
  23894615.770    23894619.803    52037068.815 7 -37439143.699 9
 86  6 11  2 55 17.0800000  0  4G12G13G 9G11
  21155038.513    21155039.363   -30497327.867 9  32083146.669 9
  20510645.323    20510646.805   -13466151.041 9  13991690.124 8
  20879780.554    20879781.792    25492341.754 9 -57941971.237 7
  23897789.455    23897794.784    52053758.737 7 -37426138.575 9
